<?xml version='1.0' encoding='UTF-8'?><gpx version="1.1" creator="JPX - https://github.com/jenetics/jpx" xmlns="http://www.topografix.com/GPX/1/1"><trk><trkseg><trkpt lat="44.29659562441456" lon="10.828671068002597"><ele>849.0</ele><time>2026-04-18T12:25:35.002Z</time></trkpt><trkpt lat="44.29669478829481" lon="10.828670042193107"><ele>849.0</ele><time>2026-04-18T12:25:38.002Z</time></trkpt><trkpt lat="44.296965036658776" lon="10.828584297587145"><ele>849.0</ele><time>2026-04-18T12:25:48.001Z</time></trkpt><trkpt lat="44.29698332253584" lon="10.828493169505085"><ele>849.0</ele><time>2026-04-18T12:25:55Z</time></trkpt><trkpt lat="44.296918134740515" lon="10.828439875526545"><ele>849.0</ele><time>2026-04-18T12:25:58Z</time></trkpt><trkpt lat="44.29684855661814" lon="10.828526057888556"><ele>849.0</ele><time>2026-04-18T12:26:02Z</time></trkpt><trkpt lat="44.29677745370391" lon="10.82854366067362"><ele>849.0</ele><time>2026-04-18T12:26:05Z</time></trkpt><trkpt lat="44.29682024511007" lon="10.828478321409971"><ele>849.0</ele><time>2026-04-18T12:26:08Z</time></trkpt><trkpt lat="44.296872105989834" lon="10.828416635093726"><ele>849.0</ele><time>2026-04-18T12:26:11Z</time></trkpt><trkpt lat="44.2969333299679" lon="10.828365918717264"><ele>849.0</ele><time>2026-04-18T12:26:35.999Z</time></trkpt><trkpt lat="44.29698475800032" lon="10.828466997633289"><ele>849.0</ele><time>2026-04-18T12:27:09.999Z</time></trkpt><trkpt lat="44.296908300163324" lon="10.828606564924446"><ele>849.0</ele><time>2026-04-18T12:27:11.999Z</time></trkpt><trkpt lat="44.29686732261613" lon="10.828677909299072"><ele>849.0</ele><time>2026-04-18T12:27:15Z</time></trkpt><trkpt lat="44.29691400612118" lon="10.828749459642578"><ele>849.0</ele><time>2026-04-18T12:27:17Z</time></trkpt><trkpt lat="44.296985229661104" lon="10.828805494350519"><ele>849.0</ele><time>2026-04-18T12:27:18Z</time></trkpt><trkpt lat="44.29705441121012" lon="10.828869411900499"><ele>849.0</ele><time>2026-04-18T12:27:19Z</time></trkpt><trkpt lat="44.2971173899015" lon="10.828941945354847"><ele>849.0</ele><time>2026-04-18T12:27:20Z</time></trkpt><trkpt lat="44.297168211877256" lon="10.828995410792379"><ele>849.0</ele><time>2026-04-18T12:27:21Z</time></trkpt><trkpt lat="44.29721376453879" lon="10.829064583183364"><ele>849.0</ele><time>2026-04-18T12:27:22Z</time></trkpt><trkpt lat="44.29727555608892" lon="10.829159744749735"><ele>849.0</ele><time>2026-04-18T12:27:24Z</time></trkpt><trkpt lat="44.29714590422818" lon="10.829220685823934"><ele>849.0</ele><time>2026-04-18T12:27:27Z</time></trkpt><trkpt lat="44.297216418741606" lon="10.829189040814112"><ele>849.0</ele><time>2026-04-18T12:29:27.001Z</time></trkpt><trkpt lat="44.297353225606216" lon="10.829335064055616"><ele>847.5</ele><time>2026-04-18T12:29:29.001Z</time></trkpt><trkpt lat="44.29745516218114" lon="10.829267507874402"><ele>846.0</ele><time>2026-04-18T12:29:34.001Z</time></trkpt><trkpt lat="44.297544809442215" lon="10.829204956372223"><ele>844.5</ele><time>2026-04-18T12:29:35.001Z</time></trkpt><trkpt lat="44.297649090241386" lon="10.829123804343308"><ele>843.0</ele><time>2026-04-18T12:29:36.001Z</time></trkpt><trkpt lat="44.29775107204055" lon="10.829018810463845"><ele>843.0</ele><time>2026-04-18T12:29:37.001Z</time></trkpt><trkpt lat="44.29784007851479" lon="10.828892413581157"><ele>843.0</ele><time>2026-04-18T12:29:38.001Z</time></trkpt><trkpt lat="44.29793852084543" lon="10.828779294818405"><ele>843.0</ele><time>2026-04-18T12:29:39.001Z</time></trkpt><trkpt lat="44.298020432383744" lon="10.828645095806674"><ele>843.0</ele><time>2026-04-18T12:29:40.001Z</time></trkpt><trkpt lat="44.29808317213272" lon="10.828503792751702"><ele>841.2</ele><time>2026-04-18T12:29:41.001Z</time></trkpt><trkpt lat="44.29812824705882" lon="10.828365694767404"><ele>839.4</ele><time>2026-04-18T12:29:42.001Z</time></trkpt><trkpt lat="44.29816647621571" lon="10.82824949710414"><ele>837.6</ele><time>2026-04-18T12:29:43.001Z</time></trkpt><trkpt lat="44.298204003109205" lon="10.828138510022336"><ele>835.8000000000001</ele><time>2026-04-18T12:29:44.001Z</time></trkpt><trkpt lat="44.29823622612763" lon="10.828049498718496"><ele>834.0</ele><time>2026-04-18T12:29:45.001Z</time></trkpt><trkpt lat="44.29830596068407" lon="10.827902369457554"><ele>834.0</ele><time>2026-04-18T12:29:47.001Z</time></trkpt><trkpt lat="44.29837930963068" lon="10.827885842256007"><ele>834.0</ele><time>2026-04-18T12:29:48.001Z</time></trkpt><trkpt lat="44.29845633068133" lon="10.827934841961328"><ele>834.0</ele><time>2026-04-18T12:29:49.001Z</time></trkpt><trkpt lat="44.298521789935236" lon="10.82798032322536"><ele>834.0</ele><time>2026-04-18T12:29:50.001Z</time></trkpt><trkpt lat="44.298652394215125" lon="10.828142384877772"><ele>834.0</ele><time>2026-04-18T12:29:51.001Z</time></trkpt><trkpt lat="44.29877343034922" lon="10.828262536051279"><ele>835.6666666666667</ele><time>2026-04-18T12:29:52.001Z</time></trkpt><trkpt lat="44.29892528123503" lon="10.828399593343075"><ele>837.3333333333334</ele><time>2026-04-18T12:29:53.001Z</time></trkpt><trkpt lat="44.299056045192195" lon="10.828499585615223"><ele>839.0</ele><time>2026-04-18T12:29:54.001Z</time></trkpt><trkpt lat="44.299190198122545" lon="10.828563812181569"><ele>839.0</ele><time>2026-04-18T12:29:55.001Z</time></trkpt><trkpt lat="44.299316173521476" lon="10.828635205031544"><ele>839.0</ele><time>2026-04-18T12:29:56.001Z</time></trkpt><trkpt lat="44.2994310364733" lon="10.828700960099619"><ele>839.0</ele><time>2026-04-18T12:29:57.001Z</time></trkpt><trkpt lat="44.299539675053275" lon="10.828759798480084"><ele>839.0</ele><time>2026-04-18T12:29:58.001Z</time></trkpt><trkpt lat="44.29965398906383" lon="10.828817094065807"><ele>835.25</ele><time>2026-04-18T12:29:59.001Z</time></trkpt><trkpt lat="44.29975752481012" lon="10.828866009004205"><ele>831.5</ele><time>2026-04-18T12:30:00.001Z</time></trkpt><trkpt lat="44.29986532086292" lon="10.828905126650847"><ele>827.75</ele><time>2026-04-18T12:30:01.001Z</time></trkpt><trkpt lat="44.29998322862899" lon="10.828909462341393"><ele>824.0</ele><time>2026-04-18T12:30:02Z</time></trkpt><trkpt lat="44.30009439724228" lon="10.82885905727761"><ele>824.0</ele><time>2026-04-18T12:30:03Z</time></trkpt><trkpt lat="44.300207022131886" lon="10.828781065026725"><ele>824.0</ele><time>2026-04-18T12:30:04Z</time></trkpt><trkpt lat="44.300309099968416" lon="10.828695009561558"><ele>824.0</ele><time>2026-04-18T12:30:05Z</time></trkpt><trkpt lat="44.30040670580123" lon="10.828593353703631"><ele>824.0</ele><time>2026-04-18T12:30:06Z</time></trkpt><trkpt lat="44.300493910832266" lon="10.828499781800346"><ele>821.2</ele><time>2026-04-18T12:30:07Z</time></trkpt><trkpt lat="44.30057822345915" lon="10.828414449420233"><ele>818.4000000000001</ele><time>2026-04-18T12:30:08Z</time></trkpt><trkpt lat="44.30066075205571" lon="10.828329934200154"><ele>815.6</ele><time>2026-04-18T12:30:09Z</time></trkpt><trkpt lat="44.300726047442936" lon="10.828277026423947"><ele>812.8</ele><time>2026-04-18T12:30:10Z</time></trkpt><trkpt lat="44.30079957826515" lon="10.82824123548642"><ele>810.0</ele><time>2026-04-18T12:30:11Z</time></trkpt><trkpt lat="44.30088948074754" lon="10.82822001857152"><ele>810.0</ele><time>2026-04-18T12:30:12Z</time></trkpt><trkpt lat="44.30097896496882" lon="10.828251930221521"><ele>810.0</ele><time>2026-04-18T12:30:13Z</time></trkpt><trkpt lat="44.301060504511454" lon="10.828270879020977"><ele>810.0</ele><time>2026-04-18T12:30:14Z</time></trkpt><trkpt lat="44.30112875008431" lon="10.828343059178836"><ele>810.0</ele><time>2026-04-18T12:30:15Z</time></trkpt><trkpt lat="44.30119907268609" lon="10.828380676962006"><ele>810.0</ele><time>2026-04-18T12:30:16Z</time></trkpt><trkpt lat="44.301248181183695" lon="10.828438886915409"><ele>810.0</ele><time>2026-04-18T12:30:17Z</time></trkpt><trkpt lat="44.30129295626812" lon="10.828502281866715"><ele>810.0</ele><time>2026-04-18T12:30:20Z</time></trkpt><trkpt lat="44.30124139804096" lon="10.828433230141133"><ele>810.0</ele><time>2026-04-18T12:30:23Z</time></trkpt><trkpt lat="44.30125978831966" lon="10.828294026183539"><ele>810.0</ele><time>2026-04-18T12:30:24Z</time></trkpt><trkpt lat="44.3012016751121" lon="10.828187025929521"><ele>810.0</ele><time>2026-04-18T12:30:25Z</time></trkpt><trkpt lat="44.301140314774884" lon="10.828095110491835"><ele>810.0</ele><time>2026-04-18T12:30:27Z</time></trkpt><trkpt lat="44.301099225465784" lon="10.828003705713737"><ele>810.0</ele><time>2026-04-18T12:30:29Z</time></trkpt><trkpt lat="44.3010270961903" lon="10.82792514895657"><ele>810.0</ele><time>2026-04-18T12:30:31Z</time></trkpt><trkpt lat="44.30098257715781" lon="10.827829788100907"><ele>810.0</ele><time>2026-04-18T12:30:33Z</time></trkpt><trkpt lat="44.300931119421236" lon="10.827757811513614"><ele>810.0</ele><time>2026-04-18T12:30:35Z</time></trkpt><trkpt lat="44.30086778515343" lon="10.82770809854122"><ele>810.0</ele><time>2026-04-18T12:30:37Z</time></trkpt><trkpt lat="44.30081415901614" lon="10.827607943452131"><ele>810.0</ele><time>2026-04-18T12:30:40Z</time></trkpt><trkpt lat="44.30068125072654" lon="10.827438179069423"><ele>807.0</ele><time>2026-04-18T12:30:43Z</time></trkpt><trkpt lat="44.30063954847499" lon="10.827337553624961"><ele>804.0</ele><time>2026-04-18T12:30:45Z</time></trkpt><trkpt lat="44.30056042129942" lon="10.827291829153593"><ele>801.0</ele><time>2026-04-18T12:30:47Z</time></trkpt><trkpt lat="44.30049463928442" lon="10.827251527942186"><ele>798.0</ele><time>2026-04-18T12:30:49Z</time></trkpt><trkpt lat="44.30042901493128" lon="10.827222262189474"><ele>795.0</ele><time>2026-04-18T12:32:37Z</time></trkpt><trkpt lat="44.3003656999453" lon="10.82723456767623"><ele>792.0</ele><time>2026-04-18T12:32:40Z</time></trkpt><trkpt lat="44.30029556932127" lon="10.827278080033405"><ele>791.3333333333334</ele><time>2026-04-18T12:32:42Z</time></trkpt><trkpt lat="44.3002321686212" lon="10.82736848933429"><ele>790.6666666666667</ele><time>2026-04-18T12:32:44Z</time></trkpt><trkpt lat="44.30014955116644" lon="10.8273939839575"><ele>790.0</ele><time>2026-04-18T12:32:46Z</time></trkpt><trkpt lat="44.3000833459818" lon="10.827353475529355"><ele>789.3333333333334</ele><time>2026-04-18T12:32:48Z</time></trkpt><trkpt lat="44.30002276204984" lon="10.827282309460818"><ele>788.6666666666667</ele><time>2026-04-18T12:32:51Z</time></trkpt><trkpt lat="44.299979216170065" lon="10.827139124548365"><ele>788.0</ele><time>2026-04-18T12:32:53Z</time></trkpt><trkpt lat="44.29989608600953" lon="10.827052074362863"><ele>788.0</ele><time>2026-04-18T12:32:55Z</time></trkpt><trkpt lat="44.29982006423693" lon="10.826944358427516"><ele>788.0</ele><time>2026-04-18T12:32:57Z</time></trkpt><trkpt lat="44.29972743274074" lon="10.82687254981948"><ele>788.0</ele><time>2026-04-18T12:32:59Z</time></trkpt><trkpt lat="44.29961330132892" lon="10.826825485884676"><ele>788.0</ele><time>2026-04-18T12:33:01Z</time></trkpt><trkpt lat="44.29951639848929" lon="10.826798019225947"><ele>788.0</ele><time>2026-04-18T12:33:03Z</time></trkpt><trkpt lat="44.29943394175449" lon="10.826769851868331"><ele>787.0000000000001</ele><time>2026-04-18T12:33:05Z</time></trkpt><trkpt lat="44.299378967446074" lon="10.826691926842432"><ele>786.0</ele><time>2026-04-18T12:33:09Z</time></trkpt><trkpt lat="44.29945413141687" lon="10.826647719093613"><ele>785.0</ele><time>2026-04-18T12:33:13Z</time></trkpt><trkpt lat="44.29952239909913" lon="10.826629224446256"><ele>784.0</ele><time>2026-04-18T12:33:14.999Z</time></trkpt><trkpt lat="44.29963572826951" lon="10.826586197521546"><ele>783.0000000000001</ele><time>2026-04-18T12:33:16.999Z</time></trkpt><trkpt lat="44.299728599923" lon="10.82653551282215"><ele>782.0</ele><time>2026-04-18T12:33:20.999Z</time></trkpt><trkpt lat="44.299806512347956" lon="10.82652771224231"><ele>779.3333333333334</ele><time>2026-04-18T12:33:23.999Z</time></trkpt><trkpt lat="44.29988813164767" lon="10.826505369195264"><ele>776.6666666666667</ele><time>2026-04-18T12:33:25.999Z</time></trkpt><trkpt lat="44.29994957023072" lon="10.82637881339213"><ele>774.0</ele><time>2026-04-18T12:33:27.999Z</time></trkpt><trkpt lat="44.29995734033837" lon="10.826279989456284"><ele>771.3333333333334</ele><time>2026-04-18T12:33:30.999Z</time></trkpt><trkpt lat="44.30000165476471" lon="10.826179115786712"><ele>768.6666666666667</ele><time>2026-04-18T12:33:35Z</time></trkpt><trkpt lat="44.300062211642384" lon="10.826130243260753"><ele>766.0</ele><time>2026-04-18T12:33:37Z</time></trkpt><trkpt lat="44.300152071756564" lon="10.826121982118758"><ele>766.0</ele><time>2026-04-18T12:33:39Z</time></trkpt><trkpt lat="44.300220232473905" lon="10.82606870266648"><ele>766.0</ele><time>2026-04-18T12:33:42Z</time></trkpt><trkpt lat="44.30019654853415" lon="10.825964190347822"><ele>766.0</ele><time>2026-04-18T12:33:45Z</time></trkpt><trkpt lat="44.30013474803024" lon="10.825861113485585"><ele>766.0</ele><time>2026-04-18T12:33:48Z</time></trkpt><trkpt lat="44.300079121727855" lon="10.825787827010718"><ele>766.0</ele><time>2026-04-18T12:33:50Z</time></trkpt><trkpt lat="44.30003070123709" lon="10.82570879670104"><ele>766.0</ele><time>2026-04-18T12:33:53Z</time></trkpt><trkpt lat="44.29999851379727" lon="10.825621857670292"><ele>763.8333333333334</ele><time>2026-04-18T12:33:56Z</time></trkpt><trkpt lat="44.29999569101134" lon="10.825519456740555"><ele>761.6666666666667</ele><time>2026-04-18T12:33:58Z</time></trkpt><trkpt lat="44.299985208169886" lon="10.82540287323047"><ele>759.5</ele><time>2026-04-18T12:34:00Z</time></trkpt><trkpt lat="44.2999519308593" lon="10.825290447636167"><ele>757.3333333333334</ele><time>2026-04-18T12:34:02Z</time></trkpt><trkpt lat="44.299899258310404" lon="10.825230859767524"><ele>755.1666666666666</ele><time>2026-04-18T12:34:04Z</time></trkpt><trkpt lat="44.29987954856983" lon="10.825129293053672"><ele>753.0</ele><time>2026-04-18T12:34:05Z</time></trkpt><trkpt lat="44.29985736124252" lon="10.825015793829916"><ele>750.8333333333334</ele><time>2026-04-18T12:34:07Z</time></trkpt><trkpt lat="44.299842622066265" lon="10.824916025227513"><ele>748.6666666666666</ele><time>2026-04-18T12:34:09Z</time></trkpt><trkpt lat="44.299861676146556" lon="10.8247699229232"><ele>746.5</ele><time>2026-04-18T12:34:12Z</time></trkpt><trkpt lat="44.29987911533703" lon="10.824672118928678"><ele>744.3333333333333</ele><time>2026-04-18T12:34:14Z</time></trkpt><trkpt lat="44.2999062467228" lon="10.8245726763579"><ele>742.1666666666666</ele><time>2026-04-18T12:34:16Z</time></trkpt><trkpt lat="44.29994510558407" lon="10.824496136254767"><ele>740.0</ele><time>2026-04-18T12:34:18Z</time></trkpt><trkpt lat="44.29996124289488" lon="10.824388016726694"><ele>736.0</ele><time>2026-04-18T12:34:20Z</time></trkpt><trkpt lat="44.29997021380732" lon="10.82426593038965"><ele>732.0</ele><time>2026-04-18T12:34:22Z</time></trkpt><trkpt lat="44.29997157387807" lon="10.824170202930976"><ele>728.0</ele><time>2026-04-18T12:34:24Z</time></trkpt><trkpt lat="44.29996709403862" lon="10.824059193124365"><ele>724.0</ele><time>2026-04-18T12:34:27Z</time></trkpt><trkpt lat="44.30000117804003" lon="10.823962969393275"><ele>720.0</ele><time>2026-04-18T12:34:29Z</time></trkpt><trkpt lat="44.30000218846443" lon="10.823868427023196"><ele>716.0</ele><time>2026-04-18T12:34:31Z</time></trkpt><trkpt lat="44.30000131231978" lon="10.823733278469179"><ele>716.0</ele><time>2026-04-18T12:34:34Z</time></trkpt><trkpt lat="44.29996575189184" lon="10.823646042328424"><ele>716.0</ele><time>2026-04-18T12:34:37Z</time></trkpt><trkpt lat="44.299931986142305" lon="10.823565132803754"><ele>716.0</ele><time>2026-04-18T12:34:39Z</time></trkpt><trkpt lat="44.29993273443582" lon="10.823455115345821"><ele>716.0</ele><time>2026-04-18T12:34:41Z</time></trkpt><trkpt lat="44.29996135817556" lon="10.823358257320423"><ele>716.0</ele><time>2026-04-18T12:34:42Z</time></trkpt><trkpt lat="44.29998434648894" lon="10.823254300481807"><ele>716.0</ele><time>2026-04-18T12:34:43Z</time></trkpt><trkpt lat="44.29999603847348" lon="10.823138981916504"><ele>711.6666666666666</ele><time>2026-04-18T12:34:44Z</time></trkpt><trkpt lat="44.30004968608839" lon="10.823081756258496"><ele>707.3333333333333</ele><time>2026-04-18T12:34:46Z</time></trkpt><trkpt lat="44.3001198394664" lon="10.822994628694131"><ele>703.0</ele><time>2026-04-18T12:34:48Z</time></trkpt><trkpt lat="44.300164200966506" lon="10.82292892087398"><ele>698.6666666666666</ele><time>2026-04-18T12:34:50Z</time></trkpt><trkpt lat="44.300226801927266" lon="10.822825526566737"><ele>694.3333333333334</ele><time>2026-04-18T12:34:52Z</time></trkpt><trkpt lat="44.30026988001855" lon="10.822733444853188"><ele>690.0</ele><time>2026-04-18T12:34:55Z</time></trkpt><trkpt lat="44.300303313872696" lon="10.822621306408713"><ele>686.2</ele><time>2026-04-18T12:34:57Z</time></trkpt><trkpt lat="44.30034353492912" lon="10.822543131594893"><ele>682.4</ele><time>2026-04-18T12:34:58Z</time></trkpt><trkpt lat="44.30040158639002" lon="10.82244099262188"><ele>678.5999999999999</ele><time>2026-04-18T12:35:00Z</time></trkpt><trkpt lat="44.300423529079765" lon="10.82234476205129"><ele>674.8</ele><time>2026-04-18T12:35:02Z</time></trkpt><trkpt lat="44.3004746866201" lon="10.822204376021633"><ele>671.0</ele><time>2026-04-18T12:35:04Z</time></trkpt><trkpt lat="44.30050041341644" lon="10.82203747069654"><ele>671.0</ele><time>2026-04-18T12:35:06Z</time></trkpt><trkpt lat="44.30053205832421" lon="10.821863627179436"><ele>671.0</ele><time>2026-04-18T12:35:08Z</time></trkpt><trkpt lat="44.30057659573151" lon="10.821721395324285"><ele>671.0</ele><time>2026-04-18T12:35:10Z</time></trkpt><trkpt lat="44.300615283147145" lon="10.82164378340009"><ele>671.0</ele><time>2026-04-18T12:35:11Z</time></trkpt><trkpt lat="44.30067784958845" lon="10.821542056231383"><ele>671.0</ele><time>2026-04-18T12:35:13Z</time></trkpt><trkpt lat="44.3007129990716" lon="10.821456717131841"><ele>670.8333333333333</ele><time>2026-04-18T12:35:14Z</time></trkpt><trkpt lat="44.300760862180866" lon="10.821370268789673"><ele>670.6666666666666</ele><time>2026-04-18T12:35:15Z</time></trkpt><trkpt lat="44.30078217664531" lon="10.821282005945216"><ele>670.5</ele><time>2026-04-18T12:35:15.999Z</time></trkpt><trkpt lat="44.300817573080586" lon="10.821175217194305"><ele>670.3333333333334</ele><time>2026-04-18T12:35:16.999Z</time></trkpt><trkpt lat="44.30085476009668" lon="10.82107918457083"><ele>670.1666666666667</ele><time>2026-04-18T12:35:17.999Z</time></trkpt><trkpt lat="44.30088244102786" lon="10.820970980382091"><ele>670.0</ele><time>2026-04-18T12:35:18.999Z</time></trkpt><trkpt lat="44.300940718846824" lon="10.820870511833364"><ele>667.6666666666667</ele><time>2026-04-18T12:35:19.999Z</time></trkpt><trkpt lat="44.301003751728" lon="10.820787870521666"><ele>665.3333333333334</ele><time>2026-04-18T12:35:20.999Z</time></trkpt><trkpt lat="44.30105255404626" lon="10.820689764729977"><ele>663.0</ele><time>2026-04-18T12:35:21.999Z</time></trkpt><trkpt lat="44.30109703165403" lon="10.820583544208588"><ele>660.6666666666666</ele><time>2026-04-18T12:35:22.999Z</time></trkpt><trkpt lat="44.30113633449552" lon="10.82045678707573"><ele>658.3333333333333</ele><time>2026-04-18T12:35:23.999Z</time></trkpt><trkpt lat="44.30118337057835" lon="10.820349516938618"><ele>656.0</ele><time>2026-04-18T12:35:24.999Z</time></trkpt><trkpt lat="44.30122936450642" lon="10.82023419530321"><ele>655.4</ele><time>2026-04-18T12:35:25.999Z</time></trkpt><trkpt lat="44.30127464208025" lon="10.820121358035873"><ele>654.8</ele><time>2026-04-18T12:35:26.999Z</time></trkpt><trkpt lat="44.30135989325909" lon="10.820041038367242"><ele>654.1999999999999</ele><time>2026-04-18T12:35:27.999Z</time></trkpt><trkpt lat="44.30141834285991" lon="10.819931468443064"><ele>653.5999999999999</ele><time>2026-04-18T12:35:28.999Z</time></trkpt><trkpt lat="44.301482327289534" lon="10.819822294307375"><ele>653.0</ele><time>2026-04-18T12:35:29.999Z</time></trkpt><trkpt lat="44.3015287651725" lon="10.819713250146213"><ele>653.0</ele><time>2026-04-18T12:35:30.999Z</time></trkpt><trkpt lat="44.30158214609988" lon="10.819607542439218"><ele>653.0</ele><time>2026-04-18T12:35:31.999Z</time></trkpt><trkpt lat="44.30161365615918" lon="10.819483460930575"><ele>653.0</ele><time>2026-04-18T12:35:32.999Z</time></trkpt><trkpt lat="44.30163438082644" lon="10.819375001515928"><ele>653.0</ele><time>2026-04-18T12:35:33.999Z</time></trkpt><trkpt lat="44.30165772363221" lon="10.819277166223959"><ele>653.0</ele><time>2026-04-18T12:35:34.999Z</time></trkpt><trkpt lat="44.30169246019778" lon="10.819167344637435"><ele>653.0</ele><time>2026-04-18T12:35:35.999Z</time></trkpt><trkpt lat="44.30173257999736" lon="10.819070492950258"><ele>650.6666666666666</ele><time>2026-04-18T12:35:36.999Z</time></trkpt><trkpt lat="44.30178208863132" lon="10.818983955928784"><ele>648.3333333333333</ele><time>2026-04-18T12:35:38Z</time></trkpt><trkpt lat="44.30183052058288" lon="10.818909831234679"><ele>646.0</ele><time>2026-04-18T12:35:39Z</time></trkpt><trkpt lat="44.301884085664625" lon="10.818823618953626"><ele>643.6666666666666</ele><time>2026-04-18T12:35:40Z</time></trkpt><trkpt lat="44.301925033982165" lon="10.818724293341274"><ele>641.3333333333334</ele><time>2026-04-18T12:35:41Z</time></trkpt><trkpt lat="44.301951116144615" lon="10.818594539081463"><ele>639.0</ele><time>2026-04-18T12:35:42Z</time></trkpt><trkpt lat="44.301963034766004" lon="10.818475157093449"><ele>636.2</ele><time>2026-04-18T12:35:43Z</time></trkpt><trkpt lat="44.30199883333155" lon="10.818364150420624"><ele>633.4</ele><time>2026-04-18T12:35:44Z</time></trkpt><trkpt lat="44.302022968476635" lon="10.818210680910829"><ele>630.6</ele><time>2026-04-18T12:35:46Z</time></trkpt><trkpt lat="44.30208899218601" lon="10.81809325988538"><ele>627.8</ele><time>2026-04-18T12:35:48Z</time></trkpt><trkpt lat="44.30216169454322" lon="10.817958691736113"><ele>625.0</ele><time>2026-04-18T12:35:50Z</time></trkpt><trkpt lat="44.30221435577922" lon="10.81788148895843"><ele>625.1666666666667</ele><time>2026-04-18T12:35:51Z</time></trkpt><trkpt lat="44.302265371003884" lon="10.817798968808084"><ele>625.3333333333334</ele><time>2026-04-18T12:35:52Z</time></trkpt><trkpt lat="44.302307768273984" lon="10.817722194455538"><ele>625.5</ele><time>2026-04-18T12:35:53Z</time></trkpt><trkpt lat="44.302334580907825" lon="10.817633195659225"><ele>625.6666666666666</ele><time>2026-04-18T12:35:54Z</time></trkpt><trkpt lat="44.3023283566115" lon="10.817541523586822"><ele>625.8333333333333</ele><time>2026-04-18T12:35:55Z</time></trkpt><trkpt lat="44.30227289554498" lon="10.81746016755211"><ele>626.0</ele><time>2026-04-18T12:35:56Z</time></trkpt><trkpt lat="44.30217558694915" lon="10.817445287618565"><ele>624.1666666666666</ele><time>2026-04-18T12:35:57Z</time></trkpt><trkpt lat="44.30210969614563" lon="10.817400281492601"><ele>622.3333333333333</ele><time>2026-04-18T12:35:58Z</time></trkpt><trkpt lat="44.302009666467775" lon="10.817313987414623"><ele>620.5</ele><time>2026-04-18T12:35:59Z</time></trkpt><trkpt lat="44.30194607278733" lon="10.817215149611473"><ele>618.6666666666666</ele><time>2026-04-18T12:36:00Z</time></trkpt><trkpt lat="44.30190504093905" lon="10.8171431750805"><ele>616.8333333333334</ele><time>2026-04-18T12:36:01Z</time></trkpt><trkpt lat="44.30185330023592" lon="10.817056683619809"><ele>615.0</ele><time>2026-04-18T12:36:02Z</time></trkpt><trkpt lat="44.301799986890096" lon="10.816974117514782"><ele>615.0</ele><time>2026-04-18T12:36:03Z</time></trkpt><trkpt lat="44.3017295910068" lon="10.816879602796368"><ele>615.0</ele><time>2026-04-18T12:36:04Z</time></trkpt><trkpt lat="44.30164788474127" lon="10.816782612698002"><ele>615.0</ele><time>2026-04-18T12:36:05Z</time></trkpt><trkpt lat="44.301567251493566" lon="10.816704839600767"><ele>615.0</ele><time>2026-04-18T12:36:06Z</time></trkpt><trkpt lat="44.30151170557149" lon="10.816616062231303"><ele>615.0</ele><time>2026-04-18T12:36:07Z</time></trkpt><trkpt lat="44.30145109555538" lon="10.816549138669348"><ele>613.3333333333334</ele><time>2026-04-18T12:36:08Z</time></trkpt><trkpt lat="44.30139394178866" lon="10.816477176515624"><ele>611.6666666666666</ele><time>2026-04-18T12:36:09Z</time></trkpt><trkpt lat="44.301345639914544" lon="10.816413887882534"><ele>610.0</ele><time>2026-04-18T12:36:10Z</time></trkpt><trkpt lat="44.301359543246946" lon="10.8163055608884"><ele>608.3333333333333</ele><time>2026-04-18T12:36:11Z</time></trkpt><trkpt lat="44.301370485962686" lon="10.816194968869333"><ele>606.6666666666666</ele><time>2026-04-18T12:36:12Z</time></trkpt><trkpt lat="44.301379901990465" lon="10.816052384104928"><ele>605.0</ele><time>2026-04-18T12:36:13Z</time></trkpt><trkpt lat="44.301393198834305" lon="10.815862128466808"><ele>605.0</ele><time>2026-04-18T12:36:14Z</time></trkpt><trkpt lat="44.30140726740211" lon="10.8156817327576"><ele>605.0</ele><time>2026-04-18T12:36:15Z</time></trkpt><trkpt lat="44.301422839981754" lon="10.815536627155366"><ele>605.0</ele><time>2026-04-18T12:36:16Z</time></trkpt><trkpt lat="44.301443986979585" lon="10.815433168919439"><ele>605.0</ele><time>2026-04-18T12:36:17Z</time></trkpt><trkpt lat="44.30150107081885" lon="10.81524616763207"><ele>608.0</ele><time>2026-04-18T12:36:19Z</time></trkpt><trkpt lat="44.30152444341225" lon="10.815157172712672"><ele>611.0</ele><time>2026-04-18T12:36:20Z</time></trkpt><trkpt lat="44.301540798536415" lon="10.815050185560736"><ele>614.0</ele><time>2026-04-18T12:36:21Z</time></trkpt><trkpt lat="44.301537074711355" lon="10.814904039418243"><ele>617.0</ele><time>2026-04-18T12:36:22Z</time></trkpt><trkpt lat="44.30152719792822" lon="10.81477166529905"><ele>620.0</ele><time>2026-04-18T12:36:23Z</time></trkpt><trkpt lat="44.30151594259283" lon="10.8146719068341"><ele>623.0</ele><time>2026-04-18T12:36:24Z</time></trkpt><trkpt lat="44.30150753046497" lon="10.81457529985254"><ele>624.3333333333333</ele><time>2026-04-18T12:36:25Z</time></trkpt><trkpt lat="44.30150148054426" lon="10.814480963308926"><ele>625.6666666666666</ele><time>2026-04-18T12:36:26Z</time></trkpt><trkpt lat="44.30149786022049" lon="10.814387966656028"><ele>627.0</ele><time>2026-04-18T12:36:27Z</time></trkpt><trkpt lat="44.30150935426745" lon="10.814284784253474"><ele>628.3333333333334</ele><time>2026-04-18T12:36:28Z</time></trkpt><trkpt lat="44.30152516733816" lon="10.814191723387333"><ele>629.6666666666667</ele><time>2026-04-18T12:36:29Z</time></trkpt><trkpt lat="44.30154209570908" lon="10.81410066364224"><ele>631.0</ele><time>2026-04-18T12:36:30Z</time></trkpt><trkpt lat="44.3015750887713" lon="10.813890632964448"><ele>632.1666666666667</ele><time>2026-04-18T12:36:32Z</time></trkpt><trkpt lat="44.301583670353395" lon="10.813801315918186"><ele>633.3333333333334</ele><time>2026-04-18T12:36:33Z</time></trkpt><trkpt lat="44.30157645599728" lon="10.81368505474602"><ele>634.5</ele><time>2026-04-18T12:36:34Z</time></trkpt><trkpt lat="44.301558172991065" lon="10.813586259805602"><ele>635.6666666666666</ele><time>2026-04-18T12:36:35Z</time></trkpt><trkpt lat="44.301531588149025" lon="10.813459526833201"><ele>636.8333333333333</ele><time>2026-04-18T12:36:36Z</time></trkpt><trkpt lat="44.301509445745225" lon="10.81335737546801"><ele>638.0</ele><time>2026-04-18T12:36:37Z</time></trkpt><trkpt lat="44.30148412824406" lon="10.813248329099682"><ele>638.1666666666666</ele><time>2026-04-18T12:36:38Z</time></trkpt><trkpt lat="44.301456048347795" lon="10.813103165857088"><ele>638.3333333333333</ele><time>2026-04-18T12:36:40Z</time></trkpt><trkpt lat="44.30147078268474" lon="10.81299234385895"><ele>638.5</ele><time>2026-04-18T12:36:42Z</time></trkpt><trkpt lat="44.301490405315384" lon="10.812897126676825"><ele>638.6666666666666</ele><time>2026-04-18T12:36:43Z</time></trkpt><trkpt lat="44.301505933625" lon="10.812764059553894"><ele>638.8333333333334</ele><time>2026-04-18T12:36:44Z</time></trkpt><trkpt lat="44.301546872437825" lon="10.812650790134976"><ele>639.0</ele><time>2026-04-18T12:36:45Z</time></trkpt><trkpt lat="44.3015863205252" lon="10.812545807588993"><ele>638.5</ele><time>2026-04-18T12:36:46Z</time></trkpt><trkpt lat="44.30161212125751" lon="10.81245584833907"><ele>638.0</ele><time>2026-04-18T12:36:47Z</time></trkpt><trkpt lat="44.30164176718747" lon="10.812335042065394"><ele>637.5</ele><time>2026-04-18T12:36:48Z</time></trkpt><trkpt lat="44.30166890122924" lon="10.812214143607978"><ele>637.0</ele><time>2026-04-18T12:36:49Z</time></trkpt><trkpt lat="44.30169537473689" lon="10.812081530823463"><ele>636.5</ele><time>2026-04-18T12:36:50Z</time></trkpt><trkpt lat="44.30171807610778" lon="10.811963303200383"><ele>636.0</ele><time>2026-04-18T12:36:51Z</time></trkpt><trkpt lat="44.30173921486168" lon="10.811839716318191"><ele>635.4</ele><time>2026-04-18T12:36:52Z</time></trkpt><trkpt lat="44.301762543199466" lon="10.811702991974613"><ele>634.8</ele><time>2026-04-18T12:36:53Z</time></trkpt><trkpt lat="44.30178242208945" lon="10.811555165019683"><ele>634.1999999999999</ele><time>2026-04-18T12:36:54Z</time></trkpt><trkpt lat="44.30178904731374" lon="10.811378041488766"><ele>633.6</ele><time>2026-04-18T12:36:55Z</time></trkpt><trkpt lat="44.30178001773778" lon="10.811220631350007"><ele>633.0</ele><time>2026-04-18T12:36:56Z</time></trkpt><trkpt lat="44.30176375900218" lon="10.811040978094807"><ele>631.6666666666666</ele><time>2026-04-18T12:36:57Z</time></trkpt><trkpt lat="44.30174738312411" lon="10.810841057107107"><ele>630.3333333333333</ele><time>2026-04-18T12:36:58Z</time></trkpt><trkpt lat="44.30173486478205" lon="10.810634507213223"><ele>629.0</ele><time>2026-04-18T12:36:59Z</time></trkpt><trkpt lat="44.30172348689514" lon="10.810382235423981"><ele>629.0</ele><time>2026-04-18T12:37:00Z</time></trkpt><trkpt lat="44.30172225721519" lon="10.81016966146825"><ele>629.0</ele><time>2026-04-18T12:37:01Z</time></trkpt><trkpt lat="44.30172273985961" lon="10.809979069076673"><ele>629.0</ele><time>2026-04-18T12:37:02Z</time></trkpt><trkpt lat="44.30171433884435" lon="10.809767145341507"><ele>629.0</ele><time>2026-04-18T12:37:03Z</time></trkpt><trkpt lat="44.301696792839856" lon="10.80957314067187"><ele>630.0</ele><time>2026-04-18T12:37:04Z</time></trkpt><trkpt lat="44.30166732549366" lon="10.80939279406421"><ele>631.0</ele><time>2026-04-18T12:37:05Z</time></trkpt><trkpt lat="44.30163453931426" lon="10.809239628258036"><ele>632.0</ele><time>2026-04-18T12:37:06Z</time></trkpt><trkpt lat="44.301608101041865" lon="10.809118022835376"><ele>633.0</ele><time>2026-04-18T12:37:07Z</time></trkpt><trkpt lat="44.30158982526207" lon="10.80899392786868"><ele>634.0</ele><time>2026-04-18T12:37:08Z</time></trkpt><trkpt lat="44.301588389091" lon="10.808870603885515"><ele>636.6</ele><time>2026-04-18T12:37:09Z</time></trkpt><trkpt lat="44.30160053082112" lon="10.808753912609031"><ele>639.2</ele><time>2026-04-18T12:37:10Z</time></trkpt><trkpt lat="44.3016315146365" lon="10.808645097835342"><ele>641.8000000000001</ele><time>2026-04-18T12:37:11Z</time></trkpt><trkpt lat="44.30166870253726" lon="10.808532913315467"><ele>644.4</ele><time>2026-04-18T12:37:12Z</time></trkpt><trkpt lat="44.30171110666339" lon="10.808406938395494"><ele>647.0</ele><time>2026-04-18T12:37:13Z</time></trkpt><trkpt lat="44.30175340998157" lon="10.808284413258571"><ele>647.0</ele><time>2026-04-18T12:37:14Z</time></trkpt><trkpt lat="44.30179499261737" lon="10.808164417637878"><ele>647.0</ele><time>2026-04-18T12:37:15Z</time></trkpt><trkpt lat="44.301829031835275" lon="10.808054050192245"><ele>647.0</ele><time>2026-04-18T12:37:16Z</time></trkpt><trkpt lat="44.301844639568266" lon="10.807947931514422"><ele>647.0</ele><time>2026-04-18T12:37:17Z</time></trkpt><trkpt lat="44.30189559952215" lon="10.807853160034579"><ele>647.0</ele><time>2026-04-18T12:37:19Z</time></trkpt><trkpt lat="44.301946592474664" lon="10.807798390425384"><ele>647.0</ele><time>2026-04-18T12:37:22Z</time></trkpt><trkpt lat="44.30205286821573" lon="10.80775490900028"><ele>647.0</ele><time>2026-04-18T12:37:24Z</time></trkpt><trkpt lat="44.30214193150212" lon="10.807712845810476"><ele>647.0</ele><time>2026-04-18T12:37:25Z</time></trkpt><trkpt lat="44.30221507838914" lon="10.807704705180567"><ele>647.0</ele><time>2026-04-18T12:37:26Z</time></trkpt><trkpt lat="44.30228444887056" lon="10.807712530623533"><ele>647.0</ele><time>2026-04-18T12:37:27Z</time></trkpt><trkpt lat="44.30234828934723" lon="10.807715793818991"><ele>647.0</ele><time>2026-04-18T12:37:28Z</time></trkpt><trkpt lat="44.302420307398954" lon="10.807734378929162"><ele>647.0</ele><time>2026-04-18T12:37:28.999Z</time></trkpt><trkpt lat="44.3024953255408" lon="10.807765224768632"><ele>650.5</ele><time>2026-04-18T12:37:29.999Z</time></trkpt><trkpt lat="44.302565316871686" lon="10.807797382984651"><ele>654.0</ele><time>2026-04-18T12:37:30.999Z</time></trkpt><trkpt lat="44.302633235464036" lon="10.807826071114778"><ele>657.5</ele><time>2026-04-18T12:37:31.999Z</time></trkpt><trkpt lat="44.30269829934095" lon="10.807847975193656"><ele>661.0</ele><time>2026-04-18T12:37:32.999Z</time></trkpt><trkpt lat="44.30277033645049" lon="10.807877325035058"><ele>664.5</ele><time>2026-04-18T12:37:33.999Z</time></trkpt><trkpt lat="44.30289885206551" lon="10.807871399449878"><ele>668.0</ele><time>2026-04-18T12:37:35.999Z</time></trkpt><trkpt lat="44.30296922932598" lon="10.807841209065556"><ele>670.4</ele><time>2026-04-18T12:37:36.999Z</time></trkpt><trkpt lat="44.30309323094703" lon="10.80785911459349"><ele>672.8</ele><time>2026-04-18T12:37:38.999Z</time></trkpt><trkpt lat="44.30317734841476" lon="10.80789203683815"><ele>675.2</ele><time>2026-04-18T12:37:39.999Z</time></trkpt><trkpt lat="44.30326224702482" lon="10.80792450927912"><ele>677.6</ele><time>2026-04-18T12:37:40.999Z</time></trkpt><trkpt lat="44.30335209642263" lon="10.807954239242594"><ele>680.0</ele><time>2026-04-18T12:37:41.999Z</time></trkpt><trkpt lat="44.30344517771634" lon="10.80798740402873"><ele>680.0</ele><time>2026-04-18T12:37:42.999Z</time></trkpt><trkpt lat="44.303528690537696" lon="10.808039209139125"><ele>680.0</ele><time>2026-04-18T12:37:44Z</time></trkpt><trkpt lat="44.30361051988526" lon="10.808106760529542"><ele>680.0</ele><time>2026-04-18T12:37:45Z</time></trkpt><trkpt lat="44.303681380765035" lon="10.808161064088853"><ele>680.0</ele><time>2026-04-18T12:37:46Z</time></trkpt><trkpt lat="44.30375427406361" lon="10.80821512561849"><ele>680.0</ele><time>2026-04-18T12:37:47Z</time></trkpt><trkpt lat="44.3038271840314" lon="10.808265662371822"><ele>680.0</ele><time>2026-04-18T12:37:48Z</time></trkpt><trkpt lat="44.30390071820356" lon="10.808341629416226"><ele>680.3333333333333</ele><time>2026-04-18T12:37:49Z</time></trkpt><trkpt lat="44.30396863321429" lon="10.808435340038493"><ele>680.6666666666666</ele><time>2026-04-18T12:37:50Z</time></trkpt><trkpt lat="44.3040340536178" lon="10.808512051040827"><ele>681.0</ele><time>2026-04-18T12:37:51Z</time></trkpt><trkpt lat="44.304094113228004" lon="10.808584402673986"><ele>681.3333333333334</ele><time>2026-04-18T12:37:52Z</time></trkpt><trkpt lat="44.30416407893016" lon="10.808664096059518"><ele>681.6666666666667</ele><time>2026-04-18T12:37:53Z</time></trkpt><trkpt lat="44.304237978602195" lon="10.808678618073305"><ele>682.0</ele><time>2026-04-18T12:37:54Z</time></trkpt><trkpt lat="44.30433234107005" lon="10.808687135752018"><ele>688.2</ele><time>2026-04-18T12:37:55Z</time></trkpt><trkpt lat="44.304435830260786" lon="10.808711953369691"><ele>694.4000000000001</ele><time>2026-04-18T12:37:56Z</time></trkpt><trkpt lat="44.30453300997754" lon="10.808742710969444"><ele>700.5999999999999</ele><time>2026-04-18T12:37:57Z</time></trkpt><trkpt lat="44.30465679555613" lon="10.80878542550809"><ele>706.8</ele><time>2026-04-18T12:37:59Z</time></trkpt><trkpt lat="44.304731059001334" lon="10.808800521986905"><ele>713.0</ele><time>2026-04-18T12:38:00Z</time></trkpt><trkpt lat="44.304796222899036" lon="10.808811274243135"><ele>714.5999999999999</ele><time>2026-04-18T12:38:01Z</time></trkpt><trkpt lat="44.30490931955112" lon="10.808798119192176"><ele>716.1999999999999</ele><time>2026-04-18T12:38:02Z</time></trkpt><trkpt lat="44.30502621980594" lon="10.808816985752037"><ele>717.8</ele><time>2026-04-18T12:38:03Z</time></trkpt><trkpt lat="44.30509623363046" lon="10.808838773174859"><ele>719.4</ele><time>2026-04-18T12:38:04Z</time></trkpt><trkpt lat="44.305175889746344" lon="10.808831720035911"><ele>721.0</ele><time>2026-04-18T12:38:06Z</time></trkpt><trkpt lat="44.305280966362275" lon="10.808871320529189"><ele>721.0</ele><time>2026-04-18T12:38:08Z</time></trkpt><trkpt lat="44.305404040640724" lon="10.808932847151388"><ele>721.0</ele><time>2026-04-18T12:38:10Z</time></trkpt><trkpt lat="44.3054639499514" lon="10.80897440995456"><ele>721.0</ele><time>2026-04-18T12:38:11Z</time></trkpt><trkpt lat="44.30552649562149" lon="10.809013720934567"><ele>721.0</ele><time>2026-04-18T12:38:12Z</time></trkpt><trkpt lat="44.305587358858205" lon="10.809060078611779"><ele>721.0</ele><time>2026-04-18T12:38:13Z</time></trkpt><trkpt lat="44.30564871711374" lon="10.809116550718235"><ele>721.0</ele><time>2026-04-18T12:38:14Z</time></trkpt><trkpt lat="44.30571283688101" lon="10.809160442571578"><ele>719.5999999999999</ele><time>2026-04-18T12:38:15Z</time></trkpt><trkpt lat="44.305783387232296" lon="10.809204087026188"><ele>718.2</ele><time>2026-04-18T12:38:16Z</time></trkpt><trkpt lat="44.30585458449402" lon="10.809241334121063"><ele>716.8</ele><time>2026-04-18T12:38:17Z</time></trkpt><trkpt lat="44.305928977962964" lon="10.809283080645901"><ele>715.4000000000001</ele><time>2026-04-18T12:38:18Z</time></trkpt><trkpt lat="44.30603273637311" lon="10.809340736505776"><ele>714.0</ele><time>2026-04-18T12:38:19Z</time></trkpt><trkpt lat="44.30615535142649" lon="10.809401906098875"><ele>719.5</ele><time>2026-04-18T12:38:20Z</time></trkpt><trkpt lat="44.30624979420973" lon="10.809435285657317"><ele>725.0</ele><time>2026-04-18T12:38:21Z</time></trkpt><trkpt lat="44.30632648908834" lon="10.809460717558961"><ele>730.5</ele><time>2026-04-18T12:38:22Z</time></trkpt><trkpt lat="44.30639376618543" lon="10.809485508909717"><ele>736.0</ele><time>2026-04-18T12:38:23Z</time></trkpt><trkpt lat="44.30646152820525" lon="10.809509083083585"><ele>741.5</ele><time>2026-04-18T12:38:24Z</time></trkpt><trkpt lat="44.30653021715749" lon="10.80953783659146"><ele>747.0</ele><time>2026-04-18T12:38:25Z</time></trkpt><trkpt lat="44.30659051085807" lon="10.809571234178327"><ele>747.0</ele><time>2026-04-18T12:38:26Z</time></trkpt><trkpt lat="44.306732020907525" lon="10.809622692384371"><ele>747.0</ele><time>2026-04-18T12:38:28Z</time></trkpt><trkpt lat="44.30680234685307" lon="10.809638347810012"><ele>747.0</ele><time>2026-04-18T12:38:29Z</time></trkpt><trkpt lat="44.30687145752499" lon="10.809664678806437"><ele>747.0</ele><time>2026-04-18T12:38:30Z</time></trkpt><trkpt lat="44.306930683926026" lon="10.809700416034357"><ele>747.0</ele><time>2026-04-18T12:38:31Z</time></trkpt><trkpt lat="44.30701974501842" lon="10.809693115644682"><ele>747.0</ele><time>2026-04-18T12:38:32Z</time></trkpt><trkpt lat="44.30710092664482" lon="10.809687910127924"><ele>747.0</ele><time>2026-04-18T12:38:33Z</time></trkpt><trkpt lat="44.307197504341836" lon="10.809694175968803"><ele>747.0</ele><time>2026-04-18T12:38:34Z</time></trkpt><trkpt lat="44.30729928650769" lon="10.80972621748576"><ele>747.0</ele><time>2026-04-18T12:38:35Z</time></trkpt><trkpt lat="44.307410923439974" lon="10.809796350105952"><ele>747.0</ele><time>2026-04-18T12:38:36Z</time></trkpt><trkpt lat="44.307516456543794" lon="10.80986607972645"><ele>747.0</ele><time>2026-04-18T12:38:37Z</time></trkpt><trkpt lat="44.30764570685579" lon="10.809943478988295"><ele>745.0</ele><time>2026-04-18T12:38:38Z</time></trkpt><trkpt lat="44.3077728395148" lon="10.810028338856018"><ele>743.0</ele><time>2026-04-18T12:38:39Z</time></trkpt><trkpt lat="44.30790346095044" lon="10.810083148798421"><ele>741.0</ele><time>2026-04-18T12:38:40Z</time></trkpt><trkpt lat="44.307990106075856" lon="10.81011828874561"><ele>739.0</ele><time>2026-04-18T12:38:41Z</time></trkpt><trkpt lat="44.308086945014296" lon="10.81014661512708"><ele>741.6666666666667</ele><time>2026-04-18T12:38:42Z</time></trkpt><trkpt lat="44.30816474511599" lon="10.81017491118346"><ele>744.3333333333334</ele><time>2026-04-18T12:38:43Z</time></trkpt><trkpt lat="44.30827014141395" lon="10.810211028915134"><ele>747.0</ele><time>2026-04-18T12:38:45Z</time></trkpt><trkpt lat="44.308325874868785" lon="10.81026170030528"><ele>749.6666666666666</ele><time>2026-04-18T12:38:46Z</time></trkpt><trkpt lat="44.30838568124736" lon="10.810335211094726"><ele>752.3333333333333</ele><time>2026-04-18T12:38:47Z</time></trkpt><trkpt lat="44.30845570797459" lon="10.81045053782358"><ele>755.0</ele><time>2026-04-18T12:38:49Z</time></trkpt><trkpt lat="44.30845843492477" lon="10.810567262082587"><ele>755.0</ele><time>2026-04-18T12:38:51Z</time></trkpt><trkpt lat="44.30843260916288" lon="10.810717780818214"><ele>755.0</ele><time>2026-04-18T12:38:53Z</time></trkpt><trkpt lat="44.308390570445006" lon="10.810846975942912"><ele>755.0</ele><time>2026-04-18T12:38:55Z</time></trkpt><trkpt lat="44.30836678293777" lon="10.810933386441334"><ele>755.0</ele><time>2026-04-18T12:38:57Z</time></trkpt><trkpt lat="44.308431328147435" lon="10.811086144657269"><ele>755.0</ele><time>2026-04-18T12:39:00Z</time></trkpt><trkpt lat="44.30847726234845" lon="10.81114838745165"><ele>755.6</ele><time>2026-04-18T12:39:01Z</time></trkpt><trkpt lat="44.30852841331028" lon="10.811210216008433"><ele>756.2</ele><time>2026-04-18T12:39:02Z</time></trkpt><trkpt lat="44.308576091087524" lon="10.8113068062012"><ele>756.8</ele><time>2026-04-18T12:39:04Z</time></trkpt><trkpt lat="44.30862089480735" lon="10.81142463407427"><ele>757.4</ele><time>2026-04-18T12:39:07Z</time></trkpt><trkpt lat="44.30877304500489" lon="10.811528041823605"><ele>758.0</ele><time>2026-04-18T12:39:24Z</time></trkpt><trkpt lat="44.30885940452102" lon="10.811570046581174"><ele>757.25</ele><time>2026-04-18T12:39:25Z</time></trkpt><trkpt lat="44.30897254712666" lon="10.811636055711862"><ele>756.5</ele><time>2026-04-18T12:39:26Z</time></trkpt><trkpt lat="44.309107492121036" lon="10.811740416796184"><ele>755.75</ele><time>2026-04-18T12:39:27Z</time></trkpt><trkpt lat="44.30925551357217" lon="10.81186145269372"><ele>755.0</ele><time>2026-04-18T12:39:28Z</time></trkpt><trkpt lat="44.30940059876675" lon="10.811969509180194"><ele>760.25</ele><time>2026-04-18T12:39:29Z</time></trkpt><trkpt lat="44.3095328330484" lon="10.812060726076593"><ele>765.5</ele><time>2026-04-18T12:39:30Z</time></trkpt><trkpt lat="44.309669786688275" lon="10.812133650105755"><ele>770.75</ele><time>2026-04-18T12:39:31Z</time></trkpt><trkpt lat="44.30979469839578" lon="10.812158867387605"><ele>776.0</ele><time>2026-04-18T12:39:32Z</time></trkpt><trkpt lat="44.309923296832864" lon="10.81214902601556"><ele>776.4</ele><time>2026-04-18T12:39:33Z</time></trkpt><trkpt lat="44.310031956812004" lon="10.812111487198688"><ele>776.8</ele><time>2026-04-18T12:39:34Z</time></trkpt><trkpt lat="44.31013459936122" lon="10.812054427152791"><ele>777.1999999999999</ele><time>2026-04-18T12:39:35Z</time></trkpt><trkpt lat="44.31024467152572" lon="10.811988980698471"><ele>777.5999999999999</ele><time>2026-04-18T12:39:36Z</time></trkpt><trkpt lat="44.31033555227456" lon="10.811922598670245"><ele>778.0</ele><time>2026-04-18T12:39:36.999Z</time></trkpt><trkpt lat="44.3104208623239" lon="10.811837017480318"><ele>774.2</ele><time>2026-04-18T12:39:37.999Z</time></trkpt><trkpt lat="44.310498934353205" lon="10.81175956280349"><ele>770.4</ele><time>2026-04-18T12:39:38.999Z</time></trkpt><trkpt lat="44.31056724227809" lon="10.811712404178671"><ele>766.6</ele><time>2026-04-18T12:39:39.999Z</time></trkpt><trkpt lat="44.31065354145951" lon="10.811665332762365"><ele>762.8000000000001</ele><time>2026-04-18T12:39:41.999Z</time></trkpt><trkpt lat="44.310724305635965" lon="10.811624401838534"><ele>759.0</ele><time>2026-04-18T12:39:43.999Z</time></trkpt><trkpt lat="44.31059476102471" lon="10.811588017434241"><ele>759.0</ele><time>2026-04-18T12:39:48.999Z</time></trkpt><trkpt lat="44.31053572356436" lon="10.811679057686176"><ele>759.0</ele><time>2026-04-18T12:39:51Z</time></trkpt><trkpt lat="44.31055243422692" lon="10.811764419826877"><ele>759.0</ele><time>2026-04-18T12:39:53Z</time></trkpt><trkpt lat="44.31061685753336" lon="10.811759854602567"><ele>759.0</ele><time>2026-04-18T12:39:55Z</time></trkpt><trkpt lat="44.31073391490814" lon="10.811710762109023"><ele>759.0</ele><time>2026-04-18T12:39:57Z</time></trkpt><trkpt lat="44.31082409857974" lon="10.811716226081074"><ele>759.0</ele><time>2026-04-18T12:39:58Z</time></trkpt><trkpt lat="44.31093208305927" lon="10.811733880236396"><ele>759.0</ele><time>2026-04-18T12:39:59Z</time></trkpt><trkpt lat="44.31102971643815" lon="10.811751218661211"><ele>759.0</ele><time>2026-04-18T12:40:00Z</time></trkpt><trkpt lat="44.31109527505163" lon="10.811748242713508"><ele>759.0</ele><time>2026-04-18T12:40:01Z</time></trkpt><trkpt lat="44.311162751061765" lon="10.811782967187343"><ele>759.0</ele><time>2026-04-18T12:40:02Z</time></trkpt><trkpt lat="44.31124146742555" lon="10.811834627947169"><ele>759.0</ele><time>2026-04-18T12:40:03Z</time></trkpt><trkpt lat="44.31132542791302" lon="10.81190735042645"><ele>759.0</ele><time>2026-04-18T12:40:04Z</time></trkpt><trkpt lat="44.31138937770346" lon="10.811971672820809"><ele>762.6</ele><time>2026-04-18T12:40:05Z</time></trkpt><trkpt lat="44.31148117249396" lon="10.812064002337715"><ele>766.2</ele><time>2026-04-18T12:40:06Z</time></trkpt><trkpt lat="44.311570426865984" lon="10.812146792902634"><ele>769.8000000000001</ele><time>2026-04-18T12:40:07Z</time></trkpt><trkpt lat="44.31165688182796" lon="10.812212184032207"><ele>773.4000000000001</ele><time>2026-04-18T12:40:07.999Z</time></trkpt><trkpt lat="44.311767360728815" lon="10.812275249820443"><ele>777.0</ele><time>2026-04-18T12:40:09.999Z</time></trkpt><trkpt lat="44.31186619712371" lon="10.812346483986472"><ele>796.0</ele><time>2026-04-18T12:40:12.998Z</time></trkpt><trkpt lat="44.31241810356022" lon="10.813239552035558"><ele>796.0</ele><time>2026-04-18T12:40:37.996Z</time></trkpt><trkpt lat="44.312468787699544" lon="10.813334474118582"><ele>796.0</ele><time>2026-04-18T12:40:39.996Z</time></trkpt><trkpt lat="44.312535916056284" lon="10.81339244956484"><ele>796.0</ele><time>2026-04-18T12:40:48.996Z</time></trkpt><trkpt lat="44.31259770026714" lon="10.813442017729617"><ele>796.0</ele><time>2026-04-18T12:40:50.996Z</time></trkpt><trkpt lat="44.31269978213434" lon="10.813535452589822"><ele>796.0</ele><time>2026-04-18T12:40:52.996Z</time></trkpt><trkpt lat="44.312784921042" lon="10.81359240000125"><ele>801.0</ele><time>2026-04-18T12:40:54.995Z</time></trkpt><trkpt lat="44.31287909815425" lon="10.81367825432677"><ele>806.0</ele><time>2026-04-18T12:40:56.995Z</time></trkpt><trkpt lat="44.31297801110661" lon="10.813732374778686"><ele>811.0</ele><time>2026-04-18T12:40:58.995Z</time></trkpt><trkpt lat="44.31308088771525" lon="10.81380072819899"><ele>816.0</ele><time>2026-04-18T12:41:00.995Z</time></trkpt><trkpt lat="44.313188404874666" lon="10.813901095995915"><ele>816.0</ele><time>2026-04-18T12:41:02.995Z</time></trkpt><trkpt lat="44.3132642783933" lon="10.813996740150293"><ele>816.0</ele><time>2026-04-18T12:41:03.995Z</time></trkpt><trkpt lat="44.31333375586574" lon="10.814073258446616"><ele>816.0</ele><time>2026-04-18T12:41:04.995Z</time></trkpt><trkpt lat="44.313412431460456" lon="10.81417065717143"><ele>816.0</ele><time>2026-04-18T12:41:06.995Z</time></trkpt><trkpt lat="44.313491670843824" lon="10.814245320577859"><ele>816.0</ele><time>2026-04-18T12:41:08.995Z</time></trkpt><trkpt lat="44.313584317447734" lon="10.814280155970232"><ele>820.8333333333334</ele><time>2026-04-18T12:41:09.995Z</time></trkpt><trkpt lat="44.313635995659006" lon="10.814347063739758"><ele>825.6666666666667</ele><time>2026-04-18T12:41:10.995Z</time></trkpt><trkpt lat="44.313701711291294" lon="10.814418279911322"><ele>830.5</ele><time>2026-04-18T12:41:12.995Z</time></trkpt><trkpt lat="44.31373482312554" lon="10.814531682334279"><ele>835.3333333333334</ele><time>2026-04-18T12:41:15.995Z</time></trkpt><trkpt lat="44.3137821609364" lon="10.814653067854358"><ele>840.1666666666667</ele><time>2026-04-18T12:41:17.995Z</time></trkpt><trkpt lat="44.3138249226201" lon="10.814722199992191"><ele>845.0</ele><time>2026-04-18T12:41:19.995Z</time></trkpt><trkpt lat="44.313885451013284" lon="10.814772375674297"><ele>843.0000000000001</ele><time>2026-04-18T12:41:21.995Z</time></trkpt><trkpt lat="44.31396316460766" lon="10.814842717756875"><ele>841.0</ele><time>2026-04-18T12:41:23.995Z</time></trkpt><trkpt lat="44.314052153807474" lon="10.814923344230518"><ele>839.0</ele><time>2026-04-18T12:41:25.995Z</time></trkpt><trkpt lat="44.31411213401309" lon="10.814989393559655"><ele>837.0</ele><time>2026-04-18T12:41:26.995Z</time></trkpt><trkpt lat="44.31417016673339" lon="10.815028745105941"><ele>835.0000000000001</ele><time>2026-04-18T12:41:27.995Z</time></trkpt><trkpt lat="44.314246018321676" lon="10.815059209145538"><ele>833.0</ele><time>2026-04-18T12:41:29.995Z</time></trkpt><trkpt lat="44.314309038840726" lon="10.815109245616469"><ele>833.0000000000001</ele><time>2026-04-18T12:42:00.996Z</time></trkpt><trkpt lat="44.31442210370352" lon="10.815134580917713"><ele>833.0</ele><time>2026-04-18T12:42:02.997Z</time></trkpt><trkpt lat="44.31449077174405" lon="10.815125638925435"><ele>833.0</ele><time>2026-04-18T12:42:03.997Z</time></trkpt><trkpt lat="44.31456386818492" lon="10.815136628275306"><ele>833.0</ele><time>2026-04-18T12:42:04.997Z</time></trkpt><trkpt lat="44.314647349860486" lon="10.815101323925171"><ele>833.0000000000001</ele><time>2026-04-18T12:42:05.998Z</time></trkpt><trkpt lat="44.31472404221682" lon="10.815006537432259"><ele>833.0</ele><time>2026-04-18T12:42:06.998Z</time></trkpt><trkpt lat="44.314805394602786" lon="10.814960032333008"><ele>832.0000000000001</ele><time>2026-04-18T12:42:07.998Z</time></trkpt><trkpt lat="44.3148845313591" lon="10.814917183125678"><ele>831.0</ele><time>2026-04-18T12:42:08.998Z</time></trkpt><trkpt lat="44.31496975353606" lon="10.814875169044882"><ele>830.0</ele><time>2026-04-18T12:42:09.998Z</time></trkpt><trkpt lat="44.31505533710573" lon="10.81484960159307"><ele>829.0</ele><time>2026-04-18T12:42:10.998Z</time></trkpt><trkpt lat="44.3151266074375" lon="10.814837625480244"><ele>828.0000000000001</ele><time>2026-04-18T12:42:11.998Z</time></trkpt><trkpt lat="44.31519785977618" lon="10.814803573944046"><ele>827.0</ele><time>2026-04-18T12:42:12.999Z</time></trkpt><trkpt lat="44.31526172465479" lon="10.814792944883786"><ele>827.0</ele><time>2026-04-18T12:42:13.999Z</time></trkpt><trkpt lat="44.31532325506224" lon="10.814768563831482"><ele>827.0</ele><time>2026-04-18T12:42:14.999Z</time></trkpt><trkpt lat="44.31540886183988" lon="10.814793731387136"><ele>827.0</ele><time>2026-04-18T12:42:16.999Z</time></trkpt><trkpt lat="44.31550197073066" lon="10.814913123125361"><ele>827.0</ele><time>2026-04-18T12:42:18.999Z</time></trkpt><trkpt lat="44.31556441925376" lon="10.814981103476972"><ele>827.0</ele><time>2026-04-18T12:42:19.999Z</time></trkpt><trkpt lat="44.31564674481135" lon="10.81506996171402"><ele>830.6</ele><time>2026-04-18T12:42:20.999Z</time></trkpt><trkpt lat="44.31573131622999" lon="10.815169204133365"><ele>834.2</ele><time>2026-04-18T12:42:21.999Z</time></trkpt><trkpt lat="44.31581458610753" lon="10.81526868002568"><ele>837.8</ele><time>2026-04-18T12:42:22.999Z</time></trkpt><trkpt lat="44.31590030037496" lon="10.815346477317497"><ele>841.4</ele><time>2026-04-18T12:42:23.999Z</time></trkpt><trkpt lat="44.3159923637341" lon="10.815385026335063"><ele>845.0</ele><time>2026-04-18T12:42:24.999Z</time></trkpt><trkpt lat="44.31610809664207" lon="10.815410179370415"><ele>845.0</ele><time>2026-04-18T12:42:25.999Z</time></trkpt><trkpt lat="44.31623101565714" lon="10.815425702392018"><ele>845.0</ele><time>2026-04-18T12:42:26.999Z</time></trkpt><trkpt lat="44.316367725234656" lon="10.815424556874206"><ele>845.0</ele><time>2026-04-18T12:42:27.999Z</time></trkpt><trkpt lat="44.31650756696401" lon="10.815401176570067"><ele>845.0</ele><time>2026-04-18T12:42:29Z</time></trkpt><trkpt lat="44.31664689697795" lon="10.815370107600755"><ele>844.6</ele><time>2026-04-18T12:42:30Z</time></trkpt><trkpt lat="44.31675910285933" lon="10.815336812502906"><ele>844.2</ele><time>2026-04-18T12:42:31Z</time></trkpt><trkpt lat="44.31685902289553" lon="10.815322918146368"><ele>843.8</ele><time>2026-04-18T12:42:32Z</time></trkpt><trkpt lat="44.316965320639035" lon="10.815302139933786"><ele>843.4</ele><time>2026-04-18T12:42:33Z</time></trkpt><trkpt lat="44.317074843830106" lon="10.815296348597546"><ele>843.0</ele><time>2026-04-18T12:42:34Z</time></trkpt><trkpt lat="44.31716505118193" lon="10.8152929695141"><ele>841.8</ele><time>2026-04-18T12:42:35Z</time></trkpt><trkpt lat="44.31725976345308" lon="10.815292521167061"><ele>840.5999999999999</ele><time>2026-04-18T12:42:36Z</time></trkpt><trkpt lat="44.31734423233222" lon="10.815304062708046"><ele>839.4000000000001</ele><time>2026-04-18T12:42:37Z</time></trkpt><trkpt lat="44.31742370570143" lon="10.815321206227262"><ele>838.2</ele><time>2026-04-18T12:42:38Z</time></trkpt><trkpt lat="44.31752241962945" lon="10.815354523463892"><ele>837.0</ele><time>2026-04-18T12:42:39Z</time></trkpt><trkpt lat="44.317627475039686" lon="10.815409195428526"><ele>837.0</ele><time>2026-04-18T12:42:40Z</time></trkpt><trkpt lat="44.317740236409385" lon="10.815467803347584"><ele>837.0</ele><time>2026-04-18T12:42:41Z</time></trkpt><trkpt lat="44.31785191336404" lon="10.815525305239511"><ele>837.0</ele><time>2026-04-18T12:42:42Z</time></trkpt><trkpt lat="44.317964302993" lon="10.81556534546987"><ele>837.0</ele><time>2026-04-18T12:42:43Z</time></trkpt><trkpt lat="44.318084895116435" lon="10.815616522084921"><ele>835.25</ele><time>2026-04-18T12:42:44Z</time></trkpt><trkpt lat="44.318192523142315" lon="10.815674963320502"><ele>833.5</ele><time>2026-04-18T12:42:45Z</time></trkpt><trkpt lat="44.31830471013301" lon="10.81572998688855"><ele>831.75</ele><time>2026-04-18T12:42:46Z</time></trkpt><trkpt lat="44.318410965570365" lon="10.815772567098268"><ele>830.0</ele><time>2026-04-18T12:42:47Z</time></trkpt><trkpt lat="44.31852636790016" lon="10.815794164115083"><ele>830.0</ele><time>2026-04-18T12:42:48Z</time></trkpt><trkpt lat="44.31862573831747" lon="10.815801880064315"><ele>830.0</ele><time>2026-04-18T12:42:49Z</time></trkpt><trkpt lat="44.31870932364228" lon="10.815795625273543"><ele>830.0</ele><time>2026-04-18T12:42:50Z</time></trkpt><trkpt lat="44.31878629683906" lon="10.815805874281374"><ele>830.0</ele><time>2026-04-18T12:42:51Z</time></trkpt><trkpt lat="44.318877950756786" lon="10.815823715456572"><ele>830.0</ele><time>2026-04-18T12:42:52Z</time></trkpt><trkpt lat="44.31899848837038" lon="10.815870012256841"><ele>829.4</ele><time>2026-04-18T12:42:53Z</time></trkpt><trkpt lat="44.319098253534754" lon="10.815921690326098"><ele>828.8</ele><time>2026-04-18T12:42:54Z</time></trkpt><trkpt lat="44.319186419659715" lon="10.815977870065103"><ele>828.2</ele><time>2026-04-18T12:42:55Z</time></trkpt><trkpt lat="44.3192791645979" lon="10.816015520349177"><ele>827.6</ele><time>2026-04-18T12:42:56Z</time></trkpt><trkpt lat="44.31936081058174" lon="10.816058814001684"><ele>827.0</ele><time>2026-04-18T12:42:57Z</time></trkpt><trkpt lat="44.31944429658331" lon="10.81611127244909"><ele>829.0</ele><time>2026-04-18T12:42:58Z</time></trkpt><trkpt lat="44.31953153476011" lon="10.81617381103129"><ele>831.0</ele><time>2026-04-18T12:42:59Z</time></trkpt><trkpt lat="44.31959222463234" lon="10.816235751732377"><ele>833.0</ele><time>2026-04-18T12:43:00Z</time></trkpt><trkpt lat="44.31966942045102" lon="10.81628873874821"><ele>835.0</ele><time>2026-04-18T12:43:01Z</time></trkpt><trkpt lat="44.319758338364586" lon="10.81634373567606"><ele>837.0</ele><time>2026-04-18T12:43:02Z</time></trkpt><trkpt lat="44.319855074447055" lon="10.816414163915026"><ele>837.0</ele><time>2026-04-18T12:43:03Z</time></trkpt><trkpt lat="44.31993460597412" lon="10.816485007170941"><ele>837.0</ele><time>2026-04-18T12:43:04Z</time></trkpt><trkpt lat="44.32001233853281" lon="10.816544514514982"><ele>837.0</ele><time>2026-04-18T12:43:05Z</time></trkpt><trkpt lat="44.320109784839694" lon="10.81662357762733"><ele>837.0</ele><time>2026-04-18T12:43:07Z</time></trkpt><trkpt lat="44.32016870975819" lon="10.81667373031494"><ele>837.0</ele><time>2026-04-18T12:43:09Z</time></trkpt><trkpt lat="44.320242888716244" lon="10.816713473489195"><ele>837.0</ele><time>2026-04-18T12:43:12Z</time></trkpt><trkpt lat="44.32034018458629" lon="10.816780045690194"><ele>837.0</ele><time>2026-04-18T12:43:14Z</time></trkpt><trkpt lat="44.320407676754314" lon="10.816830438094383"><ele>837.0</ele><time>2026-04-18T12:43:16Z</time></trkpt><trkpt lat="44.32032909126227" lon="10.816749518479218"><ele>837.0</ele><time>2026-04-18T12:43:23Z</time></trkpt><trkpt lat="44.3203191396208" lon="10.816659245691467"><ele>837.0</ele><time>2026-04-18T12:43:24Z</time></trkpt><trkpt lat="44.320254695025646" lon="10.816625237459101"><ele>837.0</ele><time>2026-04-18T12:43:26Z</time></trkpt><trkpt lat="44.32020068770243" lon="10.816551794729197"><ele>837.0</ele><time>2026-04-18T12:43:33Z</time></trkpt><trkpt lat="44.320162830087675" lon="10.816473421122835"><ele>837.0</ele><time>2026-04-18T12:43:39.999Z</time></trkpt><trkpt lat="44.32012703034182" lon="10.816382513853556"><ele>837.0</ele><time>2026-04-18T12:43:44.999Z</time></trkpt><trkpt lat="44.32013101090274" lon="10.8162637862234"><ele>837.0</ele><time>2026-04-18T12:43:48.999Z</time></trkpt><trkpt lat="44.32006723889261" lon="10.81616964739556"><ele>837.0</ele><time>2026-04-18T12:43:52.999Z</time></trkpt><trkpt lat="44.31992794531491" lon="10.816384488914391"><ele>837.0</ele><time>2026-04-18T12:43:53.999Z</time></trkpt><trkpt lat="44.31987244752753" lon="10.816339762971197"><ele>837.0</ele><time>2026-04-18T12:43:55.999Z</time></trkpt><trkpt lat="44.31991489649047" lon="10.815993001049996"><ele>837.0</ele><time>2026-04-18T12:43:57.999Z</time></trkpt><trkpt lat="44.31984062112494" lon="10.815921125284117"><ele>837.0</ele><time>2026-04-18T12:43:59.999Z</time></trkpt><trkpt lat="44.319777893662085" lon="10.815827225439447"><ele>835.0</ele><time>2026-04-18T12:44:02Z</time></trkpt><trkpt lat="44.319716989213326" lon="10.815727914689917"><ele>833.0</ele><time>2026-04-18T12:44:04Z</time></trkpt><trkpt lat="44.319643443420645" lon="10.815617043958074"><ele>831.0</ele><time>2026-04-18T12:44:06Z</time></trkpt><trkpt lat="44.3196061147666" lon="10.815532342842102"><ele>829.0</ele><time>2026-04-18T12:44:07Z</time></trkpt><trkpt lat="44.31957554840234" lon="10.815443192828836"><ele>827.0</ele><time>2026-04-18T12:44:08Z</time></trkpt><trkpt lat="44.31952915747882" lon="10.815297712423432"><ele>827.0</ele><time>2026-04-18T12:44:10Z</time></trkpt><trkpt lat="44.31947644846539" lon="10.815201636617038"><ele>827.0</ele><time>2026-04-18T12:44:13Z</time></trkpt><trkpt lat="44.31941867832538" lon="10.81512045150955"><ele>827.0</ele><time>2026-04-18T12:44:15Z</time></trkpt><trkpt lat="44.31939062060411" lon="10.81502294107883"><ele>827.0</ele><time>2026-04-18T12:44:17Z</time></trkpt><trkpt lat="44.31933347617672" lon="10.814812439835329"><ele>827.0</ele><time>2026-04-18T12:44:19Z</time></trkpt><trkpt lat="44.319300839266894" lon="10.814699895300972"><ele>823.8333333333334</ele><time>2026-04-18T12:44:20Z</time></trkpt><trkpt lat="44.319258029426024" lon="10.814618012155117"><ele>820.6666666666667</ele><time>2026-04-18T12:44:23Z</time></trkpt><trkpt lat="44.31922185717881" lon="10.814515913118079"><ele>817.5</ele><time>2026-04-18T12:44:33Z</time></trkpt><trkpt lat="44.31915680941244" lon="10.8145570137896"><ele>814.3333333333333</ele><time>2026-04-18T12:44:38Z</time></trkpt><trkpt lat="44.319256721388065" lon="10.814594056010451"><ele>811.1666666666666</ele><time>2026-04-18T12:44:41Z</time></trkpt><trkpt lat="44.31932824392595" lon="10.814676860049085"><ele>808.0</ele><time>2026-04-18T12:44:43Z</time></trkpt><trkpt lat="44.319274031561406" lon="10.814537723488288"><ele>808.0</ele><time>2026-04-18T12:44:46Z</time></trkpt><trkpt lat="44.319344292261576" lon="10.81493352033453"><ele>808.0</ele><time>2026-04-18T12:44:47Z</time></trkpt><trkpt lat="44.31937700527474" lon="10.815039144725452"><ele>808.0</ele><time>2026-04-18T12:44:49Z</time></trkpt><trkpt lat="44.31943410263451" lon="10.815121340075152"><ele>807.9999999999999</ele><time>2026-04-18T12:44:51Z</time></trkpt><trkpt lat="44.319505298947554" lon="10.815206366304498"><ele>808.0</ele><time>2026-04-18T12:44:54Z</time></trkpt><trkpt lat="44.31946012540189" lon="10.815116747311736"><ele>808.0</ele><time>2026-04-18T12:45:03Z</time></trkpt><trkpt lat="44.31942410447097" lon="10.815030783294908"><ele>808.0</ele><time>2026-04-18T12:45:04Z</time></trkpt><trkpt lat="44.31938440848336" lon="10.814943824331122"><ele>807.9999999999999</ele><time>2026-04-18T12:45:05Z</time></trkpt><trkpt lat="44.31934558034473" lon="10.814854996881051"><ele>808.0</ele><time>2026-04-18T12:45:06Z</time></trkpt><trkpt lat="44.31943613480052" lon="10.81495249083871"><ele>808.0</ele><time>2026-04-18T12:45:07Z</time></trkpt><trkpt lat="44.31942996747654" lon="10.81484805823699"><ele>808.0</ele><time>2026-04-18T12:45:13Z</time></trkpt><trkpt lat="44.31927062768531" lon="10.81475079210697"><ele>808.0</ele><time>2026-04-18T12:45:14Z</time></trkpt><trkpt lat="44.31942817184731" lon="10.814694257699896"><ele>808.0</ele><time>2026-04-18T12:45:17Z</time></trkpt><trkpt lat="44.319435363008715" lon="10.814569387741269"><ele>807.9999999999999</ele><time>2026-04-18T12:45:19Z</time></trkpt><trkpt lat="44.31943729454602" lon="10.814470019503789"><ele>808.0</ele><time>2026-04-18T12:45:21Z</time></trkpt><trkpt lat="44.31949809203713" lon="10.814409047256147"><ele>808.0</ele><time>2026-04-18T12:45:24Z</time></trkpt><trkpt lat="44.31958099535101" lon="10.81443707105492"><ele>808.0</ele><time>2026-04-18T12:45:26Z</time></trkpt><trkpt lat="44.31965181116251" lon="10.814413732698412"><ele>807.9999999999999</ele><time>2026-04-18T12:45:28Z</time></trkpt><trkpt lat="44.31971780127537" lon="10.814328083625188"><ele>808.0</ele><time>2026-04-18T12:45:30Z</time></trkpt><trkpt lat="44.31977977385235" lon="10.814265812551257"><ele>802.1666666666666</ele><time>2026-04-18T12:45:32Z</time></trkpt><trkpt lat="44.319851692423285" lon="10.814166267533006"><ele>796.3333333333333</ele><time>2026-04-18T12:45:34Z</time></trkpt><trkpt lat="44.31989529748703" lon="10.814100858864352"><ele>790.5</ele><time>2026-04-18T12:45:35.999Z</time></trkpt><trkpt lat="44.319980260954345" lon="10.81404486977594"><ele>784.6666666666667</ele><time>2026-04-18T12:45:37.999Z</time></trkpt><trkpt lat="44.320055673473945" lon="10.814024939982254"><ele>778.8333333333334</ele><time>2026-04-18T12:45:39.999Z</time></trkpt><trkpt lat="44.32013402825011" lon="10.814076770538025"><ele>773.0</ele><time>2026-04-18T12:45:41.999Z</time></trkpt><trkpt lat="44.320142617212774" lon="10.814198774049467"><ele>773.0000000000001</ele><time>2026-04-18T12:45:44.999Z</time></trkpt><trkpt lat="44.32013297182922" lon="10.81431048710987"><ele>773.0</ele><time>2026-04-18T12:45:47.999Z</time></trkpt><trkpt lat="44.320135866727966" lon="10.814409691076117"><ele>773.0</ele><time>2026-04-18T12:45:53.999Z</time></trkpt><trkpt lat="44.32021908267857" lon="10.814500585132631"><ele>773.0</ele><time>2026-04-18T12:45:56.999Z</time></trkpt><trkpt lat="44.32032162852096" lon="10.81452547746351"><ele>773.0000000000001</ele><time>2026-04-18T12:45:59.999Z</time></trkpt><trkpt lat="44.32039369189402" lon="10.814550909821453"><ele>773.0</ele><time>2026-04-18T12:46:01.999Z</time></trkpt><trkpt lat="44.32046126453244" lon="10.814606504020977"><ele>772.3333333333334</ele><time>2026-04-18T12:46:04.999Z</time></trkpt><trkpt lat="44.32052620231139" lon="10.81463834344124"><ele>771.6666666666667</ele><time>2026-04-18T12:46:10Z</time></trkpt><trkpt lat="44.32060335406374" lon="10.814642607091859"><ele>771.0</ele><time>2026-04-18T12:46:15Z</time></trkpt><trkpt lat="44.320682758863974" lon="10.814619019824397"><ele>770.3333333333333</ele><time>2026-04-18T12:46:18Z</time></trkpt><trkpt lat="44.320761997306164" lon="10.814580602706346"><ele>769.6666666666666</ele><time>2026-04-18T12:46:20Z</time></trkpt><trkpt lat="44.320829214288985" lon="10.814540712707199"><ele>769.0</ele><time>2026-04-18T12:46:23Z</time></trkpt><trkpt lat="44.32089184181285" lon="10.814501888215446"><ele>768.9999999999999</ele><time>2026-04-18T12:46:25Z</time></trkpt><trkpt lat="44.320970383768014" lon="10.814462003462259"><ele>769.0</ele><time>2026-04-18T12:46:27Z</time></trkpt><trkpt lat="44.32104675357381" lon="10.8144079476482"><ele>769.0</ele><time>2026-04-18T12:46:29Z</time></trkpt><trkpt lat="44.32108928638686" lon="10.81432704064951"><ele>769.0</ele><time>2026-04-18T12:46:31Z</time></trkpt><trkpt lat="44.32111554898958" lon="10.814224076363868"><ele>768.9999999999999</ele><time>2026-04-18T12:46:33Z</time></trkpt><trkpt lat="44.32115981062009" lon="10.814145950272101"><ele>769.0</ele><time>2026-04-18T12:46:35Z</time></trkpt><trkpt lat="44.321221689241625" lon="10.814081665663354"><ele>767.4999999999999</ele><time>2026-04-18T12:46:37Z</time></trkpt><trkpt lat="44.32129312816919" lon="10.813988826115368"><ele>766.0</ele><time>2026-04-18T12:46:40Z</time></trkpt><trkpt lat="44.3213573725217" lon="10.813907713082697"><ele>764.5</ele><time>2026-04-18T12:46:42Z</time></trkpt><trkpt lat="44.321383967494015" lon="10.813794969905363"><ele>763.0</ele><time>2026-04-18T12:46:44Z</time></trkpt><trkpt lat="44.321461588913195" lon="10.813687109122833"><ele>761.5</ele><time>2026-04-18T12:46:46Z</time></trkpt><trkpt lat="44.32152561950465" lon="10.81364463917493"><ele>760.0</ele><time>2026-04-18T12:46:47Z</time></trkpt><trkpt lat="44.321608259461456" lon="10.813565831945727"><ele>755.8</ele><time>2026-04-18T12:46:49Z</time></trkpt><trkpt lat="44.32166863792108" lon="10.813467819166123"><ele>751.6</ele><time>2026-04-18T12:46:51Z</time></trkpt><trkpt lat="44.32175172256523" lon="10.813384972453319"><ele>747.4000000000001</ele><time>2026-04-18T12:46:53Z</time></trkpt><trkpt lat="44.321838134539185" lon="10.81331473287184"><ele>743.2</ele><time>2026-04-18T12:46:55Z</time></trkpt><trkpt lat="44.32189251757871" lon="10.813266417892725"><ele>739.0</ele><time>2026-04-18T12:46:56Z</time></trkpt><trkpt lat="44.32198788148069" lon="10.81318803954943"><ele>739.0</ele><time>2026-04-18T12:46:58Z</time></trkpt><trkpt lat="44.322075864218526" lon="10.813143491622194"><ele>739.0</ele><time>2026-04-18T12:47:00Z</time></trkpt><trkpt lat="44.32213867626596" lon="10.813128557197023"><ele>739.0</ele><time>2026-04-18T12:47:01Z</time></trkpt><trkpt lat="44.32222474391476" lon="10.81305101992465"><ele>739.0</ele><time>2026-04-18T12:47:03Z</time></trkpt><trkpt lat="44.3223075488425" lon="10.812960215216968"><ele>739.0</ele><time>2026-04-18T12:47:05Z</time></trkpt><trkpt lat="44.32239456719408" lon="10.812899706408059"><ele>738.1666666666667</ele><time>2026-04-18T12:47:07Z</time></trkpt><trkpt lat="44.32245958801534" lon="10.812832216921608"><ele>737.3333333333334</ele><time>2026-04-18T12:47:09Z</time></trkpt><trkpt lat="44.32251987268346" lon="10.812786645174864"><ele>736.5</ele><time>2026-04-18T12:47:11Z</time></trkpt><trkpt lat="44.32260645443646" lon="10.812734633504745"><ele>735.6666666666666</ele><time>2026-04-18T12:47:13Z</time></trkpt><trkpt lat="44.3226716875584" lon="10.812699682352967"><ele>734.8333333333333</ele><time>2026-04-18T12:47:15Z</time></trkpt><trkpt lat="44.32274671414088" lon="10.812546969867197"><ele>734.0</ele><time>2026-04-18T12:47:17Z</time></trkpt><trkpt lat="44.322802481154824" lon="10.812468586329313"><ele>731.0</ele><time>2026-04-18T12:47:19Z</time></trkpt><trkpt lat="44.32288921660012" lon="10.812458592746406"><ele>728.0</ele><time>2026-04-18T12:47:49Z</time></trkpt><trkpt lat="44.32299898610595" lon="10.812407590807405"><ele>725.0</ele><time>2026-04-18T12:47:51.999Z</time></trkpt><trkpt lat="44.32310623322406" lon="10.81235921280737"><ele>722.0</ele><time>2026-04-18T12:47:53.999Z</time></trkpt><trkpt lat="44.32314917237706" lon="10.812279728943336"><ele>719.0</ele><time>2026-04-18T12:47:55.999Z</time></trkpt><trkpt lat="44.32311967447889" lon="10.812170369987978"><ele>719.0</ele><time>2026-04-18T12:51:18Z</time></trkpt><trkpt lat="44.323143742851784" lon="10.811955964254627"><ele>719.0</ele><time>2026-04-18T12:51:42Z</time></trkpt><trkpt lat="44.32313713738688" lon="10.811829536589663"><ele>719.0</ele><time>2026-04-18T12:51:43Z</time></trkpt><trkpt lat="44.32312687081498" lon="10.811668038255942"><ele>719.0</ele><time>2026-04-18T12:51:44Z</time></trkpt><trkpt lat="44.32311579356796" lon="10.811498501610837"><ele>717.25</ele><time>2026-04-18T12:51:45Z</time></trkpt><trkpt lat="44.32311273228578" lon="10.81133193226668"><ele>715.5</ele><time>2026-04-18T12:51:46Z</time></trkpt><trkpt lat="44.32311699802995" lon="10.811124330335208"><ele>713.75</ele><time>2026-04-18T12:51:47Z</time></trkpt><trkpt lat="44.323142994922996" lon="10.810917310937032"><ele>712.0</ele><time>2026-04-18T12:51:48Z</time></trkpt><trkpt lat="44.32316786298017" lon="10.810723198056733"><ele>711.25</ele><time>2026-04-18T12:51:49Z</time></trkpt><trkpt lat="44.323183055178774" lon="10.810540043084004"><ele>710.5</ele><time>2026-04-18T12:51:50Z</time></trkpt><trkpt lat="44.32318058408674" lon="10.8103662670581"><ele>709.75</ele><time>2026-04-18T12:51:51Z</time></trkpt><trkpt lat="44.32315883112339" lon="10.810182131784495"><ele>709.0</ele><time>2026-04-18T12:51:52Z</time></trkpt><trkpt lat="44.3231303293578" lon="10.810008544923281"><ele>708.5</ele><time>2026-04-18T12:51:53Z</time></trkpt><trkpt lat="44.323095896640694" lon="10.809841242342046"><ele>708.0</ele><time>2026-04-18T12:51:54Z</time></trkpt><trkpt lat="44.32307614549627" lon="10.809659083851082"><ele>707.5</ele><time>2026-04-18T12:51:55Z</time></trkpt><trkpt lat="44.323024723592916" lon="10.809479889659768"><ele>707.0</ele><time>2026-04-18T12:51:56Z</time></trkpt><trkpt lat="44.32301038093929" lon="10.809316235802363"><ele>707.8333333333333</ele><time>2026-04-18T12:51:57Z</time></trkpt><trkpt lat="44.32298772400436" lon="10.809188764094582"><ele>708.6666666666666</ele><time>2026-04-18T12:51:58Z</time></trkpt><trkpt lat="44.322970605117106" lon="10.809086724530346"><ele>709.5</ele><time>2026-04-18T12:51:59Z</time></trkpt><trkpt lat="44.32295333229903" lon="10.808983767189027"><ele>710.3333333333334</ele><time>2026-04-18T12:52:00Z</time></trkpt><trkpt lat="44.32293461245844" lon="10.808867371528065"><ele>711.1666666666667</ele><time>2026-04-18T12:52:02Z</time></trkpt><trkpt lat="44.32292032387812" lon="10.808776182513954"><ele>712.0</ele><time>2026-04-18T12:52:50Z</time></trkpt><trkpt lat="44.322907039475595" lon="10.808685793683045"><ele>711.9999999999999</ele><time>2026-04-18T12:52:55Z</time></trkpt><trkpt lat="44.32289401392075" lon="10.808594594658922"><ele>712.0</ele><time>2026-04-18T12:53:00Z</time></trkpt><trkpt lat="44.32288086291685" lon="10.808497880106913"><ele>712.0</ele><time>2026-04-18T12:53:05Z</time></trkpt><trkpt lat="44.32287056524097" lon="10.80839572556149"><ele>712.0</ele><time>2026-04-18T12:53:10Z</time></trkpt><trkpt lat="44.32286474724141" lon="10.808297392535309"><ele>712.0</ele><time>2026-04-18T12:53:15Z</time></trkpt><trkpt lat="44.32286523467805" lon="10.808196304524479"><ele>711.9999999999999</ele><time>2026-04-18T12:53:21Z</time></trkpt><trkpt lat="44.32286379145248" lon="10.808102174965292"><ele>712.0</ele><time>2026-04-18T12:53:26Z</time></trkpt><trkpt lat="44.322861585838986" lon="10.808007575586577"><ele>713.3333333333334</ele><time>2026-04-18T12:53:31Z</time></trkpt><trkpt lat="44.32287247030546" lon="10.807920834992455"><ele>714.6666666666667</ele><time>2026-04-18T12:53:35Z</time></trkpt><trkpt lat="44.32287569299234" lon="10.807824343372632"><ele>716.0</ele><time>2026-04-18T12:53:40Z</time></trkpt><trkpt lat="44.32287908801487" lon="10.807722691812163"><ele>717.3333333333334</ele><time>2026-04-18T12:53:45Z</time></trkpt><trkpt lat="44.32288229711889" lon="10.807626606914297"><ele>718.6666666666666</ele><time>2026-04-18T12:53:50Z</time></trkpt><trkpt lat="44.32279833772644" lon="10.807572038363539"><ele>720.0</ele><time>2026-04-18T12:53:52Z</time></trkpt><trkpt lat="44.32288627419027" lon="10.807507528018867"><ele>720.4</ele><time>2026-04-18T12:53:56Z</time></trkpt><trkpt lat="44.322889616620714" lon="10.8074074511417"><ele>720.8</ele><time>2026-04-18T12:54:01Z</time></trkpt><trkpt lat="44.32278827223066" lon="10.807369911229204"><ele>721.2</ele><time>2026-04-18T12:54:03Z</time></trkpt><trkpt lat="44.32289350765796" lon="10.807290948146568"><ele>721.6</ele><time>2026-04-18T12:54:08Z</time></trkpt><trkpt lat="44.322777548853814" lon="10.807259222392094"><ele>722.0</ele><time>2026-04-18T12:54:09Z</time></trkpt><trkpt lat="44.32276989599695" lon="10.807158573386008"><ele>722.0</ele><time>2026-04-18T12:54:14Z</time></trkpt><trkpt lat="44.32275685392842" lon="10.807065625988027"><ele>722.0</ele><time>2026-04-18T12:54:18.999Z</time></trkpt><trkpt lat="44.322425712457566" lon="10.807226015977474"><ele>722.0</ele><time>2026-04-18T12:54:21.999Z</time></trkpt><trkpt lat="44.322746408599414" lon="10.806981524740669"><ele>722.0</ele><time>2026-04-18T12:54:22.999Z</time></trkpt><trkpt lat="44.32273212860607" lon="10.806880888990332"><ele>722.0</ele><time>2026-04-18T12:54:27.999Z</time></trkpt><trkpt lat="44.32271775189381" lon="10.806774074219504"><ele>722.0</ele><time>2026-04-18T12:54:33.001Z</time></trkpt><trkpt lat="44.32269557145807" lon="10.80667721458112"><ele>722.0</ele><time>2026-04-18T12:54:38.001Z</time></trkpt><trkpt lat="44.32268279613176" lon="10.806584890980274"><ele>722.0</ele><time>2026-04-18T12:54:42.001Z</time></trkpt><trkpt lat="44.32264746914603" lon="10.806445727636062"><ele>722.0</ele><time>2026-04-18T12:54:45.001Z</time></trkpt><trkpt lat="44.322646074696195" lon="10.806319151389546"><ele>721.4000000000001</ele><time>2026-04-18T12:54:47.001Z</time></trkpt><trkpt lat="44.32259078754876" lon="10.806203182924323"><ele>720.8000000000001</ele><time>2026-04-18T12:54:49.001Z</time></trkpt><trkpt lat="44.32251385639602" lon="10.806092749701238"><ele>720.2</ele><time>2026-04-18T12:54:51.001Z</time></trkpt><trkpt lat="44.32243054643237" lon="10.80600491002193"><ele>719.6</ele><time>2026-04-18T12:54:53.001Z</time></trkpt><trkpt lat="44.3223454795024" lon="10.805946015363142"><ele>719.0</ele><time>2026-04-18T12:54:55Z</time></trkpt><trkpt lat="44.32226631861617" lon="10.805904511024664"><ele>714.2</ele><time>2026-04-18T12:54:57Z</time></trkpt><trkpt lat="44.322204621675596" lon="10.80580077755637"><ele>709.4000000000001</ele><time>2026-04-18T12:54:59Z</time></trkpt><trkpt lat="44.322127843271154" lon="10.805696761521562"><ele>704.6</ele><time>2026-04-18T12:55:01Z</time></trkpt><trkpt lat="44.322055041230385" lon="10.805638169743117"><ele>699.8</ele><time>2026-04-18T12:55:03Z</time></trkpt><trkpt lat="44.321992708613315" lon="10.805525727314848"><ele>695.0</ele><time>2026-04-18T12:55:05Z</time></trkpt><trkpt lat="44.321953448497936" lon="10.805389227485312"><ele>695.0</ele><time>2026-04-18T12:55:07Z</time></trkpt><trkpt lat="44.32190870745591" lon="10.805312298575123"><ele>695.0</ele><time>2026-04-18T12:55:09Z</time></trkpt><trkpt lat="44.32185239246572" lon="10.805217673208784"><ele>695.0</ele><time>2026-04-18T12:55:11Z</time></trkpt><trkpt lat="44.32180239888494" lon="10.80515420819037"><ele>695.0</ele><time>2026-04-18T12:55:12Z</time></trkpt><trkpt lat="44.32173457695297" lon="10.8050557574797"><ele>695.0</ele><time>2026-04-18T12:55:14Z</time></trkpt><trkpt lat="44.3216748373704" lon="10.804971179535189"><ele>695.0</ele><time>2026-04-18T12:55:16Z</time></trkpt><trkpt lat="44.32162854520245" lon="10.804862405379557"><ele>694.25</ele><time>2026-04-18T12:55:18Z</time></trkpt><trkpt lat="44.321591562090056" lon="10.80472579750191"><ele>693.5</ele><time>2026-04-18T12:55:21Z</time></trkpt><trkpt lat="44.321568938172405" lon="10.804614726175569"><ele>692.75</ele><time>2026-04-18T12:55:23Z</time></trkpt><trkpt lat="44.32155864828417" lon="10.8045265710367"><ele>692.0</ele><time>2026-04-18T12:55:24Z</time></trkpt><trkpt lat="44.3215070700361" lon="10.804257143068948"><ele>692.0</ele><time>2026-04-18T12:55:27Z</time></trkpt><trkpt lat="44.32150611728086" lon="10.804114171240286"><ele>692.0</ele><time>2026-04-18T12:55:29Z</time></trkpt><trkpt lat="44.32150732039152" lon="10.803998300456593"><ele>692.0</ele><time>2026-04-18T12:55:31Z</time></trkpt><trkpt lat="44.321504706944275" lon="10.803902012998932"><ele>692.0</ele><time>2026-04-18T12:55:33Z</time></trkpt><trkpt lat="44.32150746545889" lon="10.80380544870472"><ele>692.0</ele><time>2026-04-18T12:55:35Z</time></trkpt><trkpt lat="44.32151760891684" lon="10.803689279088122"><ele>692.0</ele><time>2026-04-18T12:55:37Z</time></trkpt><trkpt lat="44.32153910869945" lon="10.803584559715869"><ele>692.0</ele><time>2026-04-18T12:55:39Z</time></trkpt><trkpt lat="44.321589585070846" lon="10.803503881354322"><ele>692.0</ele><time>2026-04-18T12:55:41Z</time></trkpt><trkpt lat="44.32161513849814" lon="10.803365374757943"><ele>692.0</ele><time>2026-04-18T12:55:44Z</time></trkpt><trkpt lat="44.32165197927575" lon="10.803243032117562"><ele>692.0</ele><time>2026-04-18T12:55:46Z</time></trkpt><trkpt lat="44.32168830383501" lon="10.803142908079284"><ele>692.0</ele><time>2026-04-18T12:55:48Z</time></trkpt><trkpt lat="44.3216094336024" lon="10.803098739054436"><ele>692.0</ele><time>2026-04-18T12:55:51Z</time></trkpt><trkpt lat="44.32153068916317" lon="10.803188556196753"><ele>689.5</ele><time>2026-04-18T12:55:54Z</time></trkpt><trkpt lat="44.321464591427876" lon="10.803292490562852"><ele>687.0</ele><time>2026-04-18T12:55:56Z</time></trkpt><trkpt lat="44.321407582943564" lon="10.80338790319399"><ele>684.5</ele><time>2026-04-18T12:55:58Z</time></trkpt><trkpt lat="44.321362788094376" lon="10.803478536928152"><ele>682.0</ele><time>2026-04-18T12:56:01Z</time></trkpt><trkpt lat="44.32131225109535" lon="10.803581448318283"><ele>679.5</ele><time>2026-04-18T12:56:03Z</time></trkpt><trkpt lat="44.32125287356471" lon="10.80365239923043"><ele>677.0</ele><time>2026-04-18T12:56:05Z</time></trkpt><trkpt lat="44.32118378234917" lon="10.803677456497077"><ele>676.1428571428571</ele><time>2026-04-18T12:56:07Z</time></trkpt><trkpt lat="44.32111016983184" lon="10.803700835738988"><ele>675.2857142857142</ele><time>2026-04-18T12:56:10Z</time></trkpt><trkpt lat="44.32104070522964" lon="10.803698730000352"><ele>674.4285714285713</ele><time>2026-04-18T12:56:12Z</time></trkpt><trkpt lat="44.320980052006476" lon="10.803673298275951"><ele>673.5714285714286</ele><time>2026-04-18T12:56:15Z</time></trkpt><trkpt lat="44.32099046324595" lon="10.803572374719538"><ele>672.7142857142858</ele><time>2026-04-18T12:56:32.999Z</time></trkpt><trkpt lat="44.32103750049039" lon="10.803497421856633"><ele>671.8571428571428</ele><time>2026-04-18T12:57:13Z</time></trkpt><trkpt lat="44.32110830038293" lon="10.80346168085146"><ele>671.0</ele><time>2026-04-18T12:57:39Z</time></trkpt><trkpt lat="44.32116538606213" lon="10.803414104167953"><ele>672.0</ele><time>2026-04-18T12:57:43Z</time></trkpt><trkpt lat="44.321213235495804" lon="10.803337677466747"><ele>673.0</ele><time>2026-04-18T12:57:47Z</time></trkpt><trkpt lat="44.3212570797684" lon="10.803262405504569"><ele>674.0</ele><time>2026-04-18T12:57:59Z</time></trkpt><trkpt lat="44.321294128978835" lon="10.803171380972017"><ele>675.0</ele><time>2026-04-18T12:58:05Z</time></trkpt><trkpt lat="44.32133886575344" lon="10.803102109397608"><ele>676.0</ele><time>2026-04-18T12:58:11Z</time></trkpt><trkpt lat="44.32137878719074" lon="10.803024762477207"><ele>677.0</ele><time>2026-04-18T12:58:20.999Z</time></trkpt><trkpt lat="44.321436525877026" lon="10.802896227217172"><ele>677.0</ele><time>2026-04-18T12:59:29Z</time></trkpt><trkpt lat="44.321466191252924" lon="10.802811599013824"><ele>677.0</ele><time>2026-04-18T12:59:35Z</time></trkpt><trkpt lat="44.32143550819833" lon="10.80273374846979"><ele>677.0</ele><time>2026-04-18T12:59:39Z</time></trkpt><trkpt lat="44.3214176219118" lon="10.802619550393171"><ele>677.0</ele><time>2026-04-18T12:59:41Z</time></trkpt><trkpt lat="44.32139471675996" lon="10.802526014484487"><ele>677.0</ele><time>2026-04-18T12:59:43Z</time></trkpt><trkpt lat="44.32129537381271" lon="10.802477120336013"><ele>677.0</ele><time>2026-04-18T12:59:46Z</time></trkpt><trkpt lat="44.32121153053176" lon="10.80244567157192"><ele>674.1428571428571</ele><time>2026-04-18T12:59:50Z</time></trkpt><trkpt lat="44.32116505555911" lon="10.802369635063572"><ele>671.2857142857142</ele><time>2026-04-18T12:59:53Z</time></trkpt><trkpt lat="44.32114493333583" lon="10.802280055372028"><ele>668.4285714285713</ele><time>2026-04-18T12:59:59Z</time></trkpt><trkpt lat="44.32109079584477" lon="10.802204459363168"><ele>665.5714285714286</ele><time>2026-04-18T13:00:09.999Z</time></trkpt><trkpt lat="44.32103526834818" lon="10.80214243113493"><ele>662.7142857142858</ele><time>2026-04-18T13:00:27.999Z</time></trkpt><trkpt lat="44.320960609618496" lon="10.802067998486047"><ele>659.8571428571428</ele><time>2026-04-18T13:00:58Z</time></trkpt><trkpt lat="44.32090501464865" lon="10.80202580718529"><ele>657.0</ele><time>2026-04-18T13:01:43Z</time></trkpt><trkpt lat="44.32084270658381" lon="10.802063550217301"><ele>657.0</ele><time>2026-04-18T13:02:56Z</time></trkpt><trkpt lat="44.32079694820976" lon="10.801987551172958"><ele>657.0</ele><time>2026-04-18T13:02:59Z</time></trkpt><trkpt lat="44.32080013013403" lon="10.801885308768032"><ele>657.0</ele><time>2026-04-18T13:03:01Z</time></trkpt><trkpt lat="44.32074820212901" lon="10.801777246978492"><ele>657.0</ele><time>2026-04-18T13:03:05Z</time></trkpt><trkpt lat="44.320685673519954" lon="10.801681273081114"><ele>657.0</ele><time>2026-04-18T13:03:07Z</time></trkpt><trkpt lat="44.32063080127845" lon="10.801587832735304"><ele>657.0</ele><time>2026-04-18T13:03:10Z</time></trkpt><trkpt lat="44.320579747274586" lon="10.801533248038297"><ele>656.3333333333334</ele><time>2026-04-18T13:03:12Z</time></trkpt><trkpt lat="44.32054225678293" lon="10.801453728192646"><ele>655.6666666666666</ele><time>2026-04-18T13:03:15Z</time></trkpt><trkpt lat="44.320479482850594" lon="10.801358935972887"><ele>655.0</ele><time>2026-04-18T13:03:18Z</time></trkpt><trkpt lat="44.32042732200019" lon="10.801269773076783"><ele>654.3333333333333</ele><time>2026-04-18T13:03:21Z</time></trkpt><trkpt lat="44.320384708219436" lon="10.80118085751588"><ele>653.6666666666666</ele><time>2026-04-18T13:03:24Z</time></trkpt><trkpt lat="44.320390410822895" lon="10.801040407793941"><ele>653.0</ele><time>2026-04-18T13:03:26Z</time></trkpt><trkpt lat="44.32039002590762" lon="10.800875547566342"><ele>653.0</ele><time>2026-04-18T13:03:28Z</time></trkpt><trkpt lat="44.32038177591185" lon="10.800777774823539"><ele>653.0</ele><time>2026-04-18T13:03:30Z</time></trkpt><trkpt lat="44.32039504050101" lon="10.80062521766843"><ele>653.0</ele><time>2026-04-18T13:03:33Z</time></trkpt><trkpt lat="44.32038833443643" lon="10.800502737915556"><ele>653.0</ele><time>2026-04-18T13:03:35Z</time></trkpt><trkpt lat="44.32036612231844" lon="10.80041071558055"><ele>653.0</ele><time>2026-04-18T13:03:37Z</time></trkpt><trkpt lat="44.32033943176792" lon="10.800229197051245"><ele>654.0</ele><time>2026-04-18T13:03:39Z</time></trkpt><trkpt lat="44.320314021483824" lon="10.800113098534752"><ele>655.0</ele><time>2026-04-18T13:03:40Z</time></trkpt><trkpt lat="44.320276742235" lon="10.799967832752333"><ele>656.0</ele><time>2026-04-18T13:03:42Z</time></trkpt><trkpt lat="44.32021018167937" lon="10.799853863391716"><ele>657.0</ele><time>2026-04-18T13:03:44Z</time></trkpt><trkpt lat="44.32014542611552" lon="10.799759931821205"><ele>658.0</ele><time>2026-04-18T13:03:47Z</time></trkpt><trkpt lat="44.320106596480834" lon="10.79964809082662"><ele>658.0</ele><time>2026-04-18T13:03:50Z</time></trkpt><trkpt lat="44.32004845345988" lon="10.799586430439824"><ele>658.0</ele><time>2026-04-18T13:03:52Z</time></trkpt><trkpt lat="44.31999436561968" lon="10.799492038239789"><ele>658.0</ele><time>2026-04-18T13:03:54Z</time></trkpt><trkpt lat="44.3199239761424" lon="10.79940975670622"><ele>658.0</ele><time>2026-04-18T13:03:57Z</time></trkpt><trkpt lat="44.319973094088255" lon="10.799473668423753"><ele>658.0</ele><time>2026-04-18T13:05:01.999Z</time></trkpt><trkpt lat="44.320034950200196" lon="10.799569968996783"><ele>658.0</ele><time>2026-04-18T13:05:03.999Z</time></trkpt><trkpt lat="44.32008618183286" lon="10.799637012188823"><ele>658.0</ele><time>2026-04-18T13:05:06.999Z</time></trkpt><trkpt lat="44.32015381572055" lon="10.799739554601802"><ele>658.0</ele><time>2026-04-18T13:05:08.999Z</time></trkpt><trkpt lat="44.320207607598604" lon="10.799814654761624"><ele>658.0</ele><time>2026-04-18T13:05:10.999Z</time></trkpt><trkpt lat="44.32025196052334" lon="10.799896837710468"><ele>658.0</ele><time>2026-04-18T13:05:14Z</time></trkpt><trkpt lat="44.32029013768691" lon="10.799977833442979"><ele>658.0</ele><time>2026-04-18T13:05:16Z</time></trkpt><trkpt lat="44.32032560345717" lon="10.800055624668948"><ele>658.0</ele><time>2026-04-18T13:05:18Z</time></trkpt><trkpt lat="44.32036253656141" lon="10.800166068839115"><ele>657.1666666666667</ele><time>2026-04-18T13:05:20Z</time></trkpt><trkpt lat="44.32037552134049" lon="10.800279345793403"><ele>656.3333333333334</ele><time>2026-04-18T13:05:22Z</time></trkpt><trkpt lat="44.32038660999246" lon="10.800431328012255"><ele>655.5</ele><time>2026-04-18T13:05:24Z</time></trkpt><trkpt lat="44.320402065945885" lon="10.800528935878848"><ele>654.6666666666666</ele><time>2026-04-18T13:05:25Z</time></trkpt><trkpt lat="44.32041572096347" lon="10.800626861059923"><ele>653.8333333333333</ele><time>2026-04-18T13:05:26Z</time></trkpt><trkpt lat="44.320417175028375" lon="10.800718189104481"><ele>653.0</ele><time>2026-04-18T13:05:27.999Z</time></trkpt><trkpt lat="44.32045532204465" lon="10.80062791267366"><ele>653.0000000000001</ele><time>2026-04-18T13:05:33.999Z</time></trkpt><trkpt lat="44.32046661615853" lon="10.80050578339974"><ele>653.0</ele><time>2026-04-18T13:05:35.999Z</time></trkpt><trkpt lat="44.32051956598853" lon="10.800453191366813"><ele>653.0</ele><time>2026-04-18T13:05:43.999Z</time></trkpt><trkpt lat="44.320547191137145" lon="10.800359541072593"><ele>653.0</ele><time>2026-04-18T13:05:49.999Z</time></trkpt><trkpt lat="44.32061246481732" lon="10.800304596676591"><ele>653.0</ele><time>2026-04-18T13:05:53.999Z</time></trkpt><trkpt lat="44.32067415634602" lon="10.800282022144927"><ele>653.0000000000001</ele><time>2026-04-18T13:05:55.999Z</time></trkpt><trkpt lat="44.320743941414925" lon="10.80027510027783"><ele>653.0</ele><time>2026-04-18T13:06:02.999Z</time></trkpt><trkpt lat="44.32081894105259" lon="10.800285533524645"><ele>652.8333333333333</ele><time>2026-04-18T13:06:05.999Z</time></trkpt><trkpt lat="44.320896106952496" lon="10.800302397746965"><ele>652.6666666666666</ele><time>2026-04-18T13:06:09.999Z</time></trkpt><trkpt lat="44.32096844289483" lon="10.800328839450207"><ele>652.5</ele><time>2026-04-18T13:06:11.999Z</time></trkpt><trkpt lat="44.32103087339402" lon="10.800352338610917"><ele>652.3333333333334</ele><time>2026-04-18T13:06:13.999Z</time></trkpt><trkpt lat="44.3211151504076" lon="10.800386003880124"><ele>652.1666666666667</ele><time>2026-04-18T13:06:15.999Z</time></trkpt><trkpt lat="44.321186010210944" lon="10.800354855202388"><ele>652.0</ele><time>2026-04-18T13:06:30.999Z</time></trkpt><trkpt lat="44.321273237292594" lon="10.800306751243944"><ele>652.0</ele><time>2026-04-18T13:06:32.999Z</time></trkpt><trkpt lat="44.32134499249523" lon="10.800267277290073"><ele>652.0</ele><time>2026-04-18T13:06:34.999Z</time></trkpt><trkpt lat="44.32144932060131" lon="10.800226876142256"><ele>652.0</ele><time>2026-04-18T13:06:36.999Z</time></trkpt><trkpt lat="44.32154773524655" lon="10.800174870933148"><ele>652.0</ele><time>2026-04-18T13:06:38.999Z</time></trkpt><trkpt lat="44.32160596209037" lon="10.800115177001496"><ele>652.0</ele><time>2026-04-18T13:06:42.999Z</time></trkpt><trkpt lat="44.32169250431482" lon="10.80009594697829"><ele>651.8333333333334</ele><time>2026-04-18T13:06:44.999Z</time></trkpt><trkpt lat="44.3217473616456" lon="10.800139194433342"><ele>651.6666666666667</ele><time>2026-04-18T13:06:47.999Z</time></trkpt><trkpt lat="44.32182293750882" lon="10.80019759699862"><ele>651.5</ele><time>2026-04-18T13:06:49.999Z</time></trkpt><trkpt lat="44.32187225165227" lon="10.800300574482666"><ele>651.3333333333334</ele><time>2026-04-18T13:06:52.999Z</time></trkpt><trkpt lat="44.32193943354209" lon="10.80034050973184"><ele>651.1666666666666</ele><time>2026-04-18T13:06:54.999Z</time></trkpt><trkpt lat="44.32203171116272" lon="10.800349948684662"><ele>651.0</ele><time>2026-04-18T13:06:56.999Z</time></trkpt><trkpt lat="44.32207004280232" lon="10.800222686902574"><ele>650.0</ele><time>2026-04-18T13:07:00.999Z</time></trkpt><trkpt lat="44.322112517766115" lon="10.800113983085321"><ele>649.0</ele><time>2026-04-18T13:07:02.999Z</time></trkpt><trkpt lat="44.32214251676618" lon="10.800012114840035"><ele>648.0</ele><time>2026-04-18T13:07:04.999Z</time></trkpt><trkpt lat="44.3221635781496" lon="10.799923361781476"><ele>647.0</ele><time>2026-04-18T13:07:06.999Z</time></trkpt><trkpt lat="44.32219346004072" lon="10.799810470278322"><ele>646.0</ele><time>2026-04-18T13:07:08.999Z</time></trkpt><trkpt lat="44.322242972590516" lon="10.799743866977247"><ele>645.0</ele><time>2026-04-18T13:07:10.999Z</time></trkpt><trkpt lat="44.32229030100795" lon="10.7996053566147"><ele>645.0</ele><time>2026-04-18T13:07:12.999Z</time></trkpt><trkpt lat="44.32231089494431" lon="10.79947490848505"><ele>645.0</ele><time>2026-04-18T13:07:15.999Z</time></trkpt><trkpt lat="44.32233290864818" lon="10.79935754954979"><ele>645.0</ele><time>2026-04-18T13:07:17.999Z</time></trkpt><trkpt lat="44.322376695948364" lon="10.799263767214313"><ele>645.0</ele><time>2026-04-18T13:07:19.999Z</time></trkpt><trkpt lat="44.322390282096165" lon="10.799143192730604"><ele>645.0</ele><time>2026-04-18T13:07:21.999Z</time></trkpt><trkpt lat="44.32243230856309" lon="10.799064841765974"><ele>645.0</ele><time>2026-04-18T13:07:23.999Z</time></trkpt><trkpt lat="44.322475272180135" lon="10.7989548794415"><ele>643.25</ele><time>2026-04-18T13:07:25.999Z</time></trkpt><trkpt lat="44.322530511193804" lon="10.798802009738719"><ele>641.5</ele><time>2026-04-18T13:07:27.999Z</time></trkpt><trkpt lat="44.32259823594354" lon="10.798658107139183"><ele>639.75</ele><time>2026-04-18T13:07:29.999Z</time></trkpt><trkpt lat="44.32266409338191" lon="10.798511825407553"><ele>638.0</ele><time>2026-04-18T13:07:31.999Z</time></trkpt><trkpt lat="44.32272063286845" lon="10.798373251020603"><ele>637.0</ele><time>2026-04-18T13:07:33.999Z</time></trkpt><trkpt lat="44.32272672595673" lon="10.798232362194671"><ele>636.0</ele><time>2026-04-18T13:07:35.999Z</time></trkpt><trkpt lat="44.32265699875426" lon="10.798128946440963"><ele>635.0</ele><time>2026-04-18T13:07:37.999Z</time></trkpt><trkpt lat="44.32260104465197" lon="10.798035870676282"><ele>634.0</ele><time>2026-04-18T13:07:39.999Z</time></trkpt><trkpt lat="44.32251313983996" lon="10.797977915374226"><ele>633.0</ele><time>2026-04-18T13:07:46.999Z</time></trkpt><trkpt lat="44.32248514168895" lon="10.797883035236348"><ele>633.0</ele><time>2026-04-18T13:07:50.999Z</time></trkpt><trkpt lat="44.32244893076162" lon="10.797805201376752"><ele>633.0</ele><time>2026-04-18T13:07:54.999Z</time></trkpt><trkpt lat="44.32243226145817" lon="10.797715350699782"><ele>633.0</ele><time>2026-04-18T13:07:59.999Z</time></trkpt><trkpt lat="44.32246613152261" lon="10.797628639821005"><ele>633.0</ele><time>2026-04-18T13:08:01.999Z</time></trkpt><trkpt lat="44.3225244466716" lon="10.797558213578363"><ele>633.0</ele><time>2026-04-18T13:08:05.999Z</time></trkpt><trkpt lat="44.322578392858986" lon="10.797507510741132"><ele>633.0</ele><time>2026-04-18T13:08:07.999Z</time></trkpt><trkpt lat="44.322600910443875" lon="10.797402095175107"><ele>633.0</ele><time>2026-04-18T13:08:09.999Z</time></trkpt><trkpt lat="44.32264971924583" lon="10.797333257644603"><ele>632.4285714285714</ele><time>2026-04-18T13:08:11.999Z</time></trkpt><trkpt lat="44.322678644809045" lon="10.797240860168495"><ele>631.8571428571429</ele><time>2026-04-18T13:08:13.999Z</time></trkpt><trkpt lat="44.32273608099365" lon="10.797128080522716"><ele>631.2857142857142</ele><time>2026-04-18T13:08:15.999Z</time></trkpt><trkpt lat="44.322775037266354" lon="10.797043409560306"><ele>630.7142857142858</ele><time>2026-04-18T13:08:17.999Z</time></trkpt><trkpt lat="44.32282760834645" lon="10.796994901610756"><ele>630.1428571428572</ele><time>2026-04-18T13:08:20.999Z</time></trkpt><trkpt lat="44.322879149014064" lon="10.796936309949603"><ele>629.5714285714286</ele><time>2026-04-18T13:08:22.999Z</time></trkpt><trkpt lat="44.32294164195353" lon="10.796874949629752"><ele>629.0</ele><time>2026-04-18T13:08:24.999Z</time></trkpt><trkpt lat="44.32296708571958" lon="10.796754403565686"><ele>627.8</ele><time>2026-04-18T13:08:27.999Z</time></trkpt><trkpt lat="44.32295989896606" lon="10.79665707990343"><ele>626.5999999999999</ele><time>2026-04-18T13:08:29.999Z</time></trkpt><trkpt lat="44.322961855768895" lon="10.796516848901401"><ele>625.4</ele><time>2026-04-18T13:08:38.999Z</time></trkpt><trkpt lat="44.322966687384586" lon="10.796407834251815"><ele>624.1999999999999</ele><time>2026-04-18T13:08:40.999Z</time></trkpt><trkpt lat="44.32299272454204" lon="10.79623843537293"><ele>623.0</ele><time>2026-04-18T13:08:41.999Z</time></trkpt><trkpt lat="44.32299427595101" lon="10.796125091894579"><ele>623.0</ele><time>2026-04-18T13:08:42.999Z</time></trkpt><trkpt lat="44.32300822891382" lon="10.796023130810584"><ele>623.0</ele><time>2026-04-18T13:08:43.999Z</time></trkpt><trkpt lat="44.3230237464669" lon="10.795922201050844"><ele>623.0</ele><time>2026-04-18T13:08:44.999Z</time></trkpt><trkpt lat="44.32303897242719" lon="10.795828379919426"><ele>623.0</ele><time>2026-04-18T13:08:45.999Z</time></trkpt><trkpt lat="44.323058321431716" lon="10.795739055928733"><ele>623.0</ele><time>2026-04-18T13:08:46.999Z</time></trkpt><trkpt lat="44.32312236605438" lon="10.795593632792507"><ele>623.0</ele><time>2026-04-18T13:08:48.999Z</time></trkpt><trkpt lat="44.32318840086936" lon="10.795450537009172"><ele>623.6</ele><time>2026-04-18T13:08:50.999Z</time></trkpt><trkpt lat="44.32324326202407" lon="10.79530549549519"><ele>624.1999999999999</ele><time>2026-04-18T13:08:52.999Z</time></trkpt><trkpt lat="44.323289570524196" lon="10.795176154375666"><ele>624.8</ele><time>2026-04-18T13:08:54.999Z</time></trkpt><trkpt lat="44.32327333890211" lon="10.795077148515437"><ele>625.4</ele><time>2026-04-18T13:08:57.999Z</time></trkpt><trkpt lat="44.32323685077882" lon="10.794969446335928"><ele>626.0</ele><time>2026-04-18T13:08:59.999Z</time></trkpt><trkpt lat="44.32321596202502" lon="10.794859431043479"><ele>629.0</ele><time>2026-04-18T13:09:01.999Z</time></trkpt><trkpt lat="44.3231584358869" lon="10.794730320889578"><ele>632.0</ele><time>2026-04-18T13:09:03.999Z</time></trkpt><trkpt lat="44.323098322082885" lon="10.794660483861435"><ele>635.0</ele><time>2026-04-18T13:09:05.999Z</time></trkpt><trkpt lat="44.32297285185825" lon="10.794575167467391"><ele>638.0</ele><time>2026-04-18T13:09:07.999Z</time></trkpt><trkpt lat="44.32290804496273" lon="10.79451147914858"><ele>641.0</ele><time>2026-04-18T13:09:08.999Z</time></trkpt><trkpt lat="44.32277920047968" lon="10.794428423880305"><ele>641.6666666666666</ele><time>2026-04-18T13:09:10.999Z</time></trkpt><trkpt lat="44.32270711920458" lon="10.794369177880906"><ele>642.3333333333333</ele><time>2026-04-18T13:09:11.999Z</time></trkpt><trkpt lat="44.32265174092517" lon="10.794295401197667"><ele>643.0</ele><time>2026-04-18T13:09:12.999Z</time></trkpt><trkpt lat="44.32257144651899" lon="10.794210257902797"><ele>643.6666666666666</ele><time>2026-04-18T13:09:14.999Z</time></trkpt><trkpt lat="44.322520675546876" lon="10.794156399264377"><ele>644.3333333333334</ele><time>2026-04-18T13:09:15.999Z</time></trkpt><trkpt lat="44.322485088064724" lon="10.794069104293758"><ele>645.0</ele><time>2026-04-18T13:09:18.999Z</time></trkpt><trkpt lat="44.32251821799792" lon="10.79394810158398"><ele>647.0</ele><time>2026-04-18T13:09:20.999Z</time></trkpt><trkpt lat="44.32254916706448" lon="10.793862356405523"><ele>649.0</ele><time>2026-04-18T13:09:21.999Z</time></trkpt><trkpt lat="44.32257575017297" lon="10.79375649572028"><ele>651.0</ele><time>2026-04-18T13:09:23Z</time></trkpt><trkpt lat="44.32259157657926" lon="10.79364503638291"><ele>653.0</ele><time>2026-04-18T13:09:24Z</time></trkpt><trkpt lat="44.32260211633154" lon="10.793555668787961"><ele>655.0</ele><time>2026-04-18T13:09:25Z</time></trkpt><trkpt lat="44.32259317905041" lon="10.793430298648783"><ele>657.0</ele><time>2026-04-18T13:09:27Z</time></trkpt><trkpt lat="44.32256893793237" lon="10.793241738123411"><ele>658.6</ele><time>2026-04-18T13:09:29Z</time></trkpt><trkpt lat="44.32253564705768" lon="10.793136930065254"><ele>660.2</ele><time>2026-04-18T13:09:30Z</time></trkpt><trkpt lat="44.32247764295869" lon="10.792983212497017"><ele>661.8</ele><time>2026-04-18T13:09:32Z</time></trkpt><trkpt lat="44.3224228273239" lon="10.792866548951737"><ele>663.4</ele><time>2026-04-18T13:09:34Z</time></trkpt><trkpt lat="44.32233278880546" lon="10.792745666438046"><ele>665.0</ele><time>2026-04-18T13:09:36Z</time></trkpt><trkpt lat="44.32225813367528" lon="10.792685251530187"><ele>665.0</ele><time>2026-04-18T13:09:37Z</time></trkpt><trkpt lat="44.32218858729475" lon="10.792613511828591"><ele>665.0</ele><time>2026-04-18T13:09:39Z</time></trkpt><trkpt lat="44.32219223938475" lon="10.792482080473894"><ele>665.0</ele><time>2026-04-18T13:09:41Z</time></trkpt><trkpt lat="44.32231791778113" lon="10.792536431073437"><ele>665.0</ele><time>2026-04-18T13:09:46Z</time></trkpt><trkpt lat="44.3223742505455" lon="10.792613864357202"><ele>665.0</ele><time>2026-04-18T13:09:47Z</time></trkpt><trkpt lat="44.32247885283361" lon="10.792681747214319"><ele>665.0</ele><time>2026-04-18T13:09:49Z</time></trkpt><trkpt lat="44.32254233616246" lon="10.792699526285482"><ele>665.0</ele><time>2026-04-18T13:09:50Z</time></trkpt><trkpt lat="44.322608543637436" lon="10.792681183432403"><ele>665.0</ele><time>2026-04-18T13:09:51Z</time></trkpt><trkpt lat="44.322673399265355" lon="10.79265208569787"><ele>665.0</ele><time>2026-04-18T13:09:52Z</time></trkpt><trkpt lat="44.32275685970365" lon="10.792583078606143"><ele>665.0</ele><time>2026-04-18T13:09:53Z</time></trkpt><trkpt lat="44.32287420130956" lon="10.792525367834038"><ele>665.0</ele><time>2026-04-18T13:09:54Z</time></trkpt><trkpt lat="44.32297649130886" lon="10.792526087518262"><ele>669.25</ele><time>2026-04-18T13:09:55Z</time></trkpt><trkpt lat="44.32309975872253" lon="10.792504493394812"><ele>673.5</ele><time>2026-04-18T13:09:55.999Z</time></trkpt><trkpt lat="44.3232427998732" lon="10.792521395584144"><ele>677.75</ele><time>2026-04-18T13:09:56.999Z</time></trkpt><trkpt lat="44.32337720002781" lon="10.792513125646893"><ele>682.0</ele><time>2026-04-18T13:09:57.999Z</time></trkpt><trkpt lat="44.32348145845401" lon="10.792506255936914"><ele>682.0</ele><time>2026-04-18T13:09:58.999Z</time></trkpt><trkpt lat="44.32356854776824" lon="10.792469526162542"><ele>682.0</ele><time>2026-04-18T13:09:59.999Z</time></trkpt><trkpt lat="44.32362169243513" lon="10.792415567692284"><ele>682.0</ele><time>2026-04-18T13:10:00.999Z</time></trkpt><trkpt lat="44.32365547879521" lon="10.792281359842827"><ele>682.0</ele><time>2026-04-18T13:10:01.999Z</time></trkpt><trkpt lat="44.323662597582356" lon="10.792136006714584"><ele>682.0</ele><time>2026-04-18T13:10:02.999Z</time></trkpt><trkpt lat="44.32368454692918" lon="10.792002507276317"><ele>682.0</ele><time>2026-04-18T13:10:03.999Z</time></trkpt><trkpt lat="44.323723031046725" lon="10.791899892922967"><ele>682.0</ele><time>2026-04-18T13:10:04.999Z</time></trkpt><trkpt lat="44.32378808566656" lon="10.791798069771222"><ele>682.0</ele><time>2026-04-18T13:10:05.999Z</time></trkpt><trkpt lat="44.3239000110828" lon="10.791799127601648"><ele>682.0</ele><time>2026-04-18T13:10:06.999Z</time></trkpt><trkpt lat="44.324014133752776" lon="10.791784855206998"><ele>682.0</ele><time>2026-04-18T13:10:07.999Z</time></trkpt><trkpt lat="44.32412803900099" lon="10.791799391640563"><ele>683.8</ele><time>2026-04-18T13:10:08.999Z</time></trkpt><trkpt lat="44.32421876984743" lon="10.791780344653713"><ele>685.6</ele><time>2026-04-18T13:10:09.999Z</time></trkpt><trkpt lat="44.32430024032417" lon="10.79171228047484"><ele>687.4</ele><time>2026-04-18T13:10:10.999Z</time></trkpt><trkpt lat="44.32437302389393" lon="10.791618816998717"><ele>689.1999999999999</ele><time>2026-04-18T13:10:11.999Z</time></trkpt><trkpt lat="44.32444796033685" lon="10.791539939466563"><ele>691.0</ele><time>2026-04-18T13:10:12.999Z</time></trkpt><trkpt lat="44.32450389442036" lon="10.791422446936293"><ele>691.0</ele><time>2026-04-18T13:10:13.999Z</time></trkpt><trkpt lat="44.32450566747685" lon="10.791281239117618"><ele>691.0</ele><time>2026-04-18T13:10:14.999Z</time></trkpt><trkpt lat="44.32449646067228" lon="10.791130379130522"><ele>691.0</ele><time>2026-04-18T13:10:15.999Z</time></trkpt><trkpt lat="44.32450428580174" lon="10.790956926469958"><ele>691.0</ele><time>2026-04-18T13:10:16.999Z</time></trkpt><trkpt lat="44.324493508324956" lon="10.79078882915865"><ele>694.0</ele><time>2026-04-18T13:10:17.999Z</time></trkpt><trkpt lat="44.32448088228936" lon="10.790633534592455"><ele>697.0</ele><time>2026-04-18T13:10:18.999Z</time></trkpt><trkpt lat="44.32444427770353" lon="10.790509434997862"><ele>700.0</ele><time>2026-04-18T13:10:19.999Z</time></trkpt><trkpt lat="44.3244318248018" lon="10.790393884882729"><ele>703.0</ele><time>2026-04-18T13:10:20.999Z</time></trkpt><trkpt lat="44.3244135159172" lon="10.79023579587411"><ele>706.0</ele><time>2026-04-18T13:10:22.999Z</time></trkpt><trkpt lat="44.324410880013154" lon="10.790131518941136"><ele>706.0</ele><time>2026-04-18T13:10:24.999Z</time></trkpt><trkpt lat="44.32431105711836" lon="10.790186842624673"><ele>706.0</ele><time>2026-04-18T13:10:29.999Z</time></trkpt><trkpt lat="44.324306458578896" lon="10.790278761465252"><ele>706.0</ele><time>2026-04-18T13:10:30.999Z</time></trkpt><trkpt lat="44.32424661603646" lon="10.790410617170568"><ele>706.0</ele><time>2026-04-18T13:10:32.999Z</time></trkpt><trkpt lat="44.32417600206312" lon="10.790462476464233"><ele>706.0</ele><time>2026-04-18T13:10:34.999Z</time></trkpt><trkpt lat="44.32410767088816" lon="10.790526254437475"><ele>706.0</ele><time>2026-04-18T13:10:36.999Z</time></trkpt><trkpt lat="44.324058165731984" lon="10.790599115893418"><ele>706.0</ele><time>2026-04-18T13:10:37.999Z</time></trkpt><trkpt lat="44.324014391155" lon="10.790728448931985"><ele>706.0</ele><time>2026-04-18T13:10:39.999Z</time></trkpt><trkpt lat="44.32395153128217" lon="10.790833263024311"><ele>706.0</ele><time>2026-04-18T13:10:41.999Z</time></trkpt><trkpt lat="44.323850812426514" lon="10.790827423011846"><ele>706.0</ele><time>2026-04-18T13:10:43.999Z</time></trkpt><trkpt lat="44.32378380934786" lon="10.79078990190975"><ele>706.0</ele><time>2026-04-18T13:10:44.999Z</time></trkpt><trkpt lat="44.3237068216025" lon="10.79073695451552"><ele>707.5</ele><time>2026-04-18T13:10:46.999Z</time></trkpt><trkpt lat="44.32366747832581" lon="10.790667480124709"><ele>709.0</ele><time>2026-04-18T13:10:49.999Z</time></trkpt><trkpt lat="44.32366959860804" lon="10.790536011189555"><ele>710.5</ele><time>2026-04-18T13:10:51.999Z</time></trkpt><trkpt lat="44.32365727109387" lon="10.790420525086626"><ele>712.0</ele><time>2026-04-18T13:10:53.999Z</time></trkpt><trkpt lat="44.323617735068446" lon="10.79028999114733"><ele>713.5</ele><time>2026-04-18T13:10:55.999Z</time></trkpt><trkpt lat="44.32360874976053" lon="10.790174151453273"><ele>715.0</ele><time>2026-04-18T13:10:57.999Z</time></trkpt><trkpt lat="44.32363160455233" lon="10.790067327979834"><ele>715.0</ele><time>2026-04-18T13:10:59.999Z</time></trkpt><trkpt lat="44.3237354860361" lon="10.789935941863778"><ele>715.0</ele><time>2026-04-18T13:11:01.999Z</time></trkpt><trkpt lat="44.32378877869342" lon="10.789828791172384"><ele>715.0</ele><time>2026-04-18T13:11:02.999Z</time></trkpt><trkpt lat="44.32385059080943" lon="10.78969811972357"><ele>715.0</ele><time>2026-04-18T13:11:03.999Z</time></trkpt><trkpt lat="44.323904262852146" lon="10.78958138523359"><ele>715.0</ele><time>2026-04-18T13:11:04.999Z</time></trkpt><trkpt lat="44.3239595669532" lon="10.789469587195203"><ele>715.0</ele><time>2026-04-18T13:11:05.999Z</time></trkpt><trkpt lat="44.32401396934674" lon="10.789367124564587"><ele>715.0</ele><time>2026-04-18T13:11:06.999Z</time></trkpt><trkpt lat="44.32408361591037" lon="10.78924379471495"><ele>715.0</ele><time>2026-04-18T13:11:07.999Z</time></trkpt><trkpt lat="44.324146889292805" lon="10.78914877076778"><ele>715.0</ele><time>2026-04-18T13:11:08.999Z</time></trkpt><trkpt lat="44.32421837403643" lon="10.789074666801824"><ele>715.0</ele><time>2026-04-18T13:11:09.999Z</time></trkpt><trkpt lat="44.32430409273463" lon="10.789036671279655"><ele>715.6</ele><time>2026-04-18T13:11:10.999Z</time></trkpt><trkpt lat="44.32439100900991" lon="10.789008464412735"><ele>716.2</ele><time>2026-04-18T13:11:11.999Z</time></trkpt><trkpt lat="44.324494095031106" lon="10.788956060139187"><ele>716.8</ele><time>2026-04-18T13:11:12.999Z</time></trkpt><trkpt lat="44.32460261313084" lon="10.788925830399425"><ele>717.4</ele><time>2026-04-18T13:11:13.999Z</time></trkpt><trkpt lat="44.32472647923317" lon="10.788880064088142"><ele>718.0</ele><time>2026-04-18T13:11:14.999Z</time></trkpt><trkpt lat="44.324852704364936" lon="10.788833337179717"><ele>718.0</ele><time>2026-04-18T13:11:15.999Z</time></trkpt><trkpt lat="44.32493701756668" lon="10.788779432847749"><ele>718.0</ele><time>2026-04-18T13:11:17.999Z</time></trkpt><trkpt lat="44.3249999944806" lon="10.788706831462102"><ele>718.0</ele><time>2026-04-18T13:11:19Z</time></trkpt><trkpt lat="44.3250405812593" lon="10.788609363776716"><ele>718.0</ele><time>2026-04-18T13:11:20Z</time></trkpt><trkpt lat="44.32507317418265" lon="10.788498280979784"><ele>718.0</ele><time>2026-04-18T13:11:21Z</time></trkpt><trkpt lat="44.32513889844454" lon="10.78841615725016"><ele>718.0</ele><time>2026-04-18T13:11:22Z</time></trkpt><trkpt lat="44.32519961645324" lon="10.788351575753234"><ele>720.1666666666667</ele><time>2026-04-18T13:11:23Z</time></trkpt><trkpt lat="44.32527186701822" lon="10.788284627018182"><ele>722.3333333333334</ele><time>2026-04-18T13:11:24Z</time></trkpt><trkpt lat="44.32535147280995" lon="10.788216981286109"><ele>724.5</ele><time>2026-04-18T13:11:25Z</time></trkpt><trkpt lat="44.325431889698656" lon="10.78814848283509"><ele>726.6666666666666</ele><time>2026-04-18T13:11:26Z</time></trkpt><trkpt lat="44.325510586134996" lon="10.788081449897444"><ele>728.8333333333333</ele><time>2026-04-18T13:11:27Z</time></trkpt><trkpt lat="44.3255726854231" lon="10.788028554252064"><ele>731.0</ele><time>2026-04-18T13:11:28Z</time></trkpt><trkpt lat="44.325646504207725" lon="10.787942973150228"><ele>731.0</ele><time>2026-04-18T13:11:30Z</time></trkpt><trkpt lat="44.32558124124796" lon="10.787795005241241"><ele>731.0</ele><time>2026-04-18T13:11:36Z</time></trkpt><trkpt lat="44.32548125154315" lon="10.787677966438364"><ele>731.0</ele><time>2026-04-18T13:11:38Z</time></trkpt><trkpt lat="44.32542591951889" lon="10.787604141473215"><ele>731.0</ele><time>2026-04-18T13:11:39Z</time></trkpt><trkpt lat="44.32536747633832" lon="10.787516545675569"><ele>731.0</ele><time>2026-04-18T13:11:40Z</time></trkpt><trkpt lat="44.32530098399769" lon="10.78741640716148"><ele>733.8</ele><time>2026-04-18T13:11:41Z</time></trkpt><trkpt lat="44.32521530951375" lon="10.78732010427093"><ele>736.5999999999999</ele><time>2026-04-18T13:11:42Z</time></trkpt><trkpt lat="44.32513134828911" lon="10.787227241111705"><ele>739.4</ele><time>2026-04-18T13:11:43Z</time></trkpt><trkpt lat="44.32504106626701" lon="10.787142693641155"><ele>742.2</ele><time>2026-04-18T13:11:44Z</time></trkpt><trkpt lat="44.32495175573612" lon="10.787050176928185"><ele>745.0</ele><time>2026-04-18T13:11:45Z</time></trkpt><trkpt lat="44.3248453924353" lon="10.786952667280499"><ele>747.0</ele><time>2026-04-18T13:11:46Z</time></trkpt><trkpt lat="44.32474268274073" lon="10.786825329585085"><ele>749.0</ele><time>2026-04-18T13:11:47Z</time></trkpt><trkpt lat="44.3246165502069" lon="10.786699771664725"><ele>751.0</ele><time>2026-04-18T13:11:48Z</time></trkpt><trkpt lat="44.324459351431386" lon="10.786547522758726"><ele>753.25</ele><time>2026-04-18T13:11:49Z</time></trkpt><trkpt lat="44.324339976093206" lon="10.786437463973275"><ele>755.5</ele><time>2026-04-18T13:11:50Z</time></trkpt><trkpt lat="44.32422735319075" lon="10.786354096089884"><ele>757.75</ele><time>2026-04-18T13:11:51Z</time></trkpt><trkpt lat="44.324117737743194" lon="10.78625555538112"><ele>760.0</ele><time>2026-04-18T13:11:52Z</time></trkpt><trkpt lat="44.32401874662892" lon="10.786128392786319"><ele>760.0</ele><time>2026-04-18T13:11:53Z</time></trkpt><trkpt lat="44.323939119756766" lon="10.78600441337144"><ele>760.0</ele><time>2026-04-18T13:11:54Z</time></trkpt><trkpt lat="44.323845482429526" lon="10.785886104096026"><ele>760.0</ele><time>2026-04-18T13:11:55Z</time></trkpt><trkpt lat="44.32378192907938" lon="10.785774353931918"><ele>760.0</ele><time>2026-04-18T13:11:56Z</time></trkpt><trkpt lat="44.323701819144226" lon="10.785672676779146"><ele>762.75</ele><time>2026-04-18T13:11:57Z</time></trkpt><trkpt lat="44.32360558798556" lon="10.785591241364008"><ele>765.5</ele><time>2026-04-18T13:11:58Z</time></trkpt><trkpt lat="44.32348872703271" lon="10.78549833657207"><ele>768.25</ele><time>2026-04-18T13:11:59Z</time></trkpt><trkpt lat="44.3233970026566" lon="10.785376107022861"><ele>771.0</ele><time>2026-04-18T13:12:00Z</time></trkpt><trkpt lat="44.323316802605106" lon="10.785259891663314"><ele>770.25</ele><time>2026-04-18T13:12:01Z</time></trkpt><trkpt lat="44.323254553461645" lon="10.785117250720505"><ele>769.5</ele><time>2026-04-18T13:12:02Z</time></trkpt><trkpt lat="44.32319583512996" lon="10.784962229938024"><ele>768.75</ele><time>2026-04-18T13:12:03Z</time></trkpt><trkpt lat="44.32314398681574" lon="10.78480959799982"><ele>768.0</ele><time>2026-04-18T13:12:04Z</time></trkpt><trkpt lat="44.32310133713946" lon="10.784664382735238"><ele>767.5</ele><time>2026-04-18T13:12:05Z</time></trkpt><trkpt lat="44.323058789669076" lon="10.784505992212784"><ele>767.0</ele><time>2026-04-18T13:12:05.999Z</time></trkpt><trkpt lat="44.32301817736477" lon="10.784348236494688"><ele>766.5</ele><time>2026-04-18T13:12:06.999Z</time></trkpt><trkpt lat="44.32296920258715" lon="10.784162545044628"><ele>766.0</ele><time>2026-04-18T13:12:07.999Z</time></trkpt><trkpt lat="44.32291544186701" lon="10.783960660651555"><ele>766.0</ele><time>2026-04-18T13:12:08.999Z</time></trkpt><trkpt lat="44.322868124467256" lon="10.783792434687701"><ele>766.0</ele><time>2026-04-18T13:12:09.999Z</time></trkpt><trkpt lat="44.322818221475934" lon="10.783638207276878"><ele>766.0</ele><time>2026-04-18T13:12:10.999Z</time></trkpt><trkpt lat="44.32274784656567" lon="10.783476206644995"><ele>766.0</ele><time>2026-04-18T13:12:11.999Z</time></trkpt><trkpt lat="44.32271920522789" lon="10.783291394678177"><ele>767.0</ele><time>2026-04-18T13:12:12.999Z</time></trkpt><trkpt lat="44.32269289152126" lon="10.783106449349528"><ele>768.0</ele><time>2026-04-18T13:12:13.999Z</time></trkpt><trkpt lat="44.32265115402283" lon="10.782899073231594"><ele>769.0</ele><time>2026-04-18T13:12:14.999Z</time></trkpt><trkpt lat="44.322590760227364" lon="10.782688681620355"><ele>771.0</ele><time>2026-04-18T13:12:15.999Z</time></trkpt><trkpt lat="44.32252250799435" lon="10.782452365263541"><ele>773.0</ele><time>2026-04-18T13:12:16.999Z</time></trkpt><trkpt lat="44.3224731087327" lon="10.782246129956151"><ele>775.0</ele><time>2026-04-18T13:12:17.999Z</time></trkpt><trkpt lat="44.32242690058526" lon="10.782064045548443"><ele>775.0</ele><time>2026-04-18T13:12:18.999Z</time></trkpt><trkpt lat="44.322383714994" lon="10.781899838746545"><ele>775.0</ele><time>2026-04-18T13:12:19.999Z</time></trkpt><trkpt lat="44.322327151706794" lon="10.781781775183857"><ele>775.0</ele><time>2026-04-18T13:12:20.999Z</time></trkpt><trkpt lat="44.322286067859565" lon="10.781689972628635"><ele>775.0</ele><time>2026-04-18T13:12:21.999Z</time></trkpt><trkpt lat="44.32222905564799" lon="10.78160371882939"><ele>775.0</ele><time>2026-04-18T13:12:23.999Z</time></trkpt><trkpt lat="44.322175350826136" lon="10.781532344958174"><ele>775.2857142857142</ele><time>2026-04-18T13:12:25.999Z</time></trkpt><trkpt lat="44.32214677953064" lon="10.781445463495091"><ele>775.5714285714286</ele><time>2026-04-18T13:12:26.999Z</time></trkpt><trkpt lat="44.32210298346258" lon="10.781351994991763"><ele>775.8571428571429</ele><time>2026-04-18T13:12:27.999Z</time></trkpt><trkpt lat="44.32205943008133" lon="10.781238606570609"><ele>776.1428571428571</ele><time>2026-04-18T13:12:28.999Z</time></trkpt><trkpt lat="44.322029876530834" lon="10.781152398504839"><ele>776.4285714285714</ele><time>2026-04-18T13:12:29.999Z</time></trkpt><trkpt lat="44.322004046010335" lon="10.781061360999159"><ele>776.7142857142857</ele><time>2026-04-18T13:12:30.999Z</time></trkpt><trkpt lat="44.321984470855824" lon="10.780974346827906"><ele>777.0</ele><time>2026-04-18T13:12:31.999Z</time></trkpt><trkpt lat="44.32195199917272" lon="10.780797101387428"><ele>779.25</ele><time>2026-04-18T13:12:33.999Z</time></trkpt><trkpt lat="44.3219313763587" lon="10.78063802026097"><ele>781.5</ele><time>2026-04-18T13:12:35.999Z</time></trkpt><trkpt lat="44.32192016289632" lon="10.780522031860885"><ele>783.75</ele><time>2026-04-18T13:12:36.999Z</time></trkpt><trkpt lat="44.321904859820215" lon="10.780352433854006"><ele>786.0</ele><time>2026-04-18T13:12:37.999Z</time></trkpt><trkpt lat="44.321874542656154" lon="10.780172286864504"><ele>787.5</ele><time>2026-04-18T13:12:38.999Z</time></trkpt><trkpt lat="44.3218597945845" lon="10.780013090494128"><ele>789.0</ele><time>2026-04-18T13:12:39.999Z</time></trkpt><trkpt lat="44.321848803195856" lon="10.77987925391481"><ele>790.5</ele><time>2026-04-18T13:12:40.999Z</time></trkpt><trkpt lat="44.32185363006134" lon="10.779710181917764"><ele>792.0</ele><time>2026-04-18T13:12:41.999Z</time></trkpt><trkpt lat="44.32184770350772" lon="10.779539490489029"><ele>792.0</ele><time>2026-04-18T13:12:42.999Z</time></trkpt><trkpt lat="44.32182708126922" lon="10.779351477984495"><ele>792.0</ele><time>2026-04-18T13:12:43.999Z</time></trkpt><trkpt lat="44.32182657618889" lon="10.779170715225852"><ele>792.0</ele><time>2026-04-18T13:12:44.999Z</time></trkpt><trkpt lat="44.32184480755293" lon="10.779023300411756"><ele>792.0</ele><time>2026-04-18T13:12:45.999Z</time></trkpt><trkpt lat="44.32185303933083" lon="10.778883841010186"><ele>793.6666666666666</ele><time>2026-04-18T13:12:46.999Z</time></trkpt><trkpt lat="44.321876206651005" lon="10.77870626599389"><ele>795.3333333333333</ele><time>2026-04-18T13:12:48.999Z</time></trkpt><trkpt lat="44.32189179232468" lon="10.778616924808492"><ele>797.0</ele><time>2026-04-18T13:12:49.999Z</time></trkpt><trkpt lat="44.32191332090046" lon="10.778518453891884"><ele>798.6666666666666</ele><time>2026-04-18T13:12:50.999Z</time></trkpt><trkpt lat="44.32194373806222" lon="10.778402078270032"><ele>800.3333333333333</ele><time>2026-04-18T13:12:51.999Z</time></trkpt><trkpt lat="44.32197047632328" lon="10.778309265920074"><ele>802.0</ele><time>2026-04-18T13:12:52.999Z</time></trkpt><trkpt lat="44.32200076505016" lon="10.77820826675615"><ele>801.9999999999999</ele><time>2026-04-18T13:12:53.999Z</time></trkpt><trkpt lat="44.322036614393014" lon="10.778092821032029"><ele>802.0</ele><time>2026-04-18T13:12:54.999Z</time></trkpt><trkpt lat="44.32207496384865" lon="10.777981120597925"><ele>802.0</ele><time>2026-04-18T13:12:55.999Z</time></trkpt><trkpt lat="44.32210921373204" lon="10.777884419546343"><ele>802.0</ele><time>2026-04-18T13:12:56.999Z</time></trkpt><trkpt lat="44.3221478539654" lon="10.777781406787808"><ele>801.9999999999999</ele><time>2026-04-18T13:12:57.999Z</time></trkpt><trkpt lat="44.322179348121836" lon="10.77769764914998"><ele>802.0</ele><time>2026-04-18T13:12:58.999Z</time></trkpt><trkpt lat="44.32220985183407" lon="10.777611470977929"><ele>803.8</ele><time>2026-04-18T13:12:59.999Z</time></trkpt><trkpt lat="44.322238089338335" lon="10.777497853969338"><ele>805.6</ele><time>2026-04-18T13:13:01.999Z</time></trkpt><trkpt lat="44.322293481028495" lon="10.777409535840361"><ele>807.4</ele><time>2026-04-18T13:13:05.999Z</time></trkpt><trkpt lat="44.32248302953756" lon="10.777407558758952"><ele>809.1999999999999</ele><time>2026-04-18T13:13:07.999Z</time></trkpt><trkpt lat="44.32255494966518" lon="10.777394558481527"><ele>811.0</ele><time>2026-04-18T13:13:08.999Z</time></trkpt><trkpt lat="44.32269217207833" lon="10.77737188230298"><ele>810.9999999999999</ele><time>2026-04-18T13:13:10.999Z</time></trkpt><trkpt lat="44.32276545322122" lon="10.777377250414498"><ele>811.0</ele><time>2026-04-18T13:13:11.999Z</time></trkpt><trkpt lat="44.322855144672324" lon="10.777381003504662"><ele>811.0</ele><time>2026-04-18T13:13:12.999Z</time></trkpt><trkpt lat="44.32293253491485" lon="10.777379912831003"><ele>811.0</ele><time>2026-04-18T13:13:13.999Z</time></trkpt><trkpt lat="44.323001650523715" lon="10.777366474825675"><ele>810.9999999999999</ele><time>2026-04-18T13:13:14.999Z</time></trkpt><trkpt lat="44.32309055304962" lon="10.777282463800905"><ele>811.0</ele><time>2026-04-18T13:13:16.999Z</time></trkpt><trkpt lat="44.32308363204606" lon="10.77713508043064"><ele>812.3333333333333</ele><time>2026-04-18T13:13:18.999Z</time></trkpt><trkpt lat="44.323078418111315" lon="10.776990332822123"><ele>813.6666666666666</ele><time>2026-04-18T13:14:36.999Z</time></trkpt><trkpt lat="44.32308314904702" lon="10.77689556689276"><ele>815.0</ele><time>2026-04-18T13:14:37.999Z</time></trkpt><trkpt lat="44.323098454460755" lon="10.776799552184745"><ele>816.3333333333333</ele><time>2026-04-18T13:14:38.999Z</time></trkpt><trkpt lat="44.32311367244747" lon="10.776677294836261"><ele>817.6666666666666</ele><time>2026-04-18T13:14:39.999Z</time></trkpt><trkpt lat="44.32313417941622" lon="10.776523438924222"><ele>819.0</ele><time>2026-04-18T13:14:40.999Z</time></trkpt><trkpt lat="44.323170187466204" lon="10.77637246539071"><ele>819.2</ele><time>2026-04-18T13:14:41.999Z</time></trkpt><trkpt lat="44.323221281478205" lon="10.776218269358237"><ele>819.4000000000001</ele><time>2026-04-18T13:14:42.999Z</time></trkpt><trkpt lat="44.3232819467844" lon="10.776096250516545"><ele>819.6</ele><time>2026-04-18T13:14:43.999Z</time></trkpt><trkpt lat="44.323345657112725" lon="10.775983849514937"><ele>819.8</ele><time>2026-04-18T13:14:44.999Z</time></trkpt><trkpt lat="44.32341101463434" lon="10.775877279498038"><ele>820.0</ele><time>2026-04-18T13:14:45.999Z</time></trkpt><trkpt lat="44.323487996354196" lon="10.775755357391473"><ele>820.0</ele><time>2026-04-18T13:14:46.999Z</time></trkpt><trkpt lat="44.323557005908754" lon="10.775781758540766"><ele>820.0</ele><time>2026-04-18T13:14:47.999Z</time></trkpt><trkpt lat="44.32359659752444" lon="10.775695623752036"><ele>820.0</ele><time>2026-04-18T13:14:48.999Z</time></trkpt><trkpt lat="44.323620809861936" lon="10.775603475293266"><ele>820.0</ele><time>2026-04-18T13:14:49.999Z</time></trkpt><trkpt lat="44.32363115651322" lon="10.775497214009752"><ele>820.0</ele><time>2026-04-18T13:14:50.999Z</time></trkpt><trkpt lat="44.323611589065656" lon="10.77540360388532"><ele>820.0</ele><time>2026-04-18T13:14:51.999Z</time></trkpt><trkpt lat="44.32356605868283" lon="10.775305323900294"><ele>820.0</ele><time>2026-04-18T13:14:52.999Z</time></trkpt><trkpt lat="44.323516784074606" lon="10.775213704552144"><ele>819.9999999999999</ele><time>2026-04-18T13:14:53.999Z</time></trkpt><trkpt lat="44.323483531538294" lon="10.775138892653715"><ele>820.0</ele><time>2026-04-18T13:14:54.999Z</time></trkpt><trkpt lat="44.32347379504838" lon="10.775031900108543"><ele>820.0</ele><time>2026-04-18T13:14:55.999Z</time></trkpt><trkpt lat="44.32347840966019" lon="10.774916597393204"><ele>820.0</ele><time>2026-04-18T13:14:56.999Z</time></trkpt><trkpt lat="44.32351729403353" lon="10.774781366734576"><ele>819.9999999999999</ele><time>2026-04-18T13:14:58.999Z</time></trkpt><trkpt lat="44.32356491794738" lon="10.77472004031253"><ele>820.0</ele><time>2026-04-18T13:14:59.999Z</time></trkpt><trkpt lat="44.323630957409925" lon="10.774651922182265"><ele>819.9999999999999</ele><time>2026-04-18T13:15:00.999Z</time></trkpt><trkpt lat="44.323704091008835" lon="10.774562023326654"><ele>820.0</ele><time>2026-04-18T13:15:01.999Z</time></trkpt><trkpt lat="44.32375585164475" lon="10.774478277690465"><ele>820.0</ele><time>2026-04-18T13:15:02.999Z</time></trkpt><trkpt lat="44.32381794538073" lon="10.77441270987937"><ele>820.0</ele><time>2026-04-18T13:15:03.999Z</time></trkpt><trkpt lat="44.323885296567916" lon="10.774353859802504"><ele>819.9999999999999</ele><time>2026-04-18T13:15:04.999Z</time></trkpt><trkpt lat="44.32392079604728" lon="10.774213802154383"><ele>820.0</ele><time>2026-04-18T13:15:06.999Z</time></trkpt><trkpt lat="44.32387594268614" lon="10.774144160703589"><ele>820.9999999999999</ele><time>2026-04-18T13:15:07.999Z</time></trkpt><trkpt lat="44.32381590074415" lon="10.774041923029017"><ele>822.0</ele><time>2026-04-18T13:15:08.999Z</time></trkpt><trkpt lat="44.32376579606055" lon="10.773946700397023"><ele>823.0</ele><time>2026-04-18T13:15:09.999Z</time></trkpt><trkpt lat="44.32374149775918" lon="10.773784568703437"><ele>824.0</ele><time>2026-04-18T13:15:11.999Z</time></trkpt><trkpt lat="44.3237706802296" lon="10.773688595535269"><ele>824.9999999999999</ele><time>2026-04-18T13:15:12.999Z</time></trkpt><trkpt lat="44.32381312804984" lon="10.77360290942977"><ele>826.0</ele><time>2026-04-18T13:15:13.999Z</time></trkpt><trkpt lat="44.32391729961715" lon="10.773528178777712"><ele>828.4</ele><time>2026-04-18T13:15:15.999Z</time></trkpt><trkpt lat="44.324008479268265" lon="10.773511669469812"><ele>830.8</ele><time>2026-04-18T13:15:16.999Z</time></trkpt><trkpt lat="44.32411482262506" lon="10.77351381528282"><ele>833.1999999999999</ele><time>2026-04-18T13:15:17.999Z</time></trkpt><trkpt lat="44.324192312346256" lon="10.773525969764803"><ele>835.5999999999999</ele><time>2026-04-18T13:15:18.999Z</time></trkpt><trkpt lat="44.32427225413842" lon="10.773551948968034"><ele>838.0</ele><time>2026-04-18T13:15:19.999Z</time></trkpt><trkpt lat="44.32436170872745" lon="10.773582232025197"><ele>838.2</ele><time>2026-04-18T13:15:20.999Z</time></trkpt><trkpt lat="44.3244393190031" lon="10.773615665454573"><ele>838.4</ele><time>2026-04-18T13:15:21.999Z</time></trkpt><trkpt lat="44.32458720596218" lon="10.773587930534221"><ele>838.6</ele><time>2026-04-18T13:15:23.999Z</time></trkpt><trkpt lat="44.32469894159504" lon="10.77354002861735"><ele>838.8000000000001</ele><time>2026-04-18T13:15:24.999Z</time></trkpt><trkpt lat="44.32476760919079" lon="10.773484288044953"><ele>839.0</ele><time>2026-04-18T13:15:25.999Z</time></trkpt><trkpt lat="44.32485081912734" lon="10.773431576421398"><ele>839.4000000000001</ele><time>2026-04-18T13:15:26.999Z</time></trkpt><trkpt lat="44.32496404566831" lon="10.773379233023444"><ele>839.8</ele><time>2026-04-18T13:15:27.999Z</time></trkpt><trkpt lat="44.3250665193671" lon="10.773333887009677"><ele>840.2</ele><time>2026-04-18T13:15:28.999Z</time></trkpt><trkpt lat="44.32514551082804" lon="10.773290633127852"><ele>840.5999999999999</ele><time>2026-04-18T13:15:29.999Z</time></trkpt><trkpt lat="44.32520909744825" lon="10.773257216172391"><ele>841.0</ele><time>2026-04-18T13:15:31Z</time></trkpt><trkpt lat="44.325302029048835" lon="10.773177823368542"><ele>840.9999999999999</ele><time>2026-04-18T13:15:33Z</time></trkpt><trkpt lat="44.32535627259482" lon="10.773094096987002"><ele>841.0</ele><time>2026-04-18T13:15:34Z</time></trkpt><trkpt lat="44.325417116747836" lon="10.77300066723292"><ele>841.0</ele><time>2026-04-18T13:15:35Z</time></trkpt><trkpt lat="44.32546283941094" lon="10.772931668691161"><ele>841.0</ele><time>2026-04-18T13:15:36Z</time></trkpt><trkpt lat="44.325511494175196" lon="10.772838600457703"><ele>840.9999999999999</ele><time>2026-04-18T13:15:37Z</time></trkpt><trkpt lat="44.32553363347657" lon="10.772750509232178"><ele>841.0</ele><time>2026-04-18T13:15:38Z</time></trkpt><trkpt lat="44.325524341641675" lon="10.772577451198647"><ele>840.2857142857143</ele><time>2026-04-18T13:15:40Z</time></trkpt><trkpt lat="44.325509310341396" lon="10.772487331174206"><ele>839.5714285714286</ele><time>2026-04-18T13:15:41Z</time></trkpt><trkpt lat="44.32548625201875" lon="10.77239146438876"><ele>838.8571428571429</ele><time>2026-04-18T13:15:42Z</time></trkpt><trkpt lat="44.32545258889947" lon="10.77230180729257"><ele>838.1428571428571</ele><time>2026-04-18T13:15:43Z</time></trkpt><trkpt lat="44.32542082203673" lon="10.772209165658408"><ele>837.4285714285713</ele><time>2026-04-18T13:15:44Z</time></trkpt><trkpt lat="44.32539876960475" lon="10.772108348724128"><ele>836.7142857142857</ele><time>2026-04-18T13:15:45Z</time></trkpt><trkpt lat="44.32537947609445" lon="10.771999212409899"><ele>836.0</ele><time>2026-04-18T13:15:46Z</time></trkpt><trkpt lat="44.32534916102747" lon="10.771894878014688"><ele>836.0</ele><time>2026-04-18T13:15:47Z</time></trkpt><trkpt lat="44.325331961798106" lon="10.771804554126508"><ele>836.0</ele><time>2026-04-18T13:15:48Z</time></trkpt><trkpt lat="44.3253125452495" lon="10.771703346188135"><ele>836.0</ele><time>2026-04-18T13:15:49Z</time></trkpt><trkpt lat="44.32528825487271" lon="10.771621469374004"><ele>836.0</ele><time>2026-04-18T13:15:50Z</time></trkpt><trkpt lat="44.325268586652825" lon="10.771534422381817"><ele>836.0</ele><time>2026-04-18T13:15:51Z</time></trkpt><trkpt lat="44.32527319570758" lon="10.771440454911383"><ele>836.0</ele><time>2026-04-18T13:15:52Z</time></trkpt><trkpt lat="44.3252833182291" lon="10.771321024729627"><ele>836.0</ele><time>2026-04-18T13:15:53Z</time></trkpt><trkpt lat="44.32526501794062" lon="10.771203511266734"><ele>836.0000000000001</ele><time>2026-04-18T13:15:54Z</time></trkpt><trkpt lat="44.32527521296199" lon="10.771102626550984"><ele>836.0</ele><time>2026-04-18T13:15:55Z</time></trkpt><trkpt lat="44.325288817077485" lon="10.771000657382611"><ele>836.0</ele><time>2026-04-18T13:15:56Z</time></trkpt><trkpt lat="44.32527055091281" lon="10.77089644496286"><ele>836.0</ele><time>2026-04-18T13:15:57Z</time></trkpt><trkpt lat="44.32525985900891" lon="10.770785694403322"><ele>836.0000000000001</ele><time>2026-04-18T13:15:58Z</time></trkpt><trkpt lat="44.32524347816531" lon="10.77069343097635"><ele>836.0</ele><time>2026-04-18T13:15:59Z</time></trkpt><trkpt lat="44.32522299481297" lon="10.770578250149523"><ele>836.8333333333334</ele><time>2026-04-18T13:16:00Z</time></trkpt><trkpt lat="44.32521855906427" lon="10.770464593315177"><ele>837.6666666666667</ele><time>2026-04-18T13:16:01Z</time></trkpt><trkpt lat="44.325239824282086" lon="10.770368573778601"><ele>838.5</ele><time>2026-04-18T13:16:02Z</time></trkpt><trkpt lat="44.325267735447405" lon="10.770280657996798"><ele>839.3333333333333</ele><time>2026-04-18T13:16:03Z</time></trkpt><trkpt lat="44.32526559553101" lon="10.770187698934288"><ele>840.1666666666666</ele><time>2026-04-18T13:16:04Z</time></trkpt><trkpt lat="44.325260553244476" lon="10.770046879610655"><ele>841.0</ele><time>2026-04-18T13:16:05Z</time></trkpt><trkpt lat="44.325270348059796" lon="10.7699204300745"><ele>841.75</ele><time>2026-04-18T13:16:06Z</time></trkpt><trkpt lat="44.32527474916328" lon="10.76976509306169"><ele>842.5</ele><time>2026-04-18T13:16:07Z</time></trkpt><trkpt lat="44.32528403215583" lon="10.769633995790624"><ele>843.25</ele><time>2026-04-18T13:16:08Z</time></trkpt><trkpt lat="44.32533872537941" lon="10.769469501756099"><ele>844.0</ele><time>2026-04-18T13:16:10Z</time></trkpt><trkpt lat="44.32540394872655" lon="10.76930510044545"><ele>844.0</ele><time>2026-04-18T13:16:12Z</time></trkpt><trkpt lat="44.32545080819308" lon="10.769195318906931"><ele>844.0</ele><time>2026-04-18T13:16:13Z</time></trkpt><trkpt lat="44.32552757488489" lon="10.768999400509808"><ele>844.0</ele><time>2026-04-18T13:16:14Z</time></trkpt><trkpt lat="44.32560915265185" lon="10.768769442966155"><ele>844.0</ele><time>2026-04-18T13:16:15Z</time></trkpt><trkpt lat="44.32568014244168" lon="10.768621476099844"><ele>845.8333333333333</ele><time>2026-04-18T13:16:16Z</time></trkpt><trkpt lat="44.32570523575433" lon="10.768496163539307"><ele>847.6666666666666</ele><time>2026-04-18T13:16:17Z</time></trkpt><trkpt lat="44.32573872823301" lon="10.76839069878064"><ele>849.5</ele><time>2026-04-18T13:16:18Z</time></trkpt><trkpt lat="44.32577507050114" lon="10.768280256524736"><ele>851.3333333333333</ele><time>2026-04-18T13:16:20Z</time></trkpt><trkpt lat="44.325773887973476" lon="10.768138517728277"><ele>853.1666666666666</ele><time>2026-04-18T13:16:22Z</time></trkpt><trkpt lat="44.32576377952177" lon="10.768025505873881"><ele>855.0</ele><time>2026-04-18T13:16:23Z</time></trkpt><trkpt lat="44.32574498086214" lon="10.767936387657471"><ele>855.0</ele><time>2026-04-18T13:16:24Z</time></trkpt><trkpt lat="44.32572986779494" lon="10.767809189217441"><ele>855.0</ele><time>2026-04-18T13:16:26Z</time></trkpt><trkpt lat="44.3257035226831" lon="10.767636059615292"><ele>855.0</ele><time>2026-04-18T13:16:27Z</time></trkpt><trkpt lat="44.325675323944274" lon="10.76753554394174"><ele>855.0</ele><time>2026-04-18T13:16:28Z</time></trkpt><trkpt lat="44.325653262477715" lon="10.767427277279182"><ele>855.0</ele><time>2026-04-18T13:16:29Z</time></trkpt><trkpt lat="44.325643196178774" lon="10.76731307386885"><ele>855.0</ele><time>2026-04-18T13:16:30Z</time></trkpt><trkpt lat="44.32561793525891" lon="10.767210934295756"><ele>855.0</ele><time>2026-04-18T13:16:31Z</time></trkpt><trkpt lat="44.32557154412339" lon="10.767122477475878"><ele>855.0</ele><time>2026-04-18T13:16:32Z</time></trkpt><trkpt lat="44.32552533673578" lon="10.767040427549583"><ele>855.0</ele><time>2026-04-18T13:16:33Z</time></trkpt><trkpt lat="44.32547290113169" lon="10.766986487864639"><ele>855.0</ele><time>2026-04-18T13:16:34Z</time></trkpt><trkpt lat="44.32541946604639" lon="10.766919190812242"><ele>855.0</ele><time>2026-04-18T13:16:35Z</time></trkpt><trkpt lat="44.32535515804028" lon="10.76685511394577"><ele>855.0</ele><time>2026-04-18T13:16:36Z</time></trkpt><trkpt lat="44.32528171176962" lon="10.766798856507954"><ele>855.4</ele><time>2026-04-18T13:16:37Z</time></trkpt><trkpt lat="44.32519832527304" lon="10.766748644079984"><ele>855.8</ele><time>2026-04-18T13:16:38Z</time></trkpt><trkpt lat="44.325106386974134" lon="10.766690327637143"><ele>856.2</ele><time>2026-04-18T13:16:39Z</time></trkpt><trkpt lat="44.32503504336671" lon="10.766642138631182"><ele>856.6</ele><time>2026-04-18T13:16:40Z</time></trkpt><trkpt lat="44.32496825780172" lon="10.766611227312906"><ele>857.0</ele><time>2026-04-18T13:16:41Z</time></trkpt><trkpt lat="44.324826458557276" lon="10.766595102105455"><ele>858.3333333333334</ele><time>2026-04-18T13:16:43Z</time></trkpt><trkpt lat="44.32472601264565" lon="10.766522465553019"><ele>859.6666666666667</ele><time>2026-04-18T13:16:45Z</time></trkpt><trkpt lat="44.32468161747939" lon="10.766456856078193"><ele>861.0</ele><time>2026-04-18T13:16:46Z</time></trkpt><trkpt lat="44.324612996502225" lon="10.76641368746462"><ele>862.3333333333333</ele><time>2026-04-18T13:16:47Z</time></trkpt><trkpt lat="44.324538879982036" lon="10.766421764309513"><ele>863.6666666666666</ele><time>2026-04-18T13:16:48Z</time></trkpt><trkpt lat="44.32446321761259" lon="10.766458798417352"><ele>865.0</ele><time>2026-04-18T13:16:49Z</time></trkpt><trkpt lat="44.3243662969694" lon="10.766513264373055"><ele>864.9999999999999</ele><time>2026-04-18T13:16:50Z</time></trkpt><trkpt lat="44.324289967544246" lon="10.766540326161513"><ele>865.0</ele><time>2026-04-18T13:16:51Z</time></trkpt><trkpt lat="44.32421631203" lon="10.76656792117001"><ele>865.0</ele><time>2026-04-18T13:16:52Z</time></trkpt><trkpt lat="44.3241418723793" lon="10.766576833073348"><ele>865.0</ele><time>2026-04-18T13:16:52.999Z</time></trkpt><trkpt lat="44.3240217992194" lon="10.766532845219993"><ele>864.9999999999999</ele><time>2026-04-18T13:16:54.999Z</time></trkpt><trkpt lat="44.323945977686655" lon="10.766494937515617"><ele>865.0</ele><time>2026-04-18T13:16:55.999Z</time></trkpt><trkpt lat="44.323841858118726" lon="10.766493660553314"><ele>865.9999999999999</ele><time>2026-04-18T13:16:57.999Z</time></trkpt><trkpt lat="44.323783296646056" lon="10.766459973405125"><ele>867.0</ele><time>2026-04-18T13:16:58.999Z</time></trkpt><trkpt lat="44.323717518664594" lon="10.766416156629726"><ele>868.0</ele><time>2026-04-18T13:16:59.999Z</time></trkpt><trkpt lat="44.323648143940304" lon="10.766418528783895"><ele>869.0</ele><time>2026-04-18T13:17:00.999Z</time></trkpt><trkpt lat="44.3235891648538" lon="10.766456716865685"><ele>869.9999999999999</ele><time>2026-04-18T13:17:01.999Z</time></trkpt><trkpt lat="44.32346180089013" lon="10.766486014695596"><ele>871.0</ele><time>2026-04-18T13:17:03.999Z</time></trkpt><trkpt lat="44.32336403147016" lon="10.766435628483599"><ele>870.9999999999999</ele><time>2026-04-18T13:17:05.999Z</time></trkpt><trkpt lat="44.32328973418713" lon="10.766400322026396"><ele>871.0</ele><time>2026-04-18T13:17:06.999Z</time></trkpt><trkpt lat="44.32323568644925" lon="10.766343259937969"><ele>871.0</ele><time>2026-04-18T13:17:08.999Z</time></trkpt><trkpt lat="44.32323193319241" lon="10.766191639742848"><ele>871.0</ele><time>2026-04-18T13:17:10.999Z</time></trkpt><trkpt lat="44.32320861945993" lon="10.766099520389272"><ele>870.9999999999999</ele><time>2026-04-18T13:17:11.999Z</time></trkpt><trkpt lat="44.323187089593674" lon="10.766008997730538"><ele>871.0</ele><time>2026-04-18T13:17:12.999Z</time></trkpt><trkpt lat="44.32313680707927" lon="10.765887376026718"><ele>871.8</ele><time>2026-04-18T13:17:14.999Z</time></trkpt><trkpt lat="44.32319532685361" lon="10.765803467668297"><ele>872.5999999999999</ele><time>2026-04-18T13:17:17.999Z</time></trkpt><trkpt lat="44.323297621153486" lon="10.765841517103127"><ele>873.4</ele><time>2026-04-18T13:17:25.999Z</time></trkpt><trkpt lat="44.32340956759173" lon="10.765905331583484"><ele>874.2</ele><time>2026-04-18T13:17:27.999Z</time></trkpt><trkpt lat="44.32348029685802" lon="10.765933253851834"><ele>875.0</ele><time>2026-04-18T13:17:28.999Z</time></trkpt><trkpt lat="44.323552588270786" lon="10.765950789001067"><ele>875.0</ele><time>2026-04-18T13:17:29.999Z</time></trkpt><trkpt lat="44.323628679944804" lon="10.765974649838661"><ele>875.0</ele><time>2026-04-18T13:17:30.999Z</time></trkpt><trkpt lat="44.3236947456802" lon="10.76600067768608"><ele>875.0</ele><time>2026-04-18T13:17:31.999Z</time></trkpt><trkpt lat="44.32375826830942" lon="10.766016338592527"><ele>875.0</ele><time>2026-04-18T13:17:32.999Z</time></trkpt><trkpt lat="44.32382334037104" lon="10.766015225220837"><ele>875.0</ele><time>2026-04-18T13:17:33.999Z</time></trkpt><trkpt lat="44.32389474547484" lon="10.76600346986607"><ele>875.0</ele><time>2026-04-18T13:17:34.999Z</time></trkpt><trkpt lat="44.32396632450316" lon="10.765979404690796"><ele>875.0</ele><time>2026-04-18T13:17:35.999Z</time></trkpt><trkpt lat="44.32405678460857" lon="10.765967899262428"><ele>876.0000000000001</ele><time>2026-04-18T13:17:37Z</time></trkpt><trkpt lat="44.32411818446137" lon="10.765940310691157"><ele>877.0</ele><time>2026-04-18T13:17:38Z</time></trkpt><trkpt lat="44.324251890231345" lon="10.765924023892328"><ele>878.0</ele><time>2026-04-18T13:17:40Z</time></trkpt><trkpt lat="44.324320169253106" lon="10.765880030720924"><ele>879.0</ele><time>2026-04-18T13:17:41Z</time></trkpt><trkpt lat="44.32438077127095" lon="10.765823234697129"><ele>880.0000000000001</ele><time>2026-04-18T13:17:42Z</time></trkpt><trkpt lat="44.32446389893417" lon="10.765777743649693"><ele>881.0</ele><time>2026-04-18T13:17:43Z</time></trkpt><trkpt lat="44.324524878971594" lon="10.765727867594787"><ele>881.0</ele><time>2026-04-18T13:17:44Z</time></trkpt><trkpt lat="44.324595144528004" lon="10.765645263908327"><ele>880.9999999999999</ele><time>2026-04-18T13:17:45Z</time></trkpt><trkpt lat="44.32468018888613" lon="10.765556793091529"><ele>880.9999999999999</ele><time>2026-04-18T13:17:46Z</time></trkpt><trkpt lat="44.324798804276064" lon="10.765523822073895"><ele>881.0</ele><time>2026-04-18T13:17:48Z</time></trkpt><trkpt lat="44.324891681209564" lon="10.765480194543128"><ele>881.0</ele><time>2026-04-18T13:17:49Z</time></trkpt><trkpt lat="44.32495726880998" lon="10.765454224715985"><ele>880.1666666666667</ele><time>2026-04-18T13:17:50Z</time></trkpt><trkpt lat="44.32502608358417" lon="10.765419181168719"><ele>879.3333333333334</ele><time>2026-04-18T13:17:51Z</time></trkpt><trkpt lat="44.32509793987721" lon="10.765350623495282"><ele>878.5</ele><time>2026-04-18T13:17:52Z</time></trkpt><trkpt lat="44.32516485216842" lon="10.765294493852963"><ele>877.6666666666667</ele><time>2026-04-18T13:17:53Z</time></trkpt><trkpt lat="44.32523003386214" lon="10.765269310868462"><ele>876.8333333333334</ele><time>2026-04-18T13:17:54Z</time></trkpt><trkpt lat="44.325352177542996" lon="10.765197818896397"><ele>876.0</ele><time>2026-04-18T13:17:56Z</time></trkpt><trkpt lat="44.32544258755272" lon="10.765095839431071"><ele>879.0</ele><time>2026-04-18T13:17:58Z</time></trkpt><trkpt lat="44.325549029754846" lon="10.764989425279989"><ele>882.0</ele><time>2026-04-18T13:18:00Z</time></trkpt><trkpt lat="44.32561978275192" lon="10.764965612787092"><ele>885.0</ele><time>2026-04-18T13:18:01Z</time></trkpt><trkpt lat="44.32569647316332" lon="10.764911197813486"><ele>888.0</ele><time>2026-04-18T13:18:03Z</time></trkpt><trkpt lat="44.325752738539244" lon="10.764848644021507"><ele>891.0</ele><time>2026-04-18T13:18:04Z</time></trkpt><trkpt lat="44.32583046728633" lon="10.764792595954633"><ele>894.0</ele><time>2026-04-18T13:18:05Z</time></trkpt><trkpt lat="44.32593604239105" lon="10.764735899785196"><ele>894.0</ele><time>2026-04-18T13:18:07Z</time></trkpt><trkpt lat="44.325999831848534" lon="10.76468734778358"><ele>894.0000000000001</ele><time>2026-04-18T13:18:08Z</time></trkpt><trkpt lat="44.32607203089557" lon="10.764587533027921"><ele>894.0000000000001</ele><time>2026-04-18T13:18:10Z</time></trkpt><trkpt lat="44.32609869623387" lon="10.764426597609852"><ele>894.0</ele><time>2026-04-18T13:18:12Z</time></trkpt><trkpt lat="44.326077804967746" lon="10.764271692165856"><ele>894.0</ele><time>2026-04-18T13:18:14Z</time></trkpt><trkpt lat="44.32607709144783" lon="10.764098041157895"><ele>895.8333333333334</ele><time>2026-04-18T13:18:16Z</time></trkpt><trkpt lat="44.32607310304205" lon="10.76400574631527"><ele>897.6666666666667</ele><time>2026-04-18T13:18:17Z</time></trkpt><trkpt lat="44.326063075543196" lon="10.763913674562868"><ele>899.5</ele><time>2026-04-18T13:18:18Z</time></trkpt><trkpt lat="44.32605535944331" lon="10.763825167926374"><ele>901.3333333333334</ele><time>2026-04-18T13:18:19Z</time></trkpt><trkpt lat="44.326036038278346" lon="10.763671467591239"><ele>903.1666666666667</ele><time>2026-04-18T13:18:21Z</time></trkpt><trkpt lat="44.326036960497255" lon="10.763564954062467"><ele>905.0</ele><time>2026-04-18T13:18:22Z</time></trkpt><trkpt lat="44.32604525131282" lon="10.763411515237738"><ele>906.5000000000001</ele><time>2026-04-18T13:18:24Z</time></trkpt><trkpt lat="44.32607446842346" lon="10.763300140764224"><ele>908.0</ele><time>2026-04-18T13:18:26Z</time></trkpt><trkpt lat="44.32611136920213" lon="10.763219518168825"><ele>909.5</ele><time>2026-04-18T13:18:27Z</time></trkpt><trkpt lat="44.32616529143906" lon="10.763140644804"><ele>911.0</ele><time>2026-04-18T13:18:28Z</time></trkpt><trkpt lat="44.32622542206905" lon="10.763068717796234"><ele>912.5000000000001</ele><time>2026-04-18T13:18:29Z</time></trkpt><trkpt lat="44.32628366415774" lon="10.763001827380373"><ele>914.0</ele><time>2026-04-18T13:18:30Z</time></trkpt><trkpt lat="44.32634318418181" lon="10.762945857546928"><ele>913.2</ele><time>2026-04-18T13:18:31Z</time></trkpt><trkpt lat="44.32646780122359" lon="10.762856299789552"><ele>912.4000000000001</ele><time>2026-04-18T13:18:33Z</time></trkpt><trkpt lat="44.32654852019962" lon="10.762814973785803"><ele>911.6</ele><time>2026-04-18T13:18:34Z</time></trkpt><trkpt lat="44.326621871440345" lon="10.762774335484261"><ele>910.8</ele><time>2026-04-18T13:18:35Z</time></trkpt><trkpt lat="44.32668473002644" lon="10.762717872624256"><ele>910.0</ele><time>2026-04-18T13:18:36Z</time></trkpt><trkpt lat="44.32677553674474" lon="10.762611534412438"><ele>910.0</ele><time>2026-04-18T13:18:38Z</time></trkpt><trkpt lat="44.32681836466092" lon="10.762469231838367"><ele>910.0</ele><time>2026-04-18T13:18:40Z</time></trkpt><trkpt lat="44.32684267930221" lon="10.762334503114662"><ele>910.0</ele><time>2026-04-18T13:18:42Z</time></trkpt><trkpt lat="44.32685054903132" lon="10.7622009626532"><ele>910.0</ele><time>2026-04-18T13:18:44Z</time></trkpt><trkpt lat="44.32685730039214" lon="10.762071384572776"><ele>910.0</ele><time>2026-04-18T13:18:46Z</time></trkpt><trkpt lat="44.326876686990566" lon="10.761956686817944"><ele>910.6666666666666</ele><time>2026-04-18T13:18:49Z</time></trkpt><trkpt lat="44.32689281798979" lon="10.761850232169893"><ele>911.3333333333333</ele><time>2026-04-18T13:18:51Z</time></trkpt><trkpt lat="44.32689664872713" lon="10.761718465350677"><ele>912.0</ele><time>2026-04-18T13:18:53Z</time></trkpt><trkpt lat="44.32690617323948" lon="10.761615192610295"><ele>912.6666666666667</ele><time>2026-04-18T13:18:54.999Z</time></trkpt><trkpt lat="44.326922159612494" lon="10.76147862674587"><ele>913.3333333333334</ele><time>2026-04-18T13:18:56.999Z</time></trkpt><trkpt lat="44.32693874369205" lon="10.761346190934958"><ele>914.0</ele><time>2026-04-18T13:18:58.999Z</time></trkpt><trkpt lat="44.32696848187889" lon="10.761262804774395"><ele>914.0000000000001</ele><time>2026-04-18T13:19:00.999Z</time></trkpt><trkpt lat="44.32706230002967" lon="10.7612199616733"><ele>914.0</ele><time>2026-04-18T13:19:02.999Z</time></trkpt><trkpt lat="44.32715290464313" lon="10.761213595079722"><ele>914.0</ele><time>2026-04-18T13:19:04.999Z</time></trkpt><trkpt lat="44.327193086144895" lon="10.761283150282438"><ele>914.0</ele><time>2026-04-18T13:19:05.999Z</time></trkpt><trkpt lat="44.32719328420251" lon="10.761371919682029"><ele>914.0000000000001</ele><time>2026-04-18T13:19:06.999Z</time></trkpt><trkpt lat="44.327173249868" lon="10.761496751809894"><ele>914.0</ele><time>2026-04-18T13:19:08.999Z</time></trkpt><trkpt lat="44.32718640058411" lon="10.76159873661155"><ele>910.0</ele><time>2026-04-18T13:19:10.999Z</time></trkpt><trkpt lat="44.327274230401656" lon="10.76160244394051"><ele>906.0000000000001</ele><time>2026-04-18T13:19:13.999Z</time></trkpt><trkpt lat="44.32738490630436" lon="10.761591699514724"><ele>902.0000000000001</ele><time>2026-04-18T13:19:15.999Z</time></trkpt><trkpt lat="44.327486530697406" lon="10.761456879626014"><ele>898.0</ele><time>2026-04-18T13:19:17.999Z</time></trkpt><trkpt lat="44.32753762505796" lon="10.761370065294736"><ele>894.0</ele><time>2026-04-18T13:19:18.999Z</time></trkpt><trkpt lat="44.327603784799784" lon="10.761271640679874"><ele>894.0</ele><time>2026-04-18T13:19:20.999Z</time></trkpt><trkpt lat="44.327657613854164" lon="10.761162205050296"><ele>894.0000000000001</ele><time>2026-04-18T13:19:22.999Z</time></trkpt><trkpt lat="44.327759795425735" lon="10.761078774553427"><ele>894.0000000000001</ele><time>2026-04-18T13:19:24.999Z</time></trkpt><trkpt lat="44.327865659978414" lon="10.761017325954391"><ele>894.0</ele><time>2026-04-18T13:19:25.999Z</time></trkpt><trkpt lat="44.32794320030425" lon="10.760966535397413"><ele>894.0</ele><time>2026-04-18T13:19:26.999Z</time></trkpt><trkpt lat="44.32800576935476" lon="10.76088021121759"><ele>891.3333333333334</ele><time>2026-04-18T13:19:28.999Z</time></trkpt><trkpt lat="44.327997346327045" lon="10.760771493318511"><ele>888.6666666666667</ele><time>2026-04-18T13:19:31.999Z</time></trkpt><trkpt lat="44.3279968595116" lon="10.76065410531372"><ele>886.0</ele><time>2026-04-18T13:19:34.999Z</time></trkpt><trkpt lat="44.3279628370912" lon="10.760554163900732"><ele>883.3333333333334</ele><time>2026-04-18T13:19:36.999Z</time></trkpt><trkpt lat="44.32801256276045" lon="10.760459150384635"><ele>880.6666666666667</ele><time>2026-04-18T13:19:39.999Z</time></trkpt><trkpt lat="44.32800042613986" lon="10.760365561346125"><ele>878.0</ele><time>2026-04-18T13:19:43Z</time></trkpt><trkpt lat="44.32793684367287" lon="10.760359496396292"><ele>878.0000000000001</ele><time>2026-04-18T13:19:45Z</time></trkpt><trkpt lat="44.32788995938198" lon="10.760299081146348"><ele>878.0</ele><time>2026-04-18T13:19:47Z</time></trkpt><trkpt lat="44.32782981877277" lon="10.76021728796467"><ele>878.0</ele><time>2026-04-18T13:19:50Z</time></trkpt><trkpt lat="44.32784494916966" lon="10.76010431977824"><ele>878.0</ele><time>2026-04-18T13:19:53Z</time></trkpt><trkpt lat="44.32789557415543" lon="10.760045631943758"><ele>878.0000000000001</ele><time>2026-04-18T13:19:57Z</time></trkpt><trkpt lat="44.32792853759952" lon="10.759927396194154"><ele>878.0</ele><time>2026-04-18T13:20:03Z</time></trkpt><trkpt lat="44.32795490581598" lon="10.759842846025876"><ele>874.6666666666667</ele><time>2026-04-18T13:20:06Z</time></trkpt><trkpt lat="44.32794846247532" lon="10.759733570037847"><ele>871.3333333333334</ele><time>2026-04-18T13:20:10Z</time></trkpt><trkpt lat="44.327880815257124" lon="10.75967109934723"><ele>868.0</ele><time>2026-04-18T13:20:13Z</time></trkpt><trkpt lat="44.32781142158722" lon="10.759648435627831"><ele>864.6666666666667</ele><time>2026-04-18T13:20:15Z</time></trkpt><trkpt lat="44.327735669237825" lon="10.759664887540294"><ele>861.3333333333334</ele><time>2026-04-18T13:20:18Z</time></trkpt><trkpt lat="44.327672196386" lon="10.75966721141049"><ele>858.0</ele><time>2026-04-18T13:20:21Z</time></trkpt><trkpt lat="44.32758782184008" lon="10.759641992800452"><ele>858.0</ele><time>2026-04-18T13:20:29Z</time></trkpt><trkpt lat="44.32751480315388" lon="10.759648147024599"><ele>858.0</ele><time>2026-04-18T13:20:32Z</time></trkpt><trkpt lat="44.32747671833104" lon="10.759573520795616"><ele>858.0</ele><time>2026-04-18T13:20:34Z</time></trkpt><trkpt lat="44.327470775886766" lon="10.759470406935957"><ele>858.0</ele><time>2026-04-18T13:20:39Z</time></trkpt><trkpt lat="44.327545036125656" lon="10.759405918269893"><ele>858.0</ele><time>2026-04-18T13:20:42Z</time></trkpt><trkpt lat="44.32758786469124" lon="10.759310058922116"><ele>858.0</ele><time>2026-04-18T13:20:46Z</time></trkpt><trkpt lat="44.32761283797935" lon="10.759213931789844"><ele>858.0</ele><time>2026-04-18T13:20:49Z</time></trkpt><trkpt lat="44.32754428943042" lon="10.75913763541554"><ele>858.0</ele><time>2026-04-18T13:20:52.999Z</time></trkpt><trkpt lat="44.327462099986136" lon="10.759165365531526"><ele>858.0</ele><time>2026-04-18T13:20:55.999Z</time></trkpt><trkpt lat="44.32739896370451" lon="10.759072958874066"><ele>858.0</ele><time>2026-04-18T13:20:59.999Z</time></trkpt><trkpt lat="44.32732812530051" lon="10.759062483054532"><ele>858.0</ele><time>2026-04-18T13:21:02.999Z</time></trkpt><trkpt lat="44.32726213795702" lon="10.759024826807664"><ele>858.0</ele><time>2026-04-18T13:21:06.999Z</time></trkpt><trkpt lat="44.32719600365357" lon="10.759031130887825"><ele>852.5</ele><time>2026-04-18T13:21:09.999Z</time></trkpt><trkpt lat="44.32730634157639" lon="10.758991581347738"><ele>847.0</ele><time>2026-04-18T13:21:19.999Z</time></trkpt><trkpt lat="44.32738045489819" lon="10.75903163301298"><ele>841.5</ele><time>2026-04-18T13:21:23.999Z</time></trkpt><trkpt lat="44.327450499167746" lon="10.759107661568203"><ele>836.0</ele><time>2026-04-18T13:21:25.999Z</time></trkpt><trkpt lat="44.32757323343673" lon="10.759314434040267"><ele>836.0</ele><time>2026-04-18T13:21:35.999Z</time></trkpt><trkpt lat="44.327641812842536" lon="10.759333432141677"><ele>836.0</ele><time>2026-04-18T13:21:38.999Z</time></trkpt><trkpt lat="44.327719147260815" lon="10.759331898706908"><ele>836.0</ele><time>2026-04-18T13:21:47.999Z</time></trkpt><trkpt lat="44.32765682284147" lon="10.759348806659073"><ele>836.0</ele><time>2026-04-18T13:22:02Z</time></trkpt><trkpt lat="44.32760192646164" lon="10.759299605750453"><ele>836.0</ele><time>2026-04-18T13:22:14Z</time></trkpt><trkpt lat="44.327617919163146" lon="10.759203102539226"><ele>836.0</ele><time>2026-04-18T13:22:22Z</time></trkpt><trkpt lat="44.32758534264846" lon="10.759114492107626"><ele>836.0</ele><time>2026-04-18T13:22:26Z</time></trkpt><trkpt lat="44.327502574078636" lon="10.759029512686226"><ele>836.0000000000001</ele><time>2026-04-18T13:23:13.999Z</time></trkpt><trkpt lat="44.32745725464609" lon="10.759091903559957"><ele>836.0</ele><time>2026-04-18T13:23:23.999Z</time></trkpt><trkpt lat="44.3273921047598" lon="10.759032494921728"><ele>836.0</ele><time>2026-04-18T13:23:27.999Z</time></trkpt><trkpt lat="44.32730344711853" lon="10.759018912288306"><ele>836.0</ele><time>2026-04-18T13:23:31.999Z</time></trkpt><trkpt lat="44.327231458498254" lon="10.758999610489107"><ele>836.0000000000001</ele><time>2026-04-18T13:23:34.999Z</time></trkpt><trkpt lat="44.32717089722011" lon="10.758957740026094"><ele>836.0</ele><time>2026-04-18T13:23:40.999Z</time></trkpt><trkpt lat="44.32723580042842" lon="10.75887633532292"><ele>836.0</ele><time>2026-04-18T13:23:44.999Z</time></trkpt><trkpt lat="44.32729702913959" lon="10.75885115333554"><ele>836.0</ele><time>2026-04-18T13:23:46.999Z</time></trkpt><trkpt lat="44.32732229776848" lon="10.758762145460135"><ele>836.0</ele><time>2026-04-18T13:25:57.999Z</time></trkpt><trkpt lat="44.327413285253435" lon="10.758719542515522"><ele>836.0</ele><time>2026-04-18T13:26:05Z</time></trkpt><trkpt lat="44.3274837837353" lon="10.758679589279858"><ele>836.0</ele><time>2026-04-18T13:26:07Z</time></trkpt><trkpt lat="44.32767504489348" lon="10.758680614775372"><ele>836.0</ele><time>2026-04-18T13:26:18Z</time></trkpt><trkpt lat="44.3278292539173" lon="10.758684186873447"><ele>836.0</ele><time>2026-04-18T13:26:32Z</time></trkpt><trkpt lat="44.32789256330542" lon="10.758743050154344"><ele>836.0</ele><time>2026-04-18T13:26:36Z</time></trkpt><trkpt lat="44.327839381698304" lon="10.758663753150506"><ele>836.0</ele><time>2026-04-18T13:26:48Z</time></trkpt><trkpt lat="44.32781025451785" lon="10.758554025026699"><ele>836.0</ele><time>2026-04-18T13:26:53Z</time></trkpt><trkpt lat="44.32778065242206" lon="10.75846451274414"><ele>833.2857142857142</ele><time>2026-04-18T13:27:00Z</time></trkpt><trkpt lat="44.32777639207541" lon="10.758366069027481"><ele>830.5714285714286</ele><time>2026-04-18T13:27:06Z</time></trkpt><trkpt lat="44.32773267077361" lon="10.758277913644537"><ele>827.8571428571429</ele><time>2026-04-18T13:27:14Z</time></trkpt><trkpt lat="44.32771262437066" lon="10.7581838368944"><ele>825.1428571428571</ele><time>2026-04-18T13:27:18Z</time></trkpt><trkpt lat="44.32769038984143" lon="10.758095338989143"><ele>822.4285714285714</ele><time>2026-04-18T13:27:22Z</time></trkpt><trkpt lat="44.3276712731048" lon="10.757987766474104"><ele>819.7142857142857</ele><time>2026-04-18T13:27:26Z</time></trkpt><trkpt lat="44.32766563391386" lon="10.75789816294778"><ele>817.0</ele><time>2026-04-18T13:27:39.999Z</time></trkpt><trkpt lat="44.32765215235107" lon="10.757789704837895"><ele>816.9999999999999</ele><time>2026-04-18T13:27:50.999Z</time></trkpt><trkpt lat="44.32764236906858" lon="10.757688138305"><ele>817.0</ele><time>2026-04-18T13:27:53.999Z</time></trkpt><trkpt lat="44.32765811896911" lon="10.757596949522776"><ele>817.0</ele><time>2026-04-18T13:27:59.999Z</time></trkpt><trkpt lat="44.327644320143335" lon="10.75769838392303"><ele>817.0</ele><time>2026-04-18T13:28:18Z</time></trkpt><trkpt lat="44.32766488829623" lon="10.75784895852722"><ele>816.9999999999999</ele><time>2026-04-18T13:28:21Z</time></trkpt><trkpt lat="44.327691508193844" lon="10.757941029707663"><ele>817.0</ele><time>2026-04-18T13:28:24Z</time></trkpt><trkpt lat="44.32769423844449" lon="10.758077120866012"><ele>816.9999999999999</ele><time>2026-04-18T13:28:27Z</time></trkpt><trkpt lat="44.32776211875778" lon="10.758088704655606"><ele>817.0</ele><time>2026-04-18T13:28:43Z</time></trkpt><trkpt lat="44.327746267392996" lon="10.758001247840866"><ele>817.0</ele><time>2026-04-18T13:28:49Z</time></trkpt><trkpt lat="44.327700756694256" lon="10.757919852560699"><ele>817.0</ele><time>2026-04-18T13:28:53Z</time></trkpt><trkpt lat="44.32771339148295" lon="10.757823194012005"><ele>817.0</ele><time>2026-04-18T13:28:57Z</time></trkpt><trkpt lat="44.32777759496678" lon="10.75786433199483"><ele>816.9999999999999</ele><time>2026-04-18T13:29:14.999Z</time></trkpt><trkpt lat="44.3277464384638" lon="10.757782428838443"><ele>817.0</ele><time>2026-04-18T13:30:15Z</time></trkpt><trkpt lat="44.32773821893484" lon="10.757693368462474"><ele>814.8571428571428</ele><time>2026-04-18T13:30:23Z</time></trkpt><trkpt lat="44.32767551787968" lon="10.757679281616767"><ele>812.7142857142857</ele><time>2026-04-18T13:30:33Z</time></trkpt><trkpt lat="44.32765480567795" lon="10.757566476872217"><ele>810.5714285714286</ele><time>2026-04-18T13:30:40Z</time></trkpt><trkpt lat="44.32765294392142" lon="10.757464730644735"><ele>808.4285714285713</ele><time>2026-04-18T13:31:43.999Z</time></trkpt><trkpt lat="44.32759769910051" lon="10.757412248336111"><ele>806.2857142857143</ele><time>2026-04-18T13:31:50.999Z</time></trkpt><trkpt lat="44.327646550199745" lon="10.757471351682579"><ele>804.1428571428571</ele><time>2026-04-18T13:32:43Z</time></trkpt><trkpt lat="44.32765640409738" lon="10.757568549670133"><ele>802.0</ele><time>2026-04-18T13:32:57.999Z</time></trkpt><trkpt lat="44.32764958739434" lon="10.757665196842154"><ele>804.4999999999999</ele><time>2026-04-18T13:33:00.999Z</time></trkpt><trkpt lat="44.32767422036123" lon="10.757798229532408"><ele>807.0</ele><time>2026-04-18T13:33:03.999Z</time></trkpt><trkpt lat="44.327681493046796" lon="10.757896690428952"><ele>809.5</ele><time>2026-04-18T13:33:05.999Z</time></trkpt><trkpt lat="44.327684110784745" lon="10.758022244492764"><ele>812.0</ele><time>2026-04-18T13:33:07.999Z</time></trkpt><trkpt lat="44.32771546942104" lon="10.758120271507588"><ele>814.4999999999999</ele><time>2026-04-18T13:33:09.999Z</time></trkpt><trkpt lat="44.327732063449965" lon="10.758212298719094"><ele>817.0</ele><time>2026-04-18T13:33:12.999Z</time></trkpt><trkpt lat="44.327777256238704" lon="10.758279833152335"><ele>816.9999999999999</ele><time>2026-04-18T13:33:14.999Z</time></trkpt><trkpt lat="44.32778993910318" lon="10.758371884116777"><ele>817.0</ele><time>2026-04-18T13:33:17.999Z</time></trkpt><trkpt lat="44.32779894322876" lon="10.75847525514026"><ele>817.0</ele><time>2026-04-18T13:33:21.999Z</time></trkpt><trkpt lat="44.327841927182234" lon="10.758573866237567"><ele>817.0</ele><time>2026-04-18T13:33:33.999Z</time></trkpt><trkpt lat="44.32793210365754" lon="10.758546990847478"><ele>816.9999999999999</ele><time>2026-04-18T13:35:09.999Z</time></trkpt><trkpt lat="44.32799632664993" lon="10.758539773871044"><ele>817.0</ele><time>2026-04-18T13:35:44.999Z</time></trkpt><trkpt lat="44.328082421003174" lon="10.75846327180351"><ele>816.8571428571428</ele><time>2026-04-18T13:35:55.999Z</time></trkpt><trkpt lat="44.32814224804202" lon="10.758417353521073"><ele>816.7142857142857</ele><time>2026-04-18T13:36:12.998Z</time></trkpt><trkpt lat="44.328190935291005" lon="10.758355119863044"><ele>816.5714285714286</ele><time>2026-04-18T13:36:16.998Z</time></trkpt><trkpt lat="44.328252572362395" lon="10.758326483531295"><ele>816.4285714285713</ele><time>2026-04-18T13:36:27.998Z</time></trkpt><trkpt lat="44.32829349327452" lon="10.758246906810845"><ele>816.2857142857143</ele><time>2026-04-18T13:36:56Z</time></trkpt><trkpt lat="44.32836831365702" lon="10.758303758590126"><ele>816.1428571428571</ele><time>2026-04-18T13:37:00.999Z</time></trkpt><trkpt lat="44.32829945871699" lon="10.758276383701778"><ele>816.0</ele><time>2026-04-18T13:37:07.999Z</time></trkpt><trkpt lat="44.32824244387657" lon="10.758331582449301"><ele>816.0</ele><time>2026-04-18T13:37:11.999Z</time></trkpt><trkpt lat="44.328185261431585" lon="10.75838238702485"><ele>816.0</ele><time>2026-04-18T13:37:25.999Z</time></trkpt><trkpt lat="44.32813280051542" lon="10.758436857494965"><ele>816.0</ele><time>2026-04-18T13:37:33.999Z</time></trkpt><trkpt lat="44.328105199823476" lon="10.75835481815702"><ele>816.0</ele><time>2026-04-18T13:37:42.999Z</time></trkpt><trkpt lat="44.32810249784448" lon="10.75824678215931"><ele>816.0</ele><time>2026-04-18T13:37:51.999Z</time></trkpt><trkpt lat="44.32808723585291" lon="10.758145989547886"><ele>816.0</ele><time>2026-04-18T13:38:01.999Z</time></trkpt><trkpt lat="44.328020820520955" lon="10.75808874208455"><ele>816.0</ele><time>2026-04-18T13:38:07.999Z</time></trkpt><trkpt lat="44.328092385439966" lon="10.758078747553888"><ele>816.0</ele><time>2026-04-18T13:38:51Z</time></trkpt><trkpt lat="44.328100135141895" lon="10.75816891477367"><ele>816.0</ele><time>2026-04-18T13:38:54Z</time></trkpt><trkpt lat="44.3281117832292" lon="10.758271656126915"><ele>816.0</ele><time>2026-04-18T13:39:09.999Z</time></trkpt><trkpt lat="44.328176415310594" lon="10.758319594239813"><ele>816.0</ele><time>2026-04-18T13:39:28.999Z</time></trkpt><trkpt lat="44.32809664128159" lon="10.758303293072345"><ele>816.0</ele><time>2026-04-18T13:39:39.999Z</time></trkpt><trkpt lat="44.328137227654665" lon="10.758374514306933"><ele>816.0</ele><time>2026-04-18T13:39:44.999Z</time></trkpt><trkpt lat="44.32820164246456" lon="10.758384875298969"><ele>816.0</ele><time>2026-04-18T13:39:55.999Z</time></trkpt><trkpt lat="44.32827406656334" lon="10.758371741127792"><ele>816.0</ele><time>2026-04-18T13:40:03.999Z</time></trkpt><trkpt lat="44.32833740723109" lon="10.758379114824551"><ele>816.0</ele><time>2026-04-18T13:40:55Z</time></trkpt><trkpt lat="44.32826818234622" lon="10.758400065328425"><ele>816.0</ele><time>2026-04-18T13:41:08.999Z</time></trkpt><trkpt lat="44.32821481369409" lon="10.7584487669868"><ele>816.0</ele><time>2026-04-18T13:41:17.999Z</time></trkpt><trkpt lat="44.3281530310374" lon="10.758480234141826"><ele>816.0</ele><time>2026-04-18T13:41:27.998Z</time></trkpt><trkpt lat="44.328087333649364" lon="10.758500341016001"><ele>816.0</ele><time>2026-04-18T13:41:33.998Z</time></trkpt><trkpt lat="44.328069929619346" lon="10.758587465111866"><ele>816.0</ele><time>2026-04-18T13:43:45.999Z</time></trkpt><trkpt lat="44.32809926126545" lon="10.758674003685588"><ele>816.0</ele><time>2026-04-18T13:44:07.999Z</time></trkpt><trkpt lat="44.32813040189485" lon="10.758765322478402"><ele>816.0</ele><time>2026-04-18T13:44:11.999Z</time></trkpt><trkpt lat="44.328071207140056" lon="10.758696074148107"><ele>816.0</ele><time>2026-04-18T13:44:18.999Z</time></trkpt><trkpt lat="44.32803113709386" lon="10.758604253478506"><ele>816.0</ele><time>2026-04-18T13:44:34.998Z</time></trkpt><trkpt lat="44.32797850885514" lon="10.758535511892829"><ele>816.0</ele><time>2026-04-18T13:45:14.999Z</time></trkpt><trkpt lat="44.32805596344658" lon="10.758479199633262"><ele>816.0</ele><time>2026-04-18T13:45:29.999Z</time></trkpt><trkpt lat="44.32811209372588" lon="10.758424317935267"><ele>816.0</ele><time>2026-04-18T13:45:49.999Z</time></trkpt><trkpt lat="44.32807833546322" lon="10.758335515253595"><ele>816.0</ele><time>2026-04-18T13:45:56.999Z</time></trkpt><trkpt lat="44.32801110146879" lon="10.758332633492428"><ele>816.0</ele><time>2026-04-18T13:46:08.999Z</time></trkpt><trkpt lat="44.328013887145154" lon="10.75823548296528"><ele>816.0</ele><time>2026-04-18T13:46:16.999Z</time></trkpt><trkpt lat="44.32801748950331" lon="10.758132715259592"><ele>816.0</ele><time>2026-04-18T13:46:20.999Z</time></trkpt><trkpt lat="44.32798196813733" lon="10.75805010234389"><ele>816.0</ele><time>2026-04-18T13:46:26.998Z</time></trkpt><trkpt lat="44.3280196522696" lon="10.75796529088997"><ele>816.0</ele><time>2026-04-18T13:46:32.998Z</time></trkpt><trkpt lat="44.32802532033457" lon="10.757858219853254"><ele>816.1428571428571</ele><time>2026-04-18T13:47:04.999Z</time></trkpt><trkpt lat="44.32798835727739" lon="10.757779445928835"><ele>816.2857142857143</ele><time>2026-04-18T13:47:09.999Z</time></trkpt><trkpt lat="44.32796510270129" lon="10.757690692481512"><ele>816.4285714285713</ele><time>2026-04-18T13:47:15.999Z</time></trkpt><trkpt lat="44.327964872808565" lon="10.757602231220964"><ele>816.5714285714286</ele><time>2026-04-18T13:47:31.999Z</time></trkpt><trkpt lat="44.32789351543292" lon="10.757604869190489"><ele>816.7142857142857</ele><time>2026-04-18T13:47:41.999Z</time></trkpt><trkpt lat="44.32786426609776" lon="10.757512339751806"><ele>816.8571428571428</ele><time>2026-04-18T13:47:49.999Z</time></trkpt><trkpt lat="44.32781760624493" lon="10.757446213343602"><ele>817.0</ele><time>2026-04-18T13:47:57.999Z</time></trkpt><trkpt lat="44.32789496299762" lon="10.757464159415933"><ele>816.9999999999999</ele><time>2026-04-18T13:48:25Z</time></trkpt><trkpt lat="44.32795958990925" lon="10.757454706941115"><ele>817.0</ele><time>2026-04-18T13:48:30Z</time></trkpt><trkpt lat="44.32801658311605" lon="10.75740784958741"><ele>817.0</ele><time>2026-04-18T13:48:36.999Z</time></trkpt><trkpt lat="44.327979918683425" lon="10.75748928825141"><ele>817.0</ele><time>2026-04-18T13:50:27Z</time></trkpt><trkpt lat="44.32790787674991" lon="10.757497352322627"><ele>817.0</ele><time>2026-04-18T13:50:35.999Z</time></trkpt><trkpt lat="44.32794879930225" lon="10.757577150586105"><ele>816.9999999999999</ele><time>2026-04-18T13:50:41.999Z</time></trkpt><trkpt lat="44.32795976399401" lon="10.757668044065497"><ele>817.0</ele><time>2026-04-18T13:51:09Z</time></trkpt><trkpt lat="44.32797944530774" lon="10.75775383082623"><ele>816.9999999999999</ele><time>2026-04-18T13:51:17Z</time></trkpt><trkpt lat="44.32805201112124" lon="10.757801710385957"><ele>817.0</ele><time>2026-04-18T13:51:28Z</time></trkpt><trkpt lat="44.32813047255957" lon="10.757846533588879"><ele>817.0</ele><time>2026-04-18T13:51:31Z</time></trkpt><trkpt lat="44.32817357895562" lon="10.75791085478239"><ele>817.0</ele><time>2026-04-18T13:51:33Z</time></trkpt><trkpt lat="44.32820101415113" lon="10.75801387002908"><ele>816.9999999999999</ele><time>2026-04-18T13:51:49Z</time></trkpt><trkpt lat="44.328161929795826" lon="10.758090786459178"><ele>817.0</ele><time>2026-04-18T13:51:52Z</time></trkpt><trkpt lat="44.32810923922808" lon="10.758194574558717"><ele>816.9999999999999</ele><time>2026-04-18T13:52:03Z</time></trkpt><trkpt lat="44.32808170193082" lon="10.758281690916535"><ele>817.0</ele><time>2026-04-18T13:52:06Z</time></trkpt><trkpt lat="44.32812123727962" lon="10.758394948210189"><ele>817.0</ele><time>2026-04-18T13:52:20Z</time></trkpt><trkpt lat="44.32809416691462" lon="10.75848901036645"><ele>817.0</ele><time>2026-04-18T13:52:32Z</time></trkpt><trkpt lat="44.328036176719195" lon="10.758533626187548"><ele>817.0</ele><time>2026-04-18T13:52:36Z</time></trkpt><trkpt lat="44.327973800466005" lon="10.75854812044585"><ele>816.9999999999999</ele><time>2026-04-18T13:52:39.999Z</time></trkpt><trkpt lat="44.32790558661202" lon="10.758587257919258"><ele>817.0</ele><time>2026-04-18T13:52:45.999Z</time></trkpt><trkpt lat="44.32784817195365" lon="10.758628203181289"><ele>820.1666666666666</ele><time>2026-04-18T13:52:48.999Z</time></trkpt><trkpt lat="44.32775917222514" lon="10.758645644975058"><ele>823.3333333333333</ele><time>2026-04-18T13:52:51.999Z</time></trkpt><trkpt lat="44.32766880503607" lon="10.758658182963586"><ele>826.5</ele><time>2026-04-18T13:52:53.999Z</time></trkpt><trkpt lat="44.32757980193554" lon="10.75866772817338"><ele>829.6666666666667</ele><time>2026-04-18T13:52:55.999Z</time></trkpt><trkpt lat="44.327517472750344" lon="10.758680533473132"><ele>832.8333333333334</ele><time>2026-04-18T13:52:57.999Z</time></trkpt><trkpt lat="44.32745929840813" lon="10.75872214034503"><ele>836.0</ele><time>2026-04-18T13:53:00.999Z</time></trkpt><trkpt lat="44.32737341704166" lon="10.758749792730255"><ele>836.0</ele><time>2026-04-18T13:53:02.999Z</time></trkpt><trkpt lat="44.32734079129124" lon="10.758838746401791"><ele>836.0</ele><time>2026-04-18T13:53:43Z</time></trkpt><trkpt lat="44.32727878825757" lon="10.758870374441887"><ele>836.0</ele><time>2026-04-18T13:53:57Z</time></trkpt><trkpt lat="44.32721167872292" lon="10.758907679983963"><ele>836.0</ele><time>2026-04-18T13:53:59Z</time></trkpt><trkpt lat="44.327246483528285" lon="10.758990565023314"><ele>836.0</ele><time>2026-04-18T13:54:02Z</time></trkpt><trkpt lat="44.327313109986186" lon="10.758986345842649"><ele>836.0</ele><time>2026-04-18T13:54:04Z</time></trkpt><trkpt lat="44.327388435842614" lon="10.759022566552499"><ele>836.0</ele><time>2026-04-18T13:54:07Z</time></trkpt><trkpt lat="44.32744938895269" lon="10.759088190018243"><ele>836.0</ele><time>2026-04-18T13:54:09Z</time></trkpt><trkpt lat="44.32754437477123" lon="10.75908182733582"><ele>836.0</ele><time>2026-04-18T13:54:12Z</time></trkpt><trkpt lat="44.32759274142924" lon="10.759144737224737"><ele>836.0</ele><time>2026-04-18T13:54:15Z</time></trkpt><trkpt lat="44.3275898655765" lon="10.759244514701825"><ele>836.0</ele><time>2026-04-18T13:54:17Z</time></trkpt><trkpt lat="44.327558644405414" lon="10.759328716707364"><ele>836.0</ele><time>2026-04-18T13:54:19Z</time></trkpt><trkpt lat="44.32749722268324" lon="10.759384297614382"><ele>836.0</ele><time>2026-04-18T13:54:23Z</time></trkpt><trkpt lat="44.32745182273172" lon="10.75945677630385"><ele>836.0</ele><time>2026-04-18T13:54:25Z</time></trkpt><trkpt lat="44.32747728741861" lon="10.759561738735474"><ele>840.4</ele><time>2026-04-18T13:54:27Z</time></trkpt><trkpt lat="44.32752716170877" lon="10.759622480607321"><ele>844.8</ele><time>2026-04-18T13:54:32Z</time></trkpt><trkpt lat="44.327642519138465" lon="10.759610700816495"><ele>849.1999999999999</ele><time>2026-04-18T13:54:35Z</time></trkpt><trkpt lat="44.327740787191715" lon="10.759635008294952"><ele>853.5999999999999</ele><time>2026-04-18T13:54:38Z</time></trkpt><trkpt lat="44.327816718659605" lon="10.75961072336746"><ele>858.0</ele><time>2026-04-18T13:54:39.999Z</time></trkpt><trkpt lat="44.32792579722678" lon="10.759643655689112"><ele>858.0</ele><time>2026-04-18T13:54:42.999Z</time></trkpt><trkpt lat="44.327952333589565" lon="10.759724881786665"><ele>858.0</ele><time>2026-04-18T13:54:45.999Z</time></trkpt><trkpt lat="44.32793352166965" lon="10.75981109700379"><ele>858.0</ele><time>2026-04-18T13:54:48.999Z</time></trkpt><trkpt lat="44.32792310345468" lon="10.75991760020302"><ele>858.0</ele><time>2026-04-18T13:55:04.999Z</time></trkpt><trkpt lat="44.32787548949038" lon="10.760012769837648"><ele>858.0</ele><time>2026-04-18T13:55:07.999Z</time></trkpt><trkpt lat="44.32782077933609" lon="10.760103619522758"><ele>858.0</ele><time>2026-04-18T13:55:10.999Z</time></trkpt><trkpt lat="44.3278489248184" lon="10.760214116235742"><ele>861.3333333333334</ele><time>2026-04-18T13:55:14.999Z</time></trkpt><trkpt lat="44.32792511014465" lon="10.760285388188167"><ele>864.6666666666667</ele><time>2026-04-18T13:55:25Z</time></trkpt><trkpt lat="44.32798473769116" lon="10.760323161128104"><ele>868.0</ele><time>2026-04-18T13:55:27Z</time></trkpt><trkpt lat="44.32803379640337" lon="10.760393699003227"><ele>871.3333333333334</ele><time>2026-04-18T13:55:30Z</time></trkpt><trkpt lat="44.327993453287085" lon="10.76047349225193"><ele>874.6666666666667</ele><time>2026-04-18T13:55:32Z</time></trkpt><trkpt lat="44.32797420913802" lon="10.76059037361526"><ele>878.0</ele><time>2026-04-18T13:55:35Z</time></trkpt><trkpt lat="44.3280106079021" lon="10.760720119255241"><ele>878.0</ele><time>2026-04-18T13:55:37Z</time></trkpt><trkpt lat="44.32798237010262" lon="10.76080297022652"><ele>878.0</ele><time>2026-04-18T13:55:39Z</time></trkpt><trkpt lat="44.32801687045848" lon="10.760906796500002"><ele>878.0</ele><time>2026-04-18T13:55:42Z</time></trkpt><trkpt lat="44.32815777325425" lon="10.760873076410652"><ele>878.0</ele><time>2026-04-18T13:56:42Z</time></trkpt><trkpt lat="44.32824112906044" lon="10.760821758156006"><ele>878.0</ele><time>2026-04-18T13:56:44Z</time></trkpt><trkpt lat="44.328325010727035" lon="10.760835027446607"><ele>876.8</ele><time>2026-04-18T13:56:45.999Z</time></trkpt><trkpt lat="44.32841453129844" lon="10.760836468711286"><ele>875.5999999999999</ele><time>2026-04-18T13:56:47.999Z</time></trkpt><trkpt lat="44.32851849670858" lon="10.760846768084761"><ele>874.4000000000001</ele><time>2026-04-18T13:56:49.999Z</time></trkpt><trkpt lat="44.3286097423227" lon="10.760873134833147"><ele>873.2</ele><time>2026-04-18T13:56:51.999Z</time></trkpt><trkpt lat="44.32867664419042" lon="10.760865947408233"><ele>872.0</ele><time>2026-04-18T13:56:52.999Z</time></trkpt><trkpt lat="44.32879504653956" lon="10.76089622361268"><ele>872.0</ele><time>2026-04-18T13:56:54.999Z</time></trkpt><trkpt lat="44.32886235491421" lon="10.760895330632943"><ele>872.0</ele><time>2026-04-18T13:56:55.999Z</time></trkpt><trkpt lat="44.32898488805671" lon="10.760965675067295"><ele>872.0</ele><time>2026-04-18T13:56:57.999Z</time></trkpt><trkpt lat="44.32905166941046" lon="10.761026528498883"><ele>872.0</ele><time>2026-04-18T13:56:58.999Z</time></trkpt><trkpt lat="44.329149213589254" lon="10.761098874959902"><ele>872.0</ele><time>2026-04-18T13:57:00.999Z</time></trkpt><trkpt lat="44.32923529739628" lon="10.761154311424564"><ele>871.6</ele><time>2026-04-18T13:57:02.999Z</time></trkpt><trkpt lat="44.32930475120486" lon="10.761242041691565"><ele>871.2</ele><time>2026-04-18T13:57:04.999Z</time></trkpt><trkpt lat="44.329366901243866" lon="10.761282698443482"><ele>870.8</ele><time>2026-04-18T13:57:05.999Z</time></trkpt><trkpt lat="44.32948922637334" lon="10.76138654299414"><ele>870.4</ele><time>2026-04-18T13:57:07.999Z</time></trkpt><trkpt lat="44.32957392400281" lon="10.761435271224423"><ele>870.0</ele><time>2026-04-18T13:57:09.999Z</time></trkpt><trkpt lat="44.329664578988705" lon="10.76150762268277"><ele>869.0</ele><time>2026-04-18T13:57:11.999Z</time></trkpt><trkpt lat="44.32973785700534" lon="10.761555414558043"><ele>868.0</ele><time>2026-04-18T13:57:13.999Z</time></trkpt><trkpt lat="44.32983403968149" lon="10.761586865338913"><ele>867.0</ele><time>2026-04-18T13:57:15.999Z</time></trkpt><trkpt lat="44.329902114090096" lon="10.76163696026723"><ele>866.0</ele><time>2026-04-18T13:57:17.999Z</time></trkpt><trkpt lat="44.32997043913232" lon="10.761648457948112"><ele>865.0</ele><time>2026-04-18T13:57:19.999Z</time></trkpt><trkpt lat="44.33003179851514" lon="10.761680308276809"><ele>864.0</ele><time>2026-04-18T13:57:21.999Z</time></trkpt><trkpt lat="44.33013258853117" lon="10.761718220617224"><ele>864.0</ele><time>2026-04-18T13:57:23.999Z</time></trkpt><trkpt lat="44.330237546403126" lon="10.761744305181864"><ele>864.0000000000001</ele><time>2026-04-18T13:57:26Z</time></trkpt><trkpt lat="44.33034504600355" lon="10.761779503987274"><ele>864.0000000000001</ele><time>2026-04-18T13:57:28Z</time></trkpt><trkpt lat="44.33044863577968" lon="10.76181579019073"><ele>864.0</ele><time>2026-04-18T13:57:30Z</time></trkpt><trkpt lat="44.330567549841525" lon="10.761824400313671"><ele>864.0</ele><time>2026-04-18T13:57:32Z</time></trkpt><trkpt lat="44.330646825494014" lon="10.761822621817613"><ele>863.6</ele><time>2026-04-18T13:57:33Z</time></trkpt><trkpt lat="44.33072318655795" lon="10.761836900200414"><ele>863.2</ele><time>2026-04-18T13:57:34Z</time></trkpt><trkpt lat="44.3307904314411" lon="10.761842725477388"><ele>862.8000000000001</ele><time>2026-04-18T13:57:35Z</time></trkpt><trkpt lat="44.3309254123206" lon="10.7618628564557"><ele>862.4000000000001</ele><time>2026-04-18T13:57:37Z</time></trkpt><trkpt lat="44.33101145736974" lon="10.761860470910504"><ele>862.0</ele><time>2026-04-18T13:57:38Z</time></trkpt><trkpt lat="44.33114675780786" lon="10.761866345889656"><ele>860.4999999999999</ele><time>2026-04-18T13:57:40Z</time></trkpt><trkpt lat="44.331210330217395" lon="10.761880325683924"><ele>859.0</ele><time>2026-04-18T13:57:41Z</time></trkpt><trkpt lat="44.33127628928484" lon="10.761894425305004"><ele>857.5</ele><time>2026-04-18T13:57:42Z</time></trkpt><trkpt lat="44.33135134842237" lon="10.761916721237144"><ele>856.0</ele><time>2026-04-18T13:57:43Z</time></trkpt><trkpt lat="44.331432230360974" lon="10.761939183610766"><ele>854.4999999999999</ele><time>2026-04-18T13:57:44Z</time></trkpt><trkpt lat="44.3315448891232" lon="10.761958673735805"><ele>853.0</ele><time>2026-04-18T13:57:45Z</time></trkpt><trkpt lat="44.33166603883834" lon="10.762003162165257"><ele>851.9999999999999</ele><time>2026-04-18T13:57:46Z</time></trkpt><trkpt lat="44.331772336459885" lon="10.762023996261943"><ele>851.0</ele><time>2026-04-18T13:57:47Z</time></trkpt><trkpt lat="44.331849022349445" lon="10.762046434276822"><ele>850.0</ele><time>2026-04-18T13:57:48Z</time></trkpt><trkpt lat="44.33192688755938" lon="10.762060858916882"><ele>849.0</ele><time>2026-04-18T13:57:49Z</time></trkpt><trkpt lat="44.331995486589804" lon="10.762085009639735"><ele>847.9999999999999</ele><time>2026-04-18T13:57:50Z</time></trkpt><trkpt lat="44.33206023441177" lon="10.762104185655454"><ele>847.0</ele><time>2026-04-18T13:57:51Z</time></trkpt><trkpt lat="44.332153450682675" lon="10.762126348276134"><ele>847.0</ele><time>2026-04-18T13:57:53Z</time></trkpt><trkpt lat="44.33226977140037" lon="10.762205151147914"><ele>847.0</ele><time>2026-04-18T13:57:55Z</time></trkpt><trkpt lat="44.332352843128454" lon="10.762221877428175"><ele>847.0</ele><time>2026-04-18T13:57:56Z</time></trkpt><trkpt lat="44.33242717496139" lon="10.762216997751073"><ele>847.0</ele><time>2026-04-18T13:57:57Z</time></trkpt><trkpt lat="44.33255270913607" lon="10.762197604035212"><ele>847.0</ele><time>2026-04-18T13:57:59Z</time></trkpt><trkpt lat="44.33265696207428" lon="10.762217130380368"><ele>846.9999999999999</ele><time>2026-04-18T13:58:01Z</time></trkpt><trkpt lat="44.33272781886417" lon="10.762208859508759"><ele>847.0</ele><time>2026-04-18T13:58:04Z</time></trkpt><trkpt lat="44.33279216820477" lon="10.762221853116271"><ele>847.0</ele><time>2026-04-18T13:58:05Z</time></trkpt><trkpt lat="44.33291024005659" lon="10.762263498774045"><ele>847.0</ele><time>2026-04-18T13:58:07Z</time></trkpt><trkpt lat="44.33297942272016" lon="10.76229131460578"><ele>846.9999999999999</ele><time>2026-04-18T13:58:08Z</time></trkpt><trkpt lat="44.33305432462457" lon="10.762344236930392"><ele>847.0</ele><time>2026-04-18T13:58:09Z</time></trkpt><trkpt lat="44.33311757470947" lon="10.762385200327943"><ele>847.2</ele><time>2026-04-18T13:58:10Z</time></trkpt><trkpt lat="44.333237810941064" lon="10.762454911107493"><ele>847.4000000000001</ele><time>2026-04-18T13:58:12Z</time></trkpt><trkpt lat="44.33330863634232" lon="10.762510531501052"><ele>847.5999999999999</ele><time>2026-04-18T13:58:14Z</time></trkpt><trkpt lat="44.33337031569167" lon="10.762562021615476"><ele>847.8</ele><time>2026-04-18T13:58:15Z</time></trkpt><trkpt lat="44.33346263232056" lon="10.762672218168404"><ele>848.0</ele><time>2026-04-18T13:58:17Z</time></trkpt><trkpt lat="44.333533821570796" lon="10.762762983884587"><ele>848.1666666666667</ele><time>2026-04-18T13:58:19Z</time></trkpt><trkpt lat="44.333591848316026" lon="10.762831811863672"><ele>848.3333333333334</ele><time>2026-04-18T13:58:22Z</time></trkpt><trkpt lat="44.33366256663748" lon="10.762891683669622"><ele>848.5</ele><time>2026-04-18T13:58:25Z</time></trkpt><trkpt lat="44.33372755995537" lon="10.762922026751445"><ele>848.6666666666667</ele><time>2026-04-18T13:58:28Z</time></trkpt><trkpt lat="44.33380509301279" lon="10.76299139070446"><ele>848.8333333333334</ele><time>2026-04-18T13:58:30Z</time></trkpt><trkpt lat="44.333920235957386" lon="10.763016783752752"><ele>849.0</ele><time>2026-04-18T13:58:32Z</time></trkpt><trkpt lat="44.33399307082685" lon="10.763030263363953"><ele>849.0</ele><time>2026-04-18T13:58:34Z</time></trkpt><trkpt lat="44.33408908418616" lon="10.763011968513085"><ele>849.0</ele><time>2026-04-18T13:58:36Z</time></trkpt><trkpt lat="44.33418154850264" lon="10.762987106679178"><ele>849.0</ele><time>2026-04-18T13:58:38Z</time></trkpt><trkpt lat="44.3342518194703" lon="10.762970183583537"><ele>849.0</ele><time>2026-04-18T13:58:39Z</time></trkpt><trkpt lat="44.33432187098475" lon="10.762933946551403"><ele>849.0</ele><time>2026-04-18T13:58:40Z</time></trkpt><trkpt lat="44.33438429861934" lon="10.762897972088066"><ele>849.0</ele><time>2026-04-18T13:58:41Z</time></trkpt><trkpt lat="44.33445954074425" lon="10.762848992102823"><ele>849.0</ele><time>2026-04-18T13:58:42Z</time></trkpt><trkpt lat="44.3345689607697" lon="10.762810363637106"><ele>849.0</ele><time>2026-04-18T13:58:42.999Z</time></trkpt><trkpt lat="44.33465315018235" lon="10.76279118835726"><ele>849.0</ele><time>2026-04-18T13:58:43.999Z</time></trkpt><trkpt lat="44.33475844643736" lon="10.76275161292101"><ele>849.0</ele><time>2026-04-18T13:58:44.999Z</time></trkpt><trkpt lat="44.33482692996701" lon="10.762724659104075"><ele>849.0</ele><time>2026-04-18T13:58:45.999Z</time></trkpt><trkpt lat="44.33490022930333" lon="10.762698727646741"><ele>849.8333333333334</ele><time>2026-04-18T13:58:46.999Z</time></trkpt><trkpt lat="44.33498060151245" lon="10.76266797196349"><ele>850.6666666666667</ele><time>2026-04-18T13:58:47.999Z</time></trkpt><trkpt lat="44.335050038587376" lon="10.762624150589229"><ele>851.5</ele><time>2026-04-18T13:58:48.999Z</time></trkpt><trkpt lat="44.335107591275154" lon="10.762567832053463"><ele>852.3333333333334</ele><time>2026-04-18T13:58:49.999Z</time></trkpt><trkpt lat="44.33516489199997" lon="10.762488661482719"><ele>853.1666666666667</ele><time>2026-04-18T13:58:50.999Z</time></trkpt><trkpt lat="44.33522013666927" lon="10.762389007185956"><ele>854.0</ele><time>2026-04-18T13:58:52.999Z</time></trkpt><trkpt lat="44.33525445588301" lon="10.76230881649175"><ele>854.0000000000001</ele><time>2026-04-18T13:58:56.999Z</time></trkpt><trkpt lat="44.335307706847956" lon="10.762233142549173"><ele>854.0</ele><time>2026-04-18T13:59:09.999Z</time></trkpt><trkpt lat="44.335396649770274" lon="10.762106406580205"><ele>854.0</ele><time>2026-04-18T13:59:11.999Z</time></trkpt><trkpt lat="44.335443090780444" lon="10.762038174125445"><ele>854.0</ele><time>2026-04-18T13:59:12.999Z</time></trkpt><trkpt lat="44.3354880829322" lon="10.761946535086194"><ele>854.0000000000001</ele><time>2026-04-18T13:59:13.999Z</time></trkpt><trkpt lat="44.335531309430074" lon="10.761870128375621"><ele>854.0</ele><time>2026-04-18T13:59:14.999Z</time></trkpt><trkpt lat="44.33557615206154" lon="10.76177491170771"><ele>854.1666666666667</ele><time>2026-04-18T13:59:15.999Z</time></trkpt><trkpt lat="44.33562369270581" lon="10.761692328344918"><ele>854.3333333333334</ele><time>2026-04-18T13:59:16.999Z</time></trkpt><trkpt lat="44.33566768270808" lon="10.761620807431674"><ele>854.5</ele><time>2026-04-18T13:59:17.999Z</time></trkpt><trkpt lat="44.335738398430315" lon="10.761524176296165"><ele>854.6666666666667</ele><time>2026-04-18T13:59:19.999Z</time></trkpt><trkpt lat="44.33579044124938" lon="10.761445510911901"><ele>854.8333333333334</ele><time>2026-04-18T13:59:22.999Z</time></trkpt><trkpt lat="44.33586244400801" lon="10.761453541870322"><ele>855.0</ele><time>2026-04-18T13:59:32Z</time></trkpt><trkpt lat="44.33591950263212" lon="10.761414293539687"><ele>855.0</ele><time>2026-04-18T13:59:34Z</time></trkpt><trkpt lat="44.33599115649868" lon="10.761382315099677"><ele>855.0</ele><time>2026-04-18T13:59:37Z</time></trkpt><trkpt lat="44.33608019807029" lon="10.76133745541882"><ele>855.0</ele><time>2026-04-18T13:59:39Z</time></trkpt><trkpt lat="44.33615959249426" lon="10.761290235309255"><ele>855.0</ele><time>2026-04-18T13:59:41Z</time></trkpt><trkpt lat="44.33623879299547" lon="10.761224069999221"><ele>855.0</ele><time>2026-04-18T13:59:43Z</time></trkpt><trkpt lat="44.33634728361777" lon="10.761165485412903"><ele>853.8</ele><time>2026-04-18T13:59:45Z</time></trkpt><trkpt lat="44.336412178097575" lon="10.761142188880177"><ele>852.6</ele><time>2026-04-18T13:59:46Z</time></trkpt><trkpt lat="44.33652914592423" lon="10.761084516013936"><ele>851.4000000000001</ele><time>2026-04-18T13:59:48Z</time></trkpt><trkpt lat="44.33659541594536" lon="10.761046827934258"><ele>850.2</ele><time>2026-04-18T13:59:49Z</time></trkpt><trkpt lat="44.33670965666894" lon="10.761002263651894"><ele>849.0</ele><time>2026-04-18T13:59:51Z</time></trkpt><trkpt lat="44.336790339813284" lon="10.760931397273053"><ele>849.0</ele><time>2026-04-18T13:59:53Z</time></trkpt><trkpt lat="44.336873625191174" lon="10.760815682464951"><ele>849.0</ele><time>2026-04-18T13:59:55Z</time></trkpt><trkpt lat="44.336920398008935" lon="10.760647821080173"><ele>849.0</ele><time>2026-04-18T13:59:57Z</time></trkpt><trkpt lat="44.3369499665661" lon="10.760562963382867"><ele>849.0</ele><time>2026-04-18T13:59:58Z</time></trkpt><trkpt lat="44.337021785100134" lon="10.76041630890778"><ele>849.0</ele><time>2026-04-18T14:00:00Z</time></trkpt><trkpt lat="44.337050982411704" lon="10.760333157739062"><ele>849.0</ele><time>2026-04-18T14:00:01Z</time></trkpt><trkpt lat="44.33710230439742" lon="10.760205685832918"><ele>849.0</ele><time>2026-04-18T14:00:03Z</time></trkpt><trkpt lat="44.33714633051851" lon="10.760140090520176"><ele>849.0</ele><time>2026-04-18T14:00:12Z</time></trkpt><trkpt lat="44.33719575430608" lon="10.76004680908649"><ele>849.0</ele><time>2026-04-18T14:00:28Z</time></trkpt><trkpt lat="44.33724201059569" lon="10.759964608977564"><ele>849.0</ele><time>2026-04-18T14:00:31Z</time></trkpt><trkpt lat="44.337286567584215" lon="10.759888781960168"><ele>849.0</ele><time>2026-04-18T14:00:33Z</time></trkpt><trkpt lat="44.33735345936979" lon="10.75982216693826"><ele>845.6666666666666</ele><time>2026-04-18T14:00:35Z</time></trkpt><trkpt lat="44.337421742274245" lon="10.759792609260817"><ele>842.3333333333333</ele><time>2026-04-18T14:00:37Z</time></trkpt><trkpt lat="44.33750914538942" lon="10.75975020397125"><ele>839.0</ele><time>2026-04-18T14:00:39Z</time></trkpt><trkpt lat="44.33759973936196" lon="10.759725047462316"><ele>835.6666666666666</ele><time>2026-04-18T14:00:41Z</time></trkpt><trkpt lat="44.33767015722734" lon="10.759751574136622"><ele>832.3333333333333</ele><time>2026-04-18T14:00:45Z</time></trkpt><trkpt lat="44.337734165381654" lon="10.759740421851056"><ele>829.0</ele><time>2026-04-18T14:00:51.999Z</time></trkpt><trkpt lat="44.337799917422146" lon="10.759756238672699"><ele>828.9999999999999</ele><time>2026-04-18T14:00:54.999Z</time></trkpt><trkpt lat="44.33786144043741" lon="10.75981858483656"><ele>829.0</ele><time>2026-04-18T14:00:56.999Z</time></trkpt><trkpt lat="44.337905109756456" lon="10.759901501371903"><ele>829.0</ele><time>2026-04-18T14:00:59.999Z</time></trkpt><trkpt lat="44.33798983790395" lon="10.759963504789745"><ele>829.0</ele><time>2026-04-18T14:01:01.999Z</time></trkpt><trkpt lat="44.33807263005955" lon="10.759969503194677"><ele>828.9999999999999</ele><time>2026-04-18T14:01:03.999Z</time></trkpt><trkpt lat="44.33817350537815" lon="10.759999492891748"><ele>829.0</ele><time>2026-04-18T14:01:05.999Z</time></trkpt><trkpt lat="44.338268614398494" lon="10.759977200931488"><ele>824.8000000000001</ele><time>2026-04-18T14:01:08.999Z</time></trkpt><trkpt lat="44.338378381169704" lon="10.75993111123522"><ele>820.6</ele><time>2026-04-18T14:01:10.999Z</time></trkpt><trkpt lat="44.33844829121284" lon="10.759837745873782"><ele>816.4</ele><time>2026-04-18T14:01:12.999Z</time></trkpt><trkpt lat="44.338467652728994" lon="10.759705783334889"><ele>812.2</ele><time>2026-04-18T14:01:15.999Z</time></trkpt><trkpt lat="44.33848898584884" lon="10.759566965503222"><ele>808.0</ele><time>2026-04-18T14:01:17.999Z</time></trkpt><trkpt lat="44.33845030999258" lon="10.759416600516147"><ele>806.8333333333333</ele><time>2026-04-18T14:01:20.999Z</time></trkpt><trkpt lat="44.33842260926101" lon="10.75932377837577"><ele>805.6666666666666</ele><time>2026-04-18T14:01:22.999Z</time></trkpt><trkpt lat="44.338413985236876" lon="10.759224849854533"><ele>804.5</ele><time>2026-04-18T14:01:24.999Z</time></trkpt><trkpt lat="44.33844292217866" lon="10.75910837708542"><ele>803.3333333333333</ele><time>2026-04-18T14:01:26.999Z</time></trkpt><trkpt lat="44.33846179805483" lon="10.758976711422404"><ele>802.1666666666666</ele><time>2026-04-18T14:01:28.999Z</time></trkpt><trkpt lat="44.338495454264404" lon="10.758841210130845"><ele>801.0</ele><time>2026-04-18T14:01:30.999Z</time></trkpt><trkpt lat="44.33851661877855" lon="10.75874984992963"><ele>801.0</ele><time>2026-04-18T14:01:33.999Z</time></trkpt><trkpt lat="44.338527478005986" lon="10.758636684982026"><ele>801.0</ele><time>2026-04-18T14:01:42Z</time></trkpt><trkpt lat="44.33852566923186" lon="10.758500897017191"><ele>801.0</ele><time>2026-04-18T14:01:44Z</time></trkpt><trkpt lat="44.338502632796484" lon="10.758398088821096"><ele>801.0</ele><time>2026-04-18T14:01:46Z</time></trkpt><trkpt lat="44.338427839067165" lon="10.758317375887962"><ele>801.0</ele><time>2026-04-18T14:01:48Z</time></trkpt><trkpt lat="44.338413360872735" lon="10.758166591175451"><ele>798.0</ele><time>2026-04-18T14:01:50Z</time></trkpt><trkpt lat="44.338389066922964" lon="10.758033087438413"><ele>795.0</ele><time>2026-04-18T14:01:52Z</time></trkpt><trkpt lat="44.33837191433454" lon="10.75792572798761"><ele>792.0</ele><time>2026-04-18T14:01:54Z</time></trkpt><trkpt lat="44.33836451676277" lon="10.757804011992432"><ele>789.0</ele><time>2026-04-18T14:01:56Z</time></trkpt><trkpt lat="44.338313156550655" lon="10.757741806532875"><ele>786.0</ele><time>2026-04-18T14:01:58Z</time></trkpt><trkpt lat="44.33825882825798" lon="10.75765885478611"><ele>783.0</ele><time>2026-04-18T14:02:01Z</time></trkpt><trkpt lat="44.338357993119885" lon="10.757580041846863"><ele>781.0</ele><time>2026-04-18T14:02:14Z</time></trkpt><trkpt lat="44.33841793419945" lon="10.75753929372639"><ele>779.0</ele><time>2026-04-18T14:02:16Z</time></trkpt><trkpt lat="44.33845379613347" lon="10.75741765107533"><ele>777.0</ele><time>2026-04-18T14:02:19Z</time></trkpt><trkpt lat="44.33843750101986" lon="10.757330966251958"><ele>775.0</ele><time>2026-04-18T14:02:21Z</time></trkpt><trkpt lat="44.33844280888345" lon="10.757215695613995"><ele>773.0</ele><time>2026-04-18T14:02:26Z</time></trkpt><trkpt lat="44.33847491169623" lon="10.757123135479098"><ele>771.0</ele><time>2026-04-18T14:02:29Z</time></trkpt><trkpt lat="44.33843845749856" lon="10.75722330818337"><ele>771.0</ele><time>2026-04-18T14:02:36Z</time></trkpt><trkpt lat="44.33844471392985" lon="10.757342885057511"><ele>771.0</ele><time>2026-04-18T14:02:39Z</time></trkpt><trkpt lat="44.3384588381872" lon="10.757484533104966"><ele>771.0</ele><time>2026-04-18T14:02:41Z</time></trkpt><trkpt lat="44.33841220135098" lon="10.757574882181533"><ele>771.0</ele><time>2026-04-18T14:02:43Z</time></trkpt><trkpt lat="44.33832639458455" lon="10.757655324366109"><ele>771.0</ele><time>2026-04-18T14:02:45Z</time></trkpt><trkpt lat="44.33823875249999" lon="10.757642436014423"><ele>771.0</ele><time>2026-04-18T14:02:48Z</time></trkpt><trkpt lat="44.33817132475738" lon="10.757591214098035"><ele>771.0</ele><time>2026-04-18T14:02:50Z</time></trkpt><trkpt lat="44.33809340061296" lon="10.757504271408934"><ele>771.0</ele><time>2026-04-18T14:02:52Z</time></trkpt><trkpt lat="44.3380989179848" lon="10.757409915002224"><ele>771.0</ele><time>2026-04-18T14:02:54Z</time></trkpt><trkpt lat="44.33814464002966" lon="10.757302174410583"><ele>771.0</ele><time>2026-04-18T14:02:56Z</time></trkpt><trkpt lat="44.338171846644855" lon="10.757205448473556"><ele>771.0</ele><time>2026-04-18T14:02:58.999Z</time></trkpt><trkpt lat="44.33818708623849" lon="10.757080530722302"><ele>771.0</ele><time>2026-04-18T14:03:02.999Z</time></trkpt><trkpt lat="44.33813570238714" lon="10.756945858077952"><ele>771.0</ele><time>2026-04-18T14:03:05.999Z</time></trkpt><trkpt lat="44.33809723470334" lon="10.756874166296717"><ele>771.0</ele><time>2026-04-18T14:03:07.999Z</time></trkpt><trkpt lat="44.33805448980691" lon="10.756800178884799"><ele>771.0</ele><time>2026-04-18T14:03:09.999Z</time></trkpt><trkpt lat="44.3380403987192" lon="10.756678279974484"><ele>771.0</ele><time>2026-04-18T14:03:11.999Z</time></trkpt><trkpt lat="44.33802936608536" lon="10.756590723112284"><ele>771.0</ele><time>2026-04-18T14:03:13.999Z</time></trkpt><trkpt lat="44.338002432021675" lon="10.756502388835399"><ele>770.0</ele><time>2026-04-18T14:03:15.999Z</time></trkpt><trkpt lat="44.33797005400569" lon="10.756422194379152"><ele>769.0</ele><time>2026-04-18T14:03:17.999Z</time></trkpt><trkpt lat="44.33794542436739" lon="10.756328968723952"><ele>768.0</ele><time>2026-04-18T14:03:20.999Z</time></trkpt><trkpt lat="44.33788811021234" lon="10.75620325990115"><ele>767.0</ele><time>2026-04-18T14:03:23.999Z</time></trkpt><trkpt lat="44.33784238304318" lon="10.756124337742811"><ele>766.0</ele><time>2026-04-18T14:03:25.999Z</time></trkpt><trkpt lat="44.33777748498039" lon="10.756098993239435"><ele>765.0</ele><time>2026-04-18T14:03:29.999Z</time></trkpt><trkpt lat="44.337707526585866" lon="10.756049860072087"><ele>761.0</ele><time>2026-04-18T14:03:33.999Z</time></trkpt><trkpt lat="44.33767354246882" lon="10.755966793747442"><ele>757.0</ele><time>2026-04-18T14:03:36.999Z</time></trkpt><trkpt lat="44.337659436741895" lon="10.755868671016097"><ele>753.0</ele><time>2026-04-18T14:03:39.999Z</time></trkpt><trkpt lat="44.33762155093075" lon="10.755764561880813"><ele>749.0</ele><time>2026-04-18T14:03:44Z</time></trkpt><trkpt lat="44.3375746444024" lon="10.75565017570413"><ele>745.0</ele><time>2026-04-18T14:03:47Z</time></trkpt><trkpt lat="44.337557927649605" lon="10.755527935814841"><ele>741.0</ele><time>2026-04-18T14:03:49Z</time></trkpt><trkpt lat="44.33755337396484" lon="10.755388267727199"><ele>741.0</ele><time>2026-04-18T14:03:52Z</time></trkpt><trkpt lat="44.33752136738025" lon="10.755294958696627"><ele>741.0</ele><time>2026-04-18T14:03:54Z</time></trkpt><trkpt lat="44.33744477800568" lon="10.75522287330495"><ele>741.0</ele><time>2026-04-18T14:03:57Z</time></trkpt><trkpt lat="44.337363396682136" lon="10.755182869785335"><ele>741.0</ele><time>2026-04-18T14:03:59Z</time></trkpt><trkpt lat="44.33730107724435" lon="10.755130748804035"><ele>741.0</ele><time>2026-04-18T14:04:00Z</time></trkpt><trkpt lat="44.33722076182912" lon="10.75503028296471"><ele>741.0</ele><time>2026-04-18T14:04:02Z</time></trkpt><trkpt lat="44.3371662974568" lon="10.75491846414601"><ele>739.5</ele><time>2026-04-18T14:04:04Z</time></trkpt><trkpt lat="44.33713398449724" lon="10.754800886224505"><ele>738.0</ele><time>2026-04-18T14:04:06Z</time></trkpt><trkpt lat="44.33712448822631" lon="10.75467531826962"><ele>736.5</ele><time>2026-04-18T14:04:08Z</time></trkpt><trkpt lat="44.33710282269097" lon="10.754588829552837"><ele>735.0</ele><time>2026-04-18T14:04:10Z</time></trkpt><trkpt lat="44.33708892336007" lon="10.75450260794983"><ele>733.5</ele><time>2026-04-18T14:04:12Z</time></trkpt><trkpt lat="44.33709057343683" lon="10.754411526628115"><ele>732.0</ele><time>2026-04-18T14:04:14Z</time></trkpt><trkpt lat="44.337028012891096" lon="10.754331379890495"><ele>729.0</ele><time>2026-04-18T14:04:17Z</time></trkpt><trkpt lat="44.336951143854485" lon="10.754248531306976"><ele>726.0</ele><time>2026-04-18T14:04:19Z</time></trkpt><trkpt lat="44.3368952146928" lon="10.754164376204788"><ele>723.0</ele><time>2026-04-18T14:04:21Z</time></trkpt><trkpt lat="44.33683902474561" lon="10.754072132278132"><ele>720.0</ele><time>2026-04-18T14:04:23Z</time></trkpt><trkpt lat="44.33673852828053" lon="10.754003988685028"><ele>717.0</ele><time>2026-04-18T14:04:25Z</time></trkpt><trkpt lat="44.336685769538654" lon="10.753942122883013"><ele>714.0</ele><time>2026-04-18T14:04:27Z</time></trkpt><trkpt lat="44.33663413625637" lon="10.753880668252185"><ele>714.0</ele><time>2026-04-18T14:04:29Z</time></trkpt><trkpt lat="44.33657036339913" lon="10.753812274777218"><ele>714.0</ele><time>2026-04-18T14:04:31Z</time></trkpt><trkpt lat="44.336533502432594" lon="10.753704362570371"><ele>714.0</ele><time>2026-04-18T14:04:34Z</time></trkpt><trkpt lat="44.33649295882311" lon="10.753605908802102"><ele>714.0</ele><time>2026-04-18T14:04:38Z</time></trkpt><trkpt lat="44.336445150817575" lon="10.753530959398018"><ele>714.0</ele><time>2026-04-18T14:04:41Z</time></trkpt><trkpt lat="44.33638344624611" lon="10.753480367762908"><ele>714.0</ele><time>2026-04-18T14:04:43Z</time></trkpt><trkpt lat="44.336306745566034" lon="10.753397166729709"><ele>713.1666666666666</ele><time>2026-04-18T14:04:45Z</time></trkpt><trkpt lat="44.336235505038466" lon="10.753336803126302"><ele>712.3333333333334</ele><time>2026-04-18T14:04:47Z</time></trkpt><trkpt lat="44.336205230913166" lon="10.753224650645919"><ele>711.5</ele><time>2026-04-18T14:04:50Z</time></trkpt><trkpt lat="44.33613996965509" lon="10.75316248777558"><ele>710.6666666666667</ele><time>2026-04-18T14:04:52Z</time></trkpt><trkpt lat="44.33608618128482" lon="10.753088545655956"><ele>709.8333333333334</ele><time>2026-04-18T14:04:54Z</time></trkpt><trkpt lat="44.33604129832188" lon="10.753008890357883"><ele>709.0</ele><time>2026-04-18T14:04:57Z</time></trkpt><trkpt lat="44.33597587830913" lon="10.75295343110813"><ele>709.0000000000001</ele><time>2026-04-18T14:04:59Z</time></trkpt><trkpt lat="44.33592934626909" lon="10.752882444229966"><ele>709.0</ele><time>2026-04-18T14:05:07Z</time></trkpt><trkpt lat="44.33587841029563" lon="10.752827386957222"><ele>709.0</ele><time>2026-04-18T14:05:16.999Z</time></trkpt><trkpt lat="44.33584717309266" lon="10.752723913198723"><ele>709.0</ele><time>2026-04-18T14:05:23.999Z</time></trkpt><trkpt lat="44.33581946818891" lon="10.752638918047815"><ele>709.0</ele><time>2026-04-18T14:05:25.999Z</time></trkpt><trkpt lat="44.33580179508577" lon="10.752551446704146"><ele>709.0000000000001</ele><time>2026-04-18T14:05:26.999Z</time></trkpt><trkpt lat="44.335738112969125" lon="10.752484782015777"><ele>709.0</ele><time>2026-04-18T14:05:28.999Z</time></trkpt><trkpt lat="44.3357248713417" lon="10.752368866894411"><ele>706.8000000000001</ele><time>2026-04-18T14:05:30.999Z</time></trkpt><trkpt lat="44.33576057079318" lon="10.752276103236149"><ele>704.6</ele><time>2026-04-18T14:05:32.999Z</time></trkpt><trkpt lat="44.335787822071566" lon="10.752178155957955"><ele>702.4</ele><time>2026-04-18T14:05:34.999Z</time></trkpt><trkpt lat="44.335801550309085" lon="10.752020331078624"><ele>700.2</ele><time>2026-04-18T14:05:36.999Z</time></trkpt><trkpt lat="44.33580130123211" lon="10.751878321134143"><ele>698.0</ele><time>2026-04-18T14:05:38.999Z</time></trkpt><trkpt lat="44.3357922656476" lon="10.751731643908368"><ele>698.0</ele><time>2026-04-18T14:05:40.999Z</time></trkpt><trkpt lat="44.33577363246707" lon="10.75163503525054"><ele>698.0</ele><time>2026-04-18T14:05:42.999Z</time></trkpt><trkpt lat="44.3358030012743" lon="10.751530760358529"><ele>698.0</ele><time>2026-04-18T14:05:44.999Z</time></trkpt><trkpt lat="44.33577470242376" lon="10.75142648651493"><ele>698.0</ele><time>2026-04-18T14:05:47.999Z</time></trkpt><trkpt lat="44.33576016698563" lon="10.751326520524277"><ele>698.0</ele><time>2026-04-18T14:05:50Z</time></trkpt><trkpt lat="44.335745564762234" lon="10.751195346253185"><ele>698.0</ele><time>2026-04-18T14:06:00Z</time></trkpt><trkpt lat="44.33577096182015" lon="10.751073913062017"><ele>699.8</ele><time>2026-04-18T14:06:02Z</time></trkpt><trkpt lat="44.33582167978181" lon="10.75093646215808"><ele>701.5999999999999</ele><time>2026-04-18T14:06:06Z</time></trkpt><trkpt lat="44.33587874807071" lon="10.750809857191754"><ele>703.4000000000001</ele><time>2026-04-18T14:06:08Z</time></trkpt><trkpt lat="44.33591856016634" lon="10.75072034771127"><ele>705.2</ele><time>2026-04-18T14:06:09Z</time></trkpt><trkpt lat="44.33598569833976" lon="10.750629810113397"><ele>707.0</ele><time>2026-04-18T14:06:11Z</time></trkpt><trkpt lat="44.336039927406205" lon="10.750568507466664"><ele>707.0</ele><time>2026-04-18T14:06:13Z</time></trkpt><trkpt lat="44.33612088626885" lon="10.750499197281087"><ele>707.0</ele><time>2026-04-18T14:06:16Z</time></trkpt><trkpt lat="44.336201807347095" lon="10.750437855842971"><ele>707.0</ele><time>2026-04-18T14:06:38Z</time></trkpt><trkpt lat="44.33624623956656" lon="10.750346554020208"><ele>707.0</ele><time>2026-04-18T14:06:40Z</time></trkpt><trkpt lat="44.33629301963626" lon="10.750187323109387"><ele>707.0</ele><time>2026-04-18T14:06:42Z</time></trkpt><trkpt lat="44.33632367859514" lon="10.7500872928182"><ele>707.1666666666666</ele><time>2026-04-18T14:06:46Z</time></trkpt><trkpt lat="44.3363696033244" lon="10.749962563960901"><ele>707.3333333333333</ele><time>2026-04-18T14:06:51Z</time></trkpt><trkpt lat="44.3363995885228" lon="10.749858567333417"><ele>707.5</ele><time>2026-04-18T14:06:54Z</time></trkpt><trkpt lat="44.33642313465257" lon="10.749767907498542"><ele>707.6666666666666</ele><time>2026-04-18T14:06:56Z</time></trkpt><trkpt lat="44.336477704623405" lon="10.749720398901067"><ele>707.8333333333334</ele><time>2026-04-18T14:06:58Z</time></trkpt><trkpt lat="44.336593717294235" lon="10.749710752984813"><ele>708.0</ele><time>2026-04-18T14:07:01Z</time></trkpt><trkpt lat="44.33670492767769" lon="10.74973635318249"><ele>705.1428571428572</ele><time>2026-04-18T14:07:03Z</time></trkpt><trkpt lat="44.336773013972696" lon="10.749762926679756"><ele>702.2857142857142</ele><time>2026-04-18T14:07:05Z</time></trkpt><trkpt lat="44.33682385180336" lon="10.749710257091191"><ele>699.4285714285714</ele><time>2026-04-18T14:07:08Z</time></trkpt><trkpt lat="44.33687871018685" lon="10.749661368620378"><ele>696.5714285714287</ele><time>2026-04-18T14:07:10Z</time></trkpt><trkpt lat="44.33694678306656" lon="10.74960973561057"><ele>693.7142857142858</ele><time>2026-04-18T14:07:12Z</time></trkpt><trkpt lat="44.33703200028232" lon="10.749609957729453"><ele>690.8571428571429</ele><time>2026-04-18T14:07:15Z</time></trkpt><trkpt lat="44.337093451462394" lon="10.749573880987185"><ele>688.0</ele><time>2026-04-18T14:07:18Z</time></trkpt><trkpt lat="44.33713364516639" lon="10.749460783356108"><ele>687.8</ele><time>2026-04-18T14:07:22Z</time></trkpt><trkpt lat="44.337119145472" lon="10.749308753700634"><ele>687.5999999999999</ele><time>2026-04-18T14:07:23.999Z</time></trkpt><trkpt lat="44.33713097620766" lon="10.749179578252779"><ele>687.4000000000001</ele><time>2026-04-18T14:07:25.999Z</time></trkpt><trkpt lat="44.33714858339015" lon="10.749033887483332"><ele>687.2</ele><time>2026-04-18T14:07:27.999Z</time></trkpt><trkpt lat="44.33709327409963" lon="10.748933277369124"><ele>687.0</ele><time>2026-04-18T14:07:30.999Z</time></trkpt><trkpt lat="44.33706472333161" lon="10.748832274049212"><ele>687.0</ele><time>2026-04-18T14:07:33.999Z</time></trkpt><trkpt lat="44.337098028547054" lon="10.748704188714846"><ele>687.0</ele><time>2026-04-18T14:07:35.999Z</time></trkpt><trkpt lat="44.33710615125688" lon="10.7485962521873"><ele>687.0</ele><time>2026-04-18T14:07:37.999Z</time></trkpt><trkpt lat="44.3371456355425" lon="10.748517944859389"><ele>687.0</ele><time>2026-04-18T14:07:39.999Z</time></trkpt><trkpt lat="44.33721200845911" lon="10.74849858508618"><ele>687.0</ele><time>2026-04-18T14:07:41.999Z</time></trkpt><trkpt lat="44.33720913696135" lon="10.748357359126034"><ele>687.0</ele><time>2026-04-18T14:07:45.999Z</time></trkpt><trkpt lat="44.337241515011556" lon="10.748281145305846"><ele>679.0</ele><time>2026-04-18T14:07:48.999Z</time></trkpt></trkseg></trk></gpx>